<?xml version='1.0' encoding='UTF-8'?><gpx version="1.1" creator="JPX - https://github.com/jenetics/jpx" xmlns="http://www.topografix.com/GPX/1/1"><trk><trkseg><trkpt lat="43.3412557" lon="11.9167142"><ele>261.0</ele><time>2026-04-03T10:07:58.917Z</time></trkpt><trkpt lat="43.3413055" lon="11.9167704"><ele>261.0</ele><time>2026-04-03T10:08:01.917Z</time></trkpt><trkpt lat="43.341363" lon="11.9168214"><ele>261.0</ele><time>2026-04-03T10:08:04.916Z</time></trkpt><trkpt lat="43.3414581" lon="11.9167713"><ele>261.0</ele><time>2026-04-03T10:08:39.917Z</time></trkpt><trkpt lat="43.3415423" lon="11.9166832"><ele>261.0</ele><time>2026-04-03T10:08:41.916Z</time></trkpt><trkpt lat="43.3415876" lon="11.9166167"><ele>261.0</ele><time>2026-04-03T10:08:42.917Z</time></trkpt><trkpt lat="43.3416381" lon="11.9165457"><ele>261.8</ele><time>2026-04-03T10:08:43.917Z</time></trkpt><trkpt lat="43.3417001" lon="11.9164517"><ele>262.6</ele><time>2026-04-03T10:08:44.916Z</time></trkpt><trkpt lat="43.3417666" lon="11.9163592"><ele>263.4</ele><time>2026-04-03T10:08:45.917Z</time></trkpt><trkpt lat="43.3418276" lon="11.916266"><ele>264.2</ele><time>2026-04-03T10:08:46.916Z</time></trkpt><trkpt lat="43.3418883" lon="11.9161709"><ele>265.0</ele><time>2026-04-03T10:08:47.917Z</time></trkpt><trkpt lat="43.3419467" lon="11.9160714"><ele>265.0</ele><time>2026-04-03T10:08:48.917Z</time></trkpt><trkpt lat="43.3420092" lon="11.9159765"><ele>265.0</ele><time>2026-04-03T10:08:49.917Z</time></trkpt><trkpt lat="43.3420666" lon="11.915882"><ele>265.0</ele><time>2026-04-03T10:08:50.916Z</time></trkpt><trkpt lat="43.3421295" lon="11.9157838"><ele>265.0</ele><time>2026-04-03T10:08:51.917Z</time></trkpt><trkpt lat="43.3421902" lon="11.9157048"><ele>265.0</ele><time>2026-04-03T10:08:52.917Z</time></trkpt><trkpt lat="43.3422418" lon="11.9156519"><ele>265.0</ele><time>2026-04-03T10:08:53.917Z</time></trkpt><trkpt lat="43.3423027" lon="11.9156174"><ele>265.8</ele><time>2026-04-03T10:08:56.916Z</time></trkpt><trkpt lat="43.3423568" lon="11.9155375"><ele>266.6</ele><time>2026-04-03T10:08:59.917Z</time></trkpt><trkpt lat="43.3423931" lon="11.9154161"><ele>267.4</ele><time>2026-04-03T10:09:01.917Z</time></trkpt><trkpt lat="43.3424483" lon="11.9152487"><ele>268.2</ele><time>2026-04-03T10:09:03.917Z</time></trkpt><trkpt lat="43.342504" lon="11.9151649"><ele>269.0</ele><time>2026-04-03T10:09:04.917Z</time></trkpt><trkpt lat="43.3425681" lon="11.9150794"><ele>268.5</ele><time>2026-04-03T10:09:05.916Z</time></trkpt><trkpt lat="43.3426256" lon="11.9149924"><ele>268.0</ele><time>2026-04-03T10:09:06.916Z</time></trkpt><trkpt lat="43.3426786" lon="11.9149082"><ele>267.5</ele><time>2026-04-03T10:09:07.916Z</time></trkpt><trkpt lat="43.3427268" lon="11.9148317"><ele>267.0</ele><time>2026-04-03T10:09:08.917Z</time></trkpt><trkpt lat="43.3427711" lon="11.9147665"><ele>266.5</ele><time>2026-04-03T10:09:09.917Z</time></trkpt><trkpt lat="43.3428555" lon="11.9146756"><ele>266.0</ele><time>2026-04-03T10:09:11.917Z</time></trkpt><trkpt lat="43.3428853" lon="11.9145929"><ele>266.0</ele><time>2026-04-03T10:09:13.916Z</time></trkpt><trkpt lat="43.3428539" lon="11.9144913"><ele>266.0</ele><time>2026-04-03T10:09:15.916Z</time></trkpt><trkpt lat="43.3427883" lon="11.914404"><ele>266.0</ele><time>2026-04-03T10:09:17.917Z</time></trkpt><trkpt lat="43.3427268" lon="11.9143194"><ele>266.0</ele><time>2026-04-03T10:09:19.916Z</time></trkpt><trkpt lat="43.3426478" lon="11.9142286"><ele>266.0</ele><time>2026-04-03T10:09:21.917Z</time></trkpt><trkpt lat="43.3425785" lon="11.9141337"><ele>265.83333333333337</ele><time>2026-04-03T10:09:23.917Z</time></trkpt><trkpt lat="43.3425188" lon="11.914024"><ele>265.6666666666667</ele><time>2026-04-03T10:09:25.916Z</time></trkpt><trkpt lat="43.3424679" lon="11.9139707"><ele>265.5</ele><time>2026-04-03T10:09:26.917Z</time></trkpt><trkpt lat="43.3424133" lon="11.9139036"><ele>265.3333333333333</ele><time>2026-04-03T10:09:27.917Z</time></trkpt><trkpt lat="43.3423643" lon="11.9138251"><ele>265.16666666666663</ele><time>2026-04-03T10:09:28.916Z</time></trkpt><trkpt lat="43.3423169" lon="11.9137269"><ele>265.0</ele><time>2026-04-03T10:09:29.917Z</time></trkpt><trkpt lat="43.3422661" lon="11.9136204"><ele>265.0</ele><time>2026-04-03T10:09:30.917Z</time></trkpt><trkpt lat="43.3422226" lon="11.9135013"><ele>265.0</ele><time>2026-04-03T10:09:31.916Z</time></trkpt><trkpt lat="43.3421837" lon="11.9133863"><ele>265.0</ele><time>2026-04-03T10:09:32.916Z</time></trkpt><trkpt lat="43.3421523" lon="11.9132716"><ele>265.0</ele><time>2026-04-03T10:09:33.917Z</time></trkpt><trkpt lat="43.3421305" lon="11.9131404"><ele>265.0</ele><time>2026-04-03T10:09:34.916Z</time></trkpt><trkpt lat="43.3421151" lon="11.9130026"><ele>264.25</ele><time>2026-04-03T10:09:35.917Z</time></trkpt><trkpt lat="43.3421118" lon="11.9128422"><ele>263.5</ele><time>2026-04-03T10:09:36.916Z</time></trkpt><trkpt lat="43.3421018" lon="11.9126717"><ele>262.75</ele><time>2026-04-03T10:09:37.917Z</time></trkpt><trkpt lat="43.3420858" lon="11.9124847"><ele>262.0</ele><time>2026-04-03T10:09:38.917Z</time></trkpt><trkpt lat="43.3420694" lon="11.9122584"><ele>261.66666666666663</ele><time>2026-04-03T10:09:39.916Z</time></trkpt><trkpt lat="43.3420478" lon="11.9119941"><ele>261.3333333333333</ele><time>2026-04-03T10:09:40.917Z</time></trkpt><trkpt lat="43.3420334" lon="11.911704"><ele>261.0</ele><time>2026-04-03T10:09:41.916Z</time></trkpt><trkpt lat="43.3420197" lon="11.9114286"><ele>260.3333333333333</ele><time>2026-04-03T10:09:42.916Z</time></trkpt><trkpt lat="43.3420143" lon="11.9111886"><ele>259.66666666666663</ele><time>2026-04-03T10:09:43.917Z</time></trkpt><trkpt lat="43.3420121" lon="11.9109801"><ele>259.0</ele><time>2026-04-03T10:09:44.916Z</time></trkpt><trkpt lat="43.3420123" lon="11.910785"><ele>258.5</ele><time>2026-04-03T10:09:45.916Z</time></trkpt><trkpt lat="43.3420215" lon="11.9106018"><ele>258.0</ele><time>2026-04-03T10:09:46.917Z</time></trkpt><trkpt lat="43.3420313" lon="11.9104279"><ele>257.5</ele><time>2026-04-03T10:09:47.917Z</time></trkpt><trkpt lat="43.3420578" lon="11.9102467"><ele>257.0</ele><time>2026-04-03T10:09:48.916Z</time></trkpt><trkpt lat="43.3420982" lon="11.9100596"><ele>257.0</ele><time>2026-04-03T10:09:49.917Z</time></trkpt><trkpt lat="43.3421448" lon="11.9098655"><ele>257.0</ele><time>2026-04-03T10:09:50.917Z</time></trkpt><trkpt lat="43.3421903" lon="11.9096676"><ele>257.0</ele><time>2026-04-03T10:09:51.917Z</time></trkpt><trkpt lat="43.3422352" lon="11.9094694"><ele>258.0</ele><time>2026-04-03T10:09:52.917Z</time></trkpt><trkpt lat="43.342275" lon="11.9092835"><ele>259.0</ele><time>2026-04-03T10:09:53.916Z</time></trkpt><trkpt lat="43.342312" lon="11.9091159"><ele>260.0</ele><time>2026-04-03T10:09:54.916Z</time></trkpt><trkpt lat="43.3423494" lon="11.908972"><ele>261.0</ele><time>2026-04-03T10:09:55.917Z</time></trkpt><trkpt lat="43.3423832" lon="11.9088442"><ele>261.0</ele><time>2026-04-03T10:09:56.917Z</time></trkpt><trkpt lat="43.3424139" lon="11.9087092"><ele>261.0</ele><time>2026-04-03T10:09:57.917Z</time></trkpt><trkpt lat="43.3424456" lon="11.9085678"><ele>261.0</ele><time>2026-04-03T10:09:58.916Z</time></trkpt><trkpt lat="43.3424777" lon="11.908404"><ele>261.0</ele><time>2026-04-03T10:09:59.917Z</time></trkpt><trkpt lat="43.3425281" lon="11.9082268"><ele>260.75</ele><time>2026-04-03T10:10:00.916Z</time></trkpt><trkpt lat="43.3425709" lon="11.9080487"><ele>260.5</ele><time>2026-04-03T10:10:01.917Z</time></trkpt><trkpt lat="43.3426159" lon="11.9078642"><ele>260.25</ele><time>2026-04-03T10:10:02.916Z</time></trkpt><trkpt lat="43.3426576" lon="11.9077013"><ele>260.0</ele><time>2026-04-03T10:10:03.916Z</time></trkpt><trkpt lat="43.3426968" lon="11.9075544"><ele>259.8</ele><time>2026-04-03T10:10:04.917Z</time></trkpt><trkpt lat="43.3427393" lon="11.9074269"><ele>259.6</ele><time>2026-04-03T10:10:05.916Z</time></trkpt><trkpt lat="43.342781" lon="11.907315"><ele>259.4</ele><time>2026-04-03T10:10:06.916Z</time></trkpt><trkpt lat="43.3428294" lon="11.9072281"><ele>259.2</ele><time>2026-04-03T10:10:07.917Z</time></trkpt><trkpt lat="43.3429169" lon="11.9071579"><ele>259.0</ele><time>2026-04-03T10:10:09.916Z</time></trkpt><trkpt lat="43.3430104" lon="11.9072034"><ele>259.3333333333333</ele><time>2026-04-03T10:10:11.917Z</time></trkpt><trkpt lat="43.3431183" lon="11.9072833"><ele>259.66666666666663</ele><time>2026-04-03T10:10:13.917Z</time></trkpt><trkpt lat="43.3432062" lon="11.9073552"><ele>260.0</ele><time>2026-04-03T10:10:15.917Z</time></trkpt><trkpt lat="43.3432688" lon="11.9074031"><ele>260.3333333333333</ele><time>2026-04-03T10:10:17.916Z</time></trkpt><trkpt lat="43.3433241" lon="11.9074504"><ele>260.6666666666667</ele><time>2026-04-03T10:10:19.917Z</time></trkpt><trkpt lat="43.3433893" lon="11.9075285"><ele>261.0</ele><time>2026-04-03T10:10:21.916Z</time></trkpt><trkpt lat="43.3434844" lon="11.907644"><ele>261.1666666666667</ele><time>2026-04-03T10:10:23.917Z</time></trkpt><trkpt lat="43.3435402" lon="11.9077163"><ele>261.3333333333333</ele><time>2026-04-03T10:10:24.916Z</time></trkpt><trkpt lat="43.3435977" lon="11.9077889"><ele>261.5</ele><time>2026-04-03T10:10:25.916Z</time></trkpt><trkpt lat="43.3436507" lon="11.9078726"><ele>261.66666666666663</ele><time>2026-04-03T10:10:26.917Z</time></trkpt><trkpt lat="43.3437109" lon="11.9079514"><ele>261.8333333333333</ele><time>2026-04-03T10:10:27.917Z</time></trkpt><trkpt lat="43.3437763" lon="11.9080249"><ele>262.0</ele><time>2026-04-03T10:10:28.917Z</time></trkpt><trkpt lat="43.3438385" lon="11.9080911"><ele>262.4</ele><time>2026-04-03T10:10:29.916Z</time></trkpt><trkpt lat="43.3438895" lon="11.9081537"><ele>262.79999999999995</ele><time>2026-04-03T10:10:30.916Z</time></trkpt><trkpt lat="43.3439775" lon="11.9082656"><ele>263.2</ele><time>2026-04-03T10:10:32.917Z</time></trkpt><trkpt lat="43.3440577" lon="11.9083326"><ele>263.59999999999997</ele><time>2026-04-03T10:10:34.917Z</time></trkpt><trkpt lat="43.3441341" lon="11.9083153"><ele>264.0</ele><time>2026-04-03T10:10:36.917Z</time></trkpt><trkpt lat="43.3442037" lon="11.9081728"><ele>264.0</ele><time>2026-04-03T10:10:38.916Z</time></trkpt><trkpt lat="43.3442541" lon="11.9080713"><ele>264.0</ele><time>2026-04-03T10:10:39.916Z</time></trkpt><trkpt lat="43.344316" lon="11.9079409"><ele>264.0</ele><time>2026-04-03T10:10:40.917Z</time></trkpt><trkpt lat="43.344383" lon="11.9077986"><ele>264.0</ele><time>2026-04-03T10:10:41.916Z</time></trkpt><trkpt lat="43.3444506" lon="11.9076613"><ele>264.0</ele><time>2026-04-03T10:10:42.916Z</time></trkpt><trkpt lat="43.3445247" lon="11.9075154"><ele>263.8</ele><time>2026-04-03T10:10:43.916Z</time></trkpt><trkpt lat="43.3445942" lon="11.9073751"><ele>263.59999999999997</ele><time>2026-04-03T10:10:44.917Z</time></trkpt><trkpt lat="43.3446595" lon="11.9072512"><ele>263.4</ele><time>2026-04-03T10:10:45.917Z</time></trkpt><trkpt lat="43.3447158" lon="11.9071413"><ele>263.2</ele><time>2026-04-03T10:10:46.917Z</time></trkpt><trkpt lat="43.344758" lon="11.9070458"><ele>263.0</ele><time>2026-04-03T10:10:47.917Z</time></trkpt><trkpt lat="43.344789" lon="11.9069646"><ele>263.0</ele><time>2026-04-03T10:10:48.917Z</time></trkpt><trkpt lat="43.3448369" lon="11.9068621"><ele>263.0</ele><time>2026-04-03T10:10:50.916Z</time></trkpt><trkpt lat="43.3449154" lon="11.9068635"><ele>263.0</ele><time>2026-04-03T10:10:54.917Z</time></trkpt><trkpt lat="43.3450089" lon="11.9068649"><ele>263.0</ele><time>2026-04-03T10:10:56.917Z</time></trkpt><trkpt lat="43.3451431" lon="11.9068875"><ele>263.0</ele><time>2026-04-03T10:10:58.916Z</time></trkpt><trkpt lat="43.3452379" lon="11.9069681"><ele>263.0</ele><time>2026-04-03T10:11:00.917Z</time></trkpt><trkpt lat="43.3453146" lon="11.9070401"><ele>263.0</ele><time>2026-04-03T10:11:02.916Z</time></trkpt><trkpt lat="43.3452774" lon="11.9069099"><ele>263.0</ele><time>2026-04-03T10:11:06.916Z</time></trkpt><trkpt lat="43.3451957" lon="11.9068827"><ele>263.0</ele><time>2026-04-03T10:11:07.917Z</time></trkpt><trkpt lat="43.3450959" lon="11.9068634"><ele>263.0</ele><time>2026-04-03T10:11:08.916Z</time></trkpt><trkpt lat="43.3450002" lon="11.9068621"><ele>263.0</ele><time>2026-04-03T10:11:09.917Z</time></trkpt><trkpt lat="43.3449262" lon="11.9068626"><ele>263.0</ele><time>2026-04-03T10:11:10.916Z</time></trkpt><trkpt lat="43.3448429" lon="11.9068338"><ele>263.0</ele><time>2026-04-03T10:11:12.916Z</time></trkpt><trkpt lat="43.3448443" lon="11.9067347"><ele>263.0</ele><time>2026-04-03T10:11:14.917Z</time></trkpt><trkpt lat="43.3449042" lon="11.9066158"><ele>263.0</ele><time>2026-04-03T10:11:16.916Z</time></trkpt><trkpt lat="43.3449872" lon="11.9064869"><ele>262.8</ele><time>2026-04-03T10:11:18.916Z</time></trkpt><trkpt lat="43.3450379" lon="11.9064082"><ele>262.6</ele><time>2026-04-03T10:11:19.917Z</time></trkpt><trkpt lat="43.3450904" lon="11.9063135"><ele>262.4</ele><time>2026-04-03T10:11:20.917Z</time></trkpt><trkpt lat="43.3451422" lon="11.9062037"><ele>262.2</ele><time>2026-04-03T10:11:21.917Z</time></trkpt><trkpt lat="43.3452079" lon="11.9060923"><ele>262.0</ele><time>2026-04-03T10:11:22.917Z</time></trkpt><trkpt lat="43.3452935" lon="11.9060115"><ele>262.0</ele><time>2026-04-03T10:11:23.917Z</time></trkpt><trkpt lat="43.3453898" lon="11.905957"><ele>262.0</ele><time>2026-04-03T10:11:24.917Z</time></trkpt><trkpt lat="43.3454982" lon="11.9059144"><ele>262.0</ele><time>2026-04-03T10:11:25.917Z</time></trkpt><trkpt lat="43.3456011" lon="11.9058715"><ele>262.0</ele><time>2026-04-03T10:11:26.916Z</time></trkpt><trkpt lat="43.3456974" lon="11.9058295"><ele>262.0</ele><time>2026-04-03T10:11:27.916Z</time></trkpt><trkpt lat="43.3457759" lon="11.9057834"><ele>262.2</ele><time>2026-04-03T10:11:28.917Z</time></trkpt><trkpt lat="43.3458452" lon="11.9057321"><ele>262.4</ele><time>2026-04-03T10:11:29.916Z</time></trkpt><trkpt lat="43.3459094" lon="11.9056603"><ele>262.6</ele><time>2026-04-03T10:11:30.916Z</time></trkpt><trkpt lat="43.3459655" lon="11.9055556"><ele>262.8</ele><time>2026-04-03T10:11:31.917Z</time></trkpt><trkpt lat="43.3460091" lon="11.905416"><ele>263.0</ele><time>2026-04-03T10:11:32.917Z</time></trkpt><trkpt lat="43.3460438" lon="11.9052529"><ele>263.0</ele><time>2026-04-03T10:11:33.916Z</time></trkpt><trkpt lat="43.3460851" lon="11.9050692"><ele>263.0</ele><time>2026-04-03T10:11:34.917Z</time></trkpt><trkpt lat="43.3461283" lon="11.9048702"><ele>263.0</ele><time>2026-04-03T10:11:35.917Z</time></trkpt><trkpt lat="43.3461709" lon="11.9046606"><ele>263.0</ele><time>2026-04-03T10:11:36.917Z</time></trkpt><trkpt lat="43.3462136" lon="11.9044502"><ele>263.33333333333337</ele><time>2026-04-03T10:11:37.916Z</time></trkpt><trkpt lat="43.3462604" lon="11.9042421"><ele>263.6666666666667</ele><time>2026-04-03T10:11:38.917Z</time></trkpt><trkpt lat="43.3463044" lon="11.9040443"><ele>264.0</ele><time>2026-04-03T10:11:39.917Z</time></trkpt><trkpt lat="43.3463477" lon="11.9038526"><ele>264.5</ele><time>2026-04-03T10:11:40.917Z</time></trkpt><trkpt lat="43.3463897" lon="11.9036733"><ele>265.0</ele><time>2026-04-03T10:11:41.916Z</time></trkpt><trkpt lat="43.3464282" lon="11.9035112"><ele>265.5</ele><time>2026-04-03T10:11:42.916Z</time></trkpt><trkpt lat="43.3464609" lon="11.9033592"><ele>266.0</ele><time>2026-04-03T10:11:43.917Z</time></trkpt><trkpt lat="43.3465119" lon="11.9032292"><ele>266.0</ele><time>2026-04-03T10:11:44.917Z</time></trkpt><trkpt lat="43.3465819" lon="11.9031121"><ele>266.0</ele><time>2026-04-03T10:11:45.917Z</time></trkpt><trkpt lat="43.3466823" lon="11.903016"><ele>266.0</ele><time>2026-04-03T10:11:46.917Z</time></trkpt><trkpt lat="43.3468011" lon="11.9029562"><ele>266.0</ele><time>2026-04-03T10:11:47.916Z</time></trkpt><trkpt lat="43.346928" lon="11.9029341"><ele>266.0</ele><time>2026-04-03T10:11:48.917Z</time></trkpt><trkpt lat="43.3470567" lon="11.9029502"><ele>266.0</ele><time>2026-04-03T10:11:49.916Z</time></trkpt><trkpt lat="43.3471808" lon="11.9029973"><ele>266.0</ele><time>2026-04-03T10:11:50.917Z</time></trkpt><trkpt lat="43.3473026" lon="11.9030546"><ele>266.0</ele><time>2026-04-03T10:11:51.917Z</time></trkpt><trkpt lat="43.3474249" lon="11.9031213"><ele>266.5</ele><time>2026-04-03T10:11:52.916Z</time></trkpt><trkpt lat="43.3475548" lon="11.9031812"><ele>267.0</ele><time>2026-04-03T10:11:53.916Z</time></trkpt><trkpt lat="43.3476898" lon="11.9032392"><ele>267.5</ele><time>2026-04-03T10:11:54.917Z</time></trkpt><trkpt lat="43.3478149" lon="11.9033027"><ele>268.0</ele><time>2026-04-03T10:11:55.916Z</time></trkpt><trkpt lat="43.3479372" lon="11.9033549"><ele>268.0</ele><time>2026-04-03T10:11:56.916Z</time></trkpt><trkpt lat="43.3480431" lon="11.9034027"><ele>268.0</ele><time>2026-04-03T10:11:57.917Z</time></trkpt><trkpt lat="43.3481366" lon="11.9034524"><ele>268.0</ele><time>2026-04-03T10:11:58.916Z</time></trkpt><trkpt lat="43.3482164" lon="11.9035226"><ele>268.0</ele><time>2026-04-03T10:11:59.915Z</time></trkpt><trkpt lat="43.3482883" lon="11.903605"><ele>268.0</ele><time>2026-04-03T10:12:00.915Z</time></trkpt><trkpt lat="43.3483522" lon="11.9036829"><ele>268.0</ele><time>2026-04-03T10:12:01.916Z</time></trkpt><trkpt lat="43.3484255" lon="11.9037411"><ele>268.0</ele><time>2026-04-03T10:12:02.916Z</time></trkpt><trkpt lat="43.3485147" lon="11.9037754"><ele>268.0</ele><time>2026-04-03T10:12:03.916Z</time></trkpt><trkpt lat="43.3486192" lon="11.9038078"><ele>268.0</ele><time>2026-04-03T10:12:04.915Z</time></trkpt><trkpt lat="43.3487165" lon="11.9038573"><ele>268.0</ele><time>2026-04-03T10:12:05.915Z</time></trkpt><trkpt lat="43.3488263" lon="11.903938"><ele>268.0</ele><time>2026-04-03T10:12:06.915Z</time></trkpt><trkpt lat="43.3489353" lon="11.9040402"><ele>268.0</ele><time>2026-04-03T10:12:07.916Z</time></trkpt><trkpt lat="43.3490479" lon="11.904151"><ele>268.0</ele><time>2026-04-03T10:12:08.915Z</time></trkpt><trkpt lat="43.3491723" lon="11.9042663"><ele>268.0</ele><time>2026-04-03T10:12:09.915Z</time></trkpt><trkpt lat="43.3492947" lon="11.9043721"><ele>268.0</ele><time>2026-04-03T10:12:10.915Z</time></trkpt><trkpt lat="43.3494172" lon="11.9044746"><ele>268.0</ele><time>2026-04-03T10:12:11.915Z</time></trkpt><trkpt lat="43.349538" lon="11.9045804"><ele>268.0</ele><time>2026-04-03T10:12:12.915Z</time></trkpt><trkpt lat="43.3496641" lon="11.9046779"><ele>268.0</ele><time>2026-04-03T10:12:13.916Z</time></trkpt><trkpt lat="43.349791" lon="11.9047692"><ele>269.25</ele><time>2026-04-03T10:12:14.915Z</time></trkpt><trkpt lat="43.349921" lon="11.9048485"><ele>270.5</ele><time>2026-04-03T10:12:15.915Z</time></trkpt><trkpt lat="43.3500577" lon="11.9049244"><ele>271.75</ele><time>2026-04-03T10:12:16.916Z</time></trkpt><trkpt lat="43.3501889" lon="11.9050025"><ele>273.0</ele><time>2026-04-03T10:12:17.915Z</time></trkpt><trkpt lat="43.3503206" lon="11.9050994"><ele>273.6666666666667</ele><time>2026-04-03T10:12:18.915Z</time></trkpt><trkpt lat="43.3504504" lon="11.9052171"><ele>274.33333333333337</ele><time>2026-04-03T10:12:19.915Z</time></trkpt><trkpt lat="43.3505731" lon="11.9053507"><ele>275.0</ele><time>2026-04-03T10:12:20.915Z</time></trkpt><trkpt lat="43.3506792" lon="11.9054743"><ele>275.75</ele><time>2026-04-03T10:12:21.915Z</time></trkpt><trkpt lat="43.3507757" lon="11.905591"><ele>276.5</ele><time>2026-04-03T10:12:22.915Z</time></trkpt><trkpt lat="43.3508681" lon="11.9056962"><ele>277.25</ele><time>2026-04-03T10:12:23.916Z</time></trkpt><trkpt lat="43.3509575" lon="11.9058058"><ele>278.0</ele><time>2026-04-03T10:12:24.916Z</time></trkpt><trkpt lat="43.3510397" lon="11.905908"><ele>278.0</ele><time>2026-04-03T10:12:25.915Z</time></trkpt><trkpt lat="43.3511134" lon="11.9060088"><ele>278.0</ele><time>2026-04-03T10:12:26.915Z</time></trkpt><trkpt lat="43.3511803" lon="11.9061107"><ele>278.0</ele><time>2026-04-03T10:12:27.915Z</time></trkpt><trkpt lat="43.3512333" lon="11.906194"><ele>278.0</ele><time>2026-04-03T10:12:28.916Z</time></trkpt><trkpt lat="43.3512874" lon="11.9063116"><ele>278.0</ele><time>2026-04-03T10:12:30.916Z</time></trkpt><trkpt lat="43.3513308" lon="11.9064266"><ele>278.8</ele><time>2026-04-03T10:12:32.915Z</time></trkpt><trkpt lat="43.3514141" lon="11.9064984"><ele>279.6</ele><time>2026-04-03T10:12:34.916Z</time></trkpt><trkpt lat="43.3515202" lon="11.9064289"><ele>280.4</ele><time>2026-04-03T10:12:36.916Z</time></trkpt><trkpt lat="43.3515797" lon="11.906318"><ele>281.2</ele><time>2026-04-03T10:12:37.916Z</time></trkpt><trkpt lat="43.3516472" lon="11.9061786"><ele>282.0</ele><time>2026-04-03T10:12:38.916Z</time></trkpt><trkpt lat="43.3517328" lon="11.906016"><ele>281.5</ele><time>2026-04-03T10:12:39.915Z</time></trkpt><trkpt lat="43.3518266" lon="11.9058522"><ele>281.0</ele><time>2026-04-03T10:12:40.915Z</time></trkpt><trkpt lat="43.3519214" lon="11.9056953"><ele>280.5</ele><time>2026-04-03T10:12:41.915Z</time></trkpt><trkpt lat="43.3520215" lon="11.9055517"><ele>280.0</ele><time>2026-04-03T10:12:42.916Z</time></trkpt><trkpt lat="43.3521285" lon="11.9054085"><ele>280.3333333333333</ele><time>2026-04-03T10:12:43.916Z</time></trkpt><trkpt lat="43.3522309" lon="11.905256"><ele>280.6666666666667</ele><time>2026-04-03T10:12:44.915Z</time></trkpt><trkpt lat="43.3523271" lon="11.9050961"><ele>281.0</ele><time>2026-04-03T10:12:45.915Z</time></trkpt><trkpt lat="43.3524253" lon="11.904939"><ele>281.0</ele><time>2026-04-03T10:12:46.916Z</time></trkpt><trkpt lat="43.3525236" lon="11.9047813"><ele>281.0</ele><time>2026-04-03T10:12:47.916Z</time></trkpt><trkpt lat="43.3526237" lon="11.904622"><ele>281.0</ele><time>2026-04-03T10:12:48.915Z</time></trkpt><trkpt lat="43.3527195" lon="11.9044724"><ele>281.0</ele><time>2026-04-03T10:12:49.915Z</time></trkpt><trkpt lat="43.3528119" lon="11.9043292"><ele>280.5</ele><time>2026-04-03T10:12:50.915Z</time></trkpt><trkpt lat="43.3528985" lon="11.9041966"><ele>280.0</ele><time>2026-04-03T10:12:51.915Z</time></trkpt><trkpt lat="43.35298" lon="11.9040762"><ele>279.5</ele><time>2026-04-03T10:12:52.916Z</time></trkpt><trkpt lat="43.3530542" lon="11.9039588"><ele>279.0</ele><time>2026-04-03T10:12:53.916Z</time></trkpt><trkpt lat="43.3531214" lon="11.9038544"><ele>279.3333333333333</ele><time>2026-04-03T10:12:54.916Z</time></trkpt><trkpt lat="43.353184" lon="11.9037571"><ele>279.6666666666667</ele><time>2026-04-03T10:12:55.915Z</time></trkpt><trkpt lat="43.3532438" lon="11.9036728"><ele>280.0</ele><time>2026-04-03T10:12:56.916Z</time></trkpt><trkpt lat="43.3533035" lon="11.9035851"><ele>280.33333333333337</ele><time>2026-04-03T10:12:57.916Z</time></trkpt><trkpt lat="43.3533657" lon="11.9034957"><ele>280.6666666666667</ele><time>2026-04-03T10:12:58.915Z</time></trkpt><trkpt lat="43.3534236" lon="11.9034074"><ele>281.0</ele><time>2026-04-03T10:12:59.915Z</time></trkpt><trkpt lat="43.3534761" lon="11.9033281"><ele>281.0</ele><time>2026-04-03T10:13:00.916Z</time></trkpt><trkpt lat="43.353522" lon="11.9032657"><ele>281.0</ele><time>2026-04-03T10:13:01.915Z</time></trkpt><trkpt lat="43.3535937" lon="11.9032338"><ele>281.0</ele><time>2026-04-03T10:13:03.915Z</time></trkpt><trkpt lat="43.3536427" lon="11.9033301"><ele>281.0</ele><time>2026-04-03T10:13:05.916Z</time></trkpt><trkpt lat="43.3536674" lon="11.9034222"><ele>281.0</ele><time>2026-04-03T10:13:06.915Z</time></trkpt><trkpt lat="43.3537044" lon="11.9035275"><ele>281.0</ele><time>2026-04-03T10:13:07.915Z</time></trkpt><trkpt lat="43.3537534" lon="11.9036504"><ele>281.75</ele><time>2026-04-03T10:13:08.916Z</time></trkpt><trkpt lat="43.3538147" lon="11.9037935"><ele>282.5</ele><time>2026-04-03T10:13:09.916Z</time></trkpt><trkpt lat="43.3538785" lon="11.903938"><ele>283.25</ele><time>2026-04-03T10:13:10.916Z</time></trkpt><trkpt lat="43.3539331" lon="11.9040912"><ele>284.0</ele><time>2026-04-03T10:13:11.915Z</time></trkpt><trkpt lat="43.3539938" lon="11.904246"><ele>284.25</ele><time>2026-04-03T10:13:12.916Z</time></trkpt><trkpt lat="43.3540573" lon="11.9044109"><ele>284.5</ele><time>2026-04-03T10:13:13.915Z</time></trkpt><trkpt lat="43.354121" lon="11.9045643"><ele>284.75</ele><time>2026-04-03T10:13:14.916Z</time></trkpt><trkpt lat="43.3541822" lon="11.9047116"><ele>285.0</ele><time>2026-04-03T10:13:15.916Z</time></trkpt><trkpt lat="43.3542454" lon="11.9048711"><ele>285.0</ele><time>2026-04-03T10:13:16.915Z</time></trkpt><trkpt lat="43.3543067" lon="11.9050283"><ele>285.0</ele><time>2026-04-03T10:13:17.915Z</time></trkpt><trkpt lat="43.3543707" lon="11.905187"><ele>285.0</ele><time>2026-04-03T10:13:18.916Z</time></trkpt><trkpt lat="43.3544331" lon="11.9053494"><ele>285.0</ele><time>2026-04-03T10:13:19.916Z</time></trkpt><trkpt lat="43.3544973" lon="11.905504"><ele>285.25</ele><time>2026-04-03T10:13:20.915Z</time></trkpt><trkpt lat="43.3545643" lon="11.905657"><ele>285.5</ele><time>2026-04-03T10:13:21.915Z</time></trkpt><trkpt lat="43.3546324" lon="11.9058147"><ele>285.75</ele><time>2026-04-03T10:13:22.915Z</time></trkpt><trkpt lat="43.3546999" lon="11.90598"><ele>286.0</ele><time>2026-04-03T10:13:23.916Z</time></trkpt><trkpt lat="43.3547642" lon="11.9061391"><ele>286.2</ele><time>2026-04-03T10:13:24.916Z</time></trkpt><trkpt lat="43.3548255" lon="11.9062822"><ele>286.40000000000003</ele><time>2026-04-03T10:13:25.916Z</time></trkpt><trkpt lat="43.3548796" lon="11.9064136"><ele>286.6</ele><time>2026-04-03T10:13:26.916Z</time></trkpt><trkpt lat="43.3549294" lon="11.9065461"><ele>286.8</ele><time>2026-04-03T10:13:27.916Z</time></trkpt><trkpt lat="43.3549864" lon="11.9066748"><ele>287.0</ele><time>2026-04-03T10:13:28.915Z</time></trkpt><trkpt lat="43.3550538" lon="11.9068077"><ele>288.2</ele><time>2026-04-03T10:13:29.915Z</time></trkpt><trkpt lat="43.3551289" lon="11.9069348"><ele>289.4</ele><time>2026-04-03T10:13:30.916Z</time></trkpt><trkpt lat="43.3552056" lon="11.9070522"><ele>290.6</ele><time>2026-04-03T10:13:31.916Z</time></trkpt><trkpt lat="43.3552817" lon="11.9071592"><ele>291.8</ele><time>2026-04-03T10:13:32.915Z</time></trkpt><trkpt lat="43.3553529" lon="11.9072488"><ele>293.0</ele><time>2026-04-03T10:13:33.916Z</time></trkpt><trkpt lat="43.3554197" lon="11.9073284"><ele>293.0</ele><time>2026-04-03T10:13:34.916Z</time></trkpt><trkpt lat="43.3554717" lon="11.9074122"><ele>293.0</ele><time>2026-04-03T10:13:35.916Z</time></trkpt><trkpt lat="43.3555074" lon="11.9075115"><ele>293.0</ele><time>2026-04-03T10:13:36.916Z</time></trkpt><trkpt lat="43.3555244" lon="11.9076356"><ele>293.0</ele><time>2026-04-03T10:13:37.916Z</time></trkpt><trkpt lat="43.3555236" lon="11.9077821"><ele>293.0</ele><time>2026-04-03T10:13:38.916Z</time></trkpt><trkpt lat="43.3555085" lon="11.9079567"><ele>294.4</ele><time>2026-04-03T10:13:39.915Z</time></trkpt><trkpt lat="43.355495" lon="11.908122"><ele>295.8</ele><time>2026-04-03T10:13:40.916Z</time></trkpt><trkpt lat="43.3554933" lon="11.9082662"><ele>297.2</ele><time>2026-04-03T10:13:41.915Z</time></trkpt><trkpt lat="43.3555002" lon="11.9083853"><ele>298.6</ele><time>2026-04-03T10:13:42.916Z</time></trkpt><trkpt lat="43.355512" lon="11.9085015"><ele>300.0</ele><time>2026-04-03T10:13:43.915Z</time></trkpt><trkpt lat="43.3555263" lon="11.908607"><ele>299.71428571428567</ele><time>2026-04-03T10:13:44.916Z</time></trkpt><trkpt lat="43.3555392" lon="11.9087044"><ele>299.42857142857144</ele><time>2026-04-03T10:13:45.916Z</time></trkpt><trkpt lat="43.3555644" lon="11.9087974"><ele>299.1428571428571</ele><time>2026-04-03T10:13:46.916Z</time></trkpt><trkpt lat="43.3555853" lon="11.9088994"><ele>298.85714285714283</ele><time>2026-04-03T10:13:47.916Z</time></trkpt><trkpt lat="43.3556034" lon="11.9089991"><ele>298.57142857142856</ele><time>2026-04-03T10:13:48.916Z</time></trkpt><trkpt lat="43.3556219" lon="11.9090948"><ele>298.2857142857143</ele><time>2026-04-03T10:13:49.916Z</time></trkpt><trkpt lat="43.3556443" lon="11.9091761"><ele>298.0</ele><time>2026-04-03T10:13:51.915Z</time></trkpt><trkpt lat="43.355677" lon="11.9092691"><ele>299.1428571428571</ele><time>2026-04-03T10:14:04.916Z</time></trkpt><trkpt lat="43.3557084" lon="11.9093618"><ele>300.2857142857143</ele><time>2026-04-03T10:14:05.916Z</time></trkpt><trkpt lat="43.3557422" lon="11.9094361"><ele>301.42857142857144</ele><time>2026-04-03T10:14:06.915Z</time></trkpt><trkpt lat="43.3557787" lon="11.9095113"><ele>302.57142857142856</ele><time>2026-04-03T10:14:07.915Z</time></trkpt><trkpt lat="43.3558131" lon="11.9095865"><ele>303.7142857142857</ele><time>2026-04-03T10:14:08.915Z</time></trkpt><trkpt lat="43.3558433" lon="11.9096656"><ele>304.85714285714283</ele><time>2026-04-03T10:14:09.915Z</time></trkpt><trkpt lat="43.35586" lon="11.9097504"><ele>306.0</ele><time>2026-04-03T10:14:10.916Z</time></trkpt><trkpt lat="43.355878" lon="11.9098335"><ele>306.0</ele><time>2026-04-03T10:14:11.916Z</time></trkpt><trkpt lat="43.3559155" lon="11.9099771"><ele>306.0</ele><time>2026-04-03T10:14:13.916Z</time></trkpt><trkpt lat="43.3559453" lon="11.9101331"><ele>306.0</ele><time>2026-04-03T10:14:15.916Z</time></trkpt><trkpt lat="43.3559605" lon="11.9102202"><ele>306.0</ele><time>2026-04-03T10:14:16.915Z</time></trkpt><trkpt lat="43.3559739" lon="11.9103208"><ele>306.0</ele><time>2026-04-03T10:14:17.915Z</time></trkpt><trkpt lat="43.3559834" lon="11.9104259"><ele>306.0</ele><time>2026-04-03T10:14:18.915Z</time></trkpt><trkpt lat="43.3559903" lon="11.9105338"><ele>306.57142857142856</ele><time>2026-04-03T10:14:19.916Z</time></trkpt><trkpt lat="43.3559919" lon="11.9106336"><ele>307.14285714285717</ele><time>2026-04-03T10:14:20.915Z</time></trkpt><trkpt lat="43.3559927" lon="11.9107334"><ele>307.7142857142857</ele><time>2026-04-03T10:14:21.915Z</time></trkpt><trkpt lat="43.3559933" lon="11.9108321"><ele>308.2857142857143</ele><time>2026-04-03T10:14:22.915Z</time></trkpt><trkpt lat="43.3559857" lon="11.9109275"><ele>308.85714285714283</ele><time>2026-04-03T10:14:23.915Z</time></trkpt><trkpt lat="43.3559647" lon="11.9110213"><ele>309.42857142857144</ele><time>2026-04-03T10:14:24.916Z</time></trkpt><trkpt lat="43.3559372" lon="11.9111104"><ele>310.0</ele><time>2026-04-03T10:14:25.916Z</time></trkpt><trkpt lat="43.3558988" lon="11.9111941"><ele>310.2</ele><time>2026-04-03T10:14:26.916Z</time></trkpt><trkpt lat="43.3558604" lon="11.9112747"><ele>310.4</ele><time>2026-04-03T10:14:27.916Z</time></trkpt><trkpt lat="43.3558251" lon="11.9113486"><ele>310.6</ele><time>2026-04-03T10:14:28.916Z</time></trkpt><trkpt lat="43.3557547" lon="11.9114879"><ele>310.8</ele><time>2026-04-03T10:14:30.915Z</time></trkpt><trkpt lat="43.3556582" lon="11.9115952"><ele>311.0</ele><time>2026-04-03T10:14:32.915Z</time></trkpt><trkpt lat="43.3555907" lon="11.9116453"><ele>312.6666666666667</ele><time>2026-04-03T10:14:33.916Z</time></trkpt><trkpt lat="43.3555256" lon="11.9117054"><ele>314.33333333333337</ele><time>2026-04-03T10:14:34.916Z</time></trkpt><trkpt lat="43.3554727" lon="11.9117687"><ele>316.0</ele><time>2026-04-03T10:14:35.916Z</time></trkpt><trkpt lat="43.3554256" lon="11.911845"><ele>317.6666666666667</ele><time>2026-04-03T10:14:36.916Z</time></trkpt><trkpt lat="43.3553801" lon="11.9119184"><ele>319.3333333333333</ele><time>2026-04-03T10:14:37.915Z</time></trkpt><trkpt lat="43.3553256" lon="11.9119878"><ele>321.0</ele><time>2026-04-03T10:14:38.915Z</time></trkpt><trkpt lat="43.3552597" lon="11.9120711"><ele>321.0</ele><time>2026-04-03T10:14:39.916Z</time></trkpt><trkpt lat="43.3551729" lon="11.9121786"><ele>321.0</ele><time>2026-04-03T10:14:40.916Z</time></trkpt><trkpt lat="43.355086" lon="11.9123042"><ele>321.0</ele><time>2026-04-03T10:14:41.916Z</time></trkpt><trkpt lat="43.3550142" lon="11.9124285"><ele>321.0</ele><time>2026-04-03T10:14:42.916Z</time></trkpt><trkpt lat="43.35495" lon="11.9125374"><ele>322.6666666666667</ele><time>2026-04-03T10:14:43.915Z</time></trkpt><trkpt lat="43.3548964" lon="11.9126313"><ele>324.3333333333333</ele><time>2026-04-03T10:14:44.915Z</time></trkpt><trkpt lat="43.3548557" lon="11.9127232"><ele>326.0</ele><time>2026-04-03T10:14:45.915Z</time></trkpt><trkpt lat="43.3548326" lon="11.9128203"><ele>327.66666666666663</ele><time>2026-04-03T10:14:46.916Z</time></trkpt><trkpt lat="43.3548228" lon="11.9129152"><ele>329.3333333333333</ele><time>2026-04-03T10:14:47.916Z</time></trkpt><trkpt lat="43.3548058" lon="11.913022"><ele>331.0</ele><time>2026-04-03T10:14:48.916Z</time></trkpt><trkpt lat="43.354782" lon="11.9131329"><ele>331.0</ele><time>2026-04-03T10:14:49.916Z</time></trkpt><trkpt lat="43.3547523" lon="11.9132393"><ele>331.0</ele><time>2026-04-03T10:14:50.916Z</time></trkpt><trkpt lat="43.35472" lon="11.9133454"><ele>331.0</ele><time>2026-04-03T10:14:51.916Z</time></trkpt><trkpt lat="43.3546919" lon="11.9134437"><ele>331.0</ele><time>2026-04-03T10:14:52.915Z</time></trkpt><trkpt lat="43.354666" lon="11.9135309"><ele>331.0</ele><time>2026-04-03T10:14:53.915Z</time></trkpt><trkpt lat="43.3546342" lon="11.9136756"><ele>331.0</ele><time>2026-04-03T10:14:55.915Z</time></trkpt><trkpt lat="43.3545966" lon="11.9137688"><ele>330.4</ele><time>2026-04-03T10:14:57.915Z</time></trkpt><trkpt lat="43.3545627" lon="11.913861"><ele>329.8</ele><time>2026-04-03T10:15:01.916Z</time></trkpt><trkpt lat="43.3545791" lon="11.9139919"><ele>329.2</ele><time>2026-04-03T10:15:04.916Z</time></trkpt><trkpt lat="43.3546852" lon="11.9140799"><ele>328.59999999999997</ele><time>2026-04-03T10:15:06.915Z</time></trkpt><trkpt lat="43.3547759" lon="11.9141233"><ele>328.0</ele><time>2026-04-03T10:15:07.916Z</time></trkpt><trkpt lat="43.3548731" lon="11.9141717"><ele>330.3333333333333</ele><time>2026-04-03T10:15:08.915Z</time></trkpt><trkpt lat="43.3549685" lon="11.9142184"><ele>332.66666666666663</ele><time>2026-04-03T10:15:09.915Z</time></trkpt><trkpt lat="43.3550483" lon="11.9142541"><ele>335.0</ele><time>2026-04-03T10:15:10.916Z</time></trkpt><trkpt lat="43.3551215" lon="11.9142794"><ele>337.3333333333333</ele><time>2026-04-03T10:15:11.915Z</time></trkpt><trkpt lat="43.3551854" lon="11.9142945"><ele>339.6666666666667</ele><time>2026-04-03T10:15:12.916Z</time></trkpt><trkpt lat="43.3552683" lon="11.91434"><ele>342.0</ele><time>2026-04-03T10:15:14.916Z</time></trkpt><trkpt lat="43.35534" lon="11.914405"><ele>343.6</ele><time>2026-04-03T10:15:16.915Z</time></trkpt><trkpt lat="43.3552383" lon="11.9143283"><ele>345.20000000000005</ele><time>2026-04-03T10:15:29.915Z</time></trkpt><trkpt lat="43.3551733" lon="11.9143033"><ele>346.8</ele><time>2026-04-03T10:15:30.915Z</time></trkpt><trkpt lat="43.35507" lon="11.91425"><ele>348.4</ele><time>2026-04-03T10:15:32.916Z</time></trkpt><trkpt lat="43.3549983" lon="11.91427"><ele>350.0</ele><time>2026-04-03T10:15:35.915Z</time></trkpt><trkpt lat="43.3549633" lon="11.9143867"><ele>350.0</ele><time>2026-04-03T10:15:38.915Z</time></trkpt><trkpt lat="43.3549433" lon="11.914505"><ele>350.0</ele><time>2026-04-03T10:15:40.915Z</time></trkpt><trkpt lat="43.3549133" lon="11.91466"><ele>350.0</ele><time>2026-04-03T10:15:42.915Z</time></trkpt><trkpt lat="43.3548717" lon="11.914795"><ele>350.0</ele><time>2026-04-03T10:15:44.915Z</time></trkpt><trkpt lat="43.3548733" lon="11.9149267"><ele>350.0</ele><time>2026-04-03T10:15:46.915Z</time></trkpt><trkpt lat="43.354915" lon="11.91507"><ele>351.5</ele><time>2026-04-03T10:15:48.916Z</time></trkpt><trkpt lat="43.3549333" lon="11.9151567"><ele>353.0</ele><time>2026-04-03T10:15:49.916Z</time></trkpt><trkpt lat="43.354935" lon="11.915255"><ele>354.5</ele><time>2026-04-03T10:15:50.916Z</time></trkpt><trkpt lat="43.354935" lon="11.9153483"><ele>356.0</ele><time>2026-04-03T10:15:51.915Z</time></trkpt><trkpt lat="43.3549383" lon="11.9154483"><ele>357.5</ele><time>2026-04-03T10:15:52.916Z</time></trkpt><trkpt lat="43.3549567" lon="11.9156117"><ele>359.0</ele><time>2026-04-03T10:15:54.915Z</time></trkpt><trkpt lat="43.3549783" lon="11.91577"><ele>359.0</ele><time>2026-04-03T10:15:56.915Z</time></trkpt><trkpt lat="43.3549767" lon="11.91586"><ele>359.0</ele><time>2026-04-03T10:15:57.916Z</time></trkpt><trkpt lat="43.3549733" lon="11.9159633"><ele>359.0</ele><time>2026-04-03T10:15:58.915Z</time></trkpt><trkpt lat="43.354965" lon="11.91605"><ele>359.0</ele><time>2026-04-03T10:15:59.916Z</time></trkpt><trkpt lat="43.35493" lon="11.91618"><ele>359.0</ele><time>2026-04-03T10:16:01.915Z</time></trkpt><trkpt lat="43.3549483" lon="11.9162733"><ele>359.0</ele><time>2026-04-03T10:16:03.915Z</time></trkpt><trkpt lat="43.3550117" lon="11.91633"><ele>361.33333333333337</ele><time>2026-04-03T10:16:05.915Z</time></trkpt><trkpt lat="43.35504" lon="11.91642"><ele>363.6666666666667</ele><time>2026-04-03T10:16:08.915Z</time></trkpt><trkpt lat="43.3549783" lon="11.9164867"><ele>366.0</ele><time>2026-04-03T10:16:10.916Z</time></trkpt><trkpt lat="43.3549217" lon="11.91657"><ele>368.3333333333333</ele><time>2026-04-03T10:16:12.916Z</time></trkpt><trkpt lat="43.3549" lon="11.91668"><ele>370.66666666666663</ele><time>2026-04-03T10:16:14.915Z</time></trkpt><trkpt lat="43.3549" lon="11.916815"><ele>373.0</ele><time>2026-04-03T10:16:16.916Z</time></trkpt><trkpt lat="43.3549233" lon="11.9169817"><ele>375.4</ele><time>2026-04-03T10:16:18.915Z</time></trkpt><trkpt lat="43.3549367" lon="11.9170767"><ele>377.79999999999995</ele><time>2026-04-03T10:16:19.915Z</time></trkpt><trkpt lat="43.3549467" lon="11.9171667"><ele>380.2</ele><time>2026-04-03T10:16:20.915Z</time></trkpt><trkpt lat="43.3549683" lon="11.91731"><ele>382.6</ele><time>2026-04-03T10:16:22.916Z</time></trkpt><trkpt lat="43.35498" lon="11.9174667"><ele>385.0</ele><time>2026-04-03T10:16:24.916Z</time></trkpt><trkpt lat="43.3549917" lon="11.9175933"><ele>385.50000000000006</ele><time>2026-04-03T10:16:26.915Z</time></trkpt><trkpt lat="43.3549983" lon="11.9177367"><ele>386.0</ele><time>2026-04-03T10:16:28.916Z</time></trkpt><trkpt lat="43.355015" lon="11.9178383"><ele>386.5</ele><time>2026-04-03T10:16:30.915Z</time></trkpt><trkpt lat="43.3550483" lon="11.9179417"><ele>387.0</ele><time>2026-04-03T10:16:32.916Z</time></trkpt><trkpt lat="43.35507" lon="11.9180433"><ele>387.50000000000006</ele><time>2026-04-03T10:16:34.915Z</time></trkpt><trkpt lat="43.3551117" lon="11.9181483"><ele>388.0</ele><time>2026-04-03T10:16:37.916Z</time></trkpt><trkpt lat="43.3551567" lon="11.918235"><ele>388.0</ele><time>2026-04-03T10:16:39.915Z</time></trkpt><trkpt lat="43.3552183" lon="11.9183967"><ele>388.0</ele><time>2026-04-03T10:16:41.916Z</time></trkpt><trkpt lat="43.3552467" lon="11.9184783"><ele>388.0</ele><time>2026-04-03T10:16:42.916Z</time></trkpt><trkpt lat="43.3552933" lon="11.9186167"><ele>388.0</ele><time>2026-04-03T10:16:44.916Z</time></trkpt><trkpt lat="43.355355" lon="11.91875"><ele>388.0</ele><time>2026-04-03T10:16:46.915Z</time></trkpt><trkpt lat="43.3554317" lon="11.918845"><ele>386.79999999999995</ele><time>2026-04-03T10:16:48.915Z</time></trkpt><trkpt lat="43.3555083" lon="11.918945"><ele>385.6</ele><time>2026-04-03T10:16:50.915Z</time></trkpt><trkpt lat="43.35557" lon="11.91903"><ele>384.4</ele><time>2026-04-03T10:16:52.916Z</time></trkpt><trkpt lat="43.355665" lon="11.9191167"><ele>383.20000000000005</ele><time>2026-04-03T10:16:54.916Z</time></trkpt><trkpt lat="43.3557167" lon="11.9191683"><ele>382.0</ele><time>2026-04-03T10:16:55.915Z</time></trkpt><trkpt lat="43.3558083" lon="11.9192633"><ele>385.8333333333333</ele><time>2026-04-03T10:16:57.915Z</time></trkpt><trkpt lat="43.3558767" lon="11.9193433"><ele>389.66666666666663</ele><time>2026-04-03T10:16:59.916Z</time></trkpt><trkpt lat="43.3559317" lon="11.9194233"><ele>393.5</ele><time>2026-04-03T10:17:02.915Z</time></trkpt><trkpt lat="43.35598" lon="11.91948"><ele>397.3333333333333</ele><time>2026-04-03T10:18:16.916Z</time></trkpt><trkpt lat="43.3560167" lon="11.91964"><ele>401.1666666666667</ele><time>2026-04-03T10:18:18.915Z</time></trkpt><trkpt lat="43.356045" lon="11.9197367"><ele>405.0</ele><time>2026-04-03T10:18:19.915Z</time></trkpt><trkpt lat="43.35608" lon="11.91985"><ele>405.0</ele><time>2026-04-03T10:18:20.915Z</time></trkpt><trkpt lat="43.3561167" lon="11.9199567"><ele>405.0</ele><time>2026-04-03T10:18:21.916Z</time></trkpt><trkpt lat="43.3561583" lon="11.92007"><ele>405.0</ele><time>2026-04-03T10:18:22.916Z</time></trkpt><trkpt lat="43.356195" lon="11.920205"><ele>405.0</ele><time>2026-04-03T10:18:23.915Z</time></trkpt><trkpt lat="43.356235" lon="11.92034"><ele>405.0</ele><time>2026-04-03T10:18:24.915Z</time></trkpt><trkpt lat="43.356275" lon="11.92045"><ele>406.8333333333333</ele><time>2026-04-03T10:18:25.915Z</time></trkpt><trkpt lat="43.3563067" lon="11.9205583"><ele>408.66666666666663</ele><time>2026-04-03T10:18:26.916Z</time></trkpt><trkpt lat="43.3563317" lon="11.92065"><ele>410.5</ele><time>2026-04-03T10:18:27.916Z</time></trkpt><trkpt lat="43.3563883" lon="11.92079"><ele>412.3333333333333</ele><time>2026-04-03T10:18:29.916Z</time></trkpt><trkpt lat="43.3564217" lon="11.9208783"><ele>414.16666666666663</ele><time>2026-04-03T10:18:30.915Z</time></trkpt><trkpt lat="43.3564467" lon="11.92097"><ele>416.0</ele><time>2026-04-03T10:18:31.916Z</time></trkpt><trkpt lat="43.3564583" lon="11.9210917"><ele>421.49999999999994</ele><time>2026-04-03T10:18:32.915Z</time></trkpt><trkpt lat="43.356465" lon="11.92121"><ele>427.0</ele><time>2026-04-03T10:18:33.916Z</time></trkpt><trkpt lat="43.356465" lon="11.9213317"><ele>432.5</ele><time>2026-04-03T10:18:34.916Z</time></trkpt><trkpt lat="43.3564683" lon="11.9214333"><ele>438.0</ele><time>2026-04-03T10:18:35.916Z</time></trkpt><trkpt lat="43.3564667" lon="11.9215217"><ele>443.49999999999994</ele><time>2026-04-03T10:18:36.915Z</time></trkpt><trkpt lat="43.3564567" lon="11.9216583"><ele>449.0</ele><time>2026-04-03T10:18:38.916Z</time></trkpt><trkpt lat="43.356435" lon="11.9217467"><ele>446.99999999999994</ele><time>2026-04-03T10:18:40.916Z</time></trkpt><trkpt lat="43.35638" lon="11.9218017"><ele>445.0</ele><time>2026-04-03T10:18:42.915Z</time></trkpt><trkpt lat="43.356315" lon="11.92179"><ele>443.0</ele><time>2026-04-03T10:18:44.915Z</time></trkpt><trkpt lat="43.3561933" lon="11.92175"><ele>441.0</ele><time>2026-04-03T10:18:46.916Z</time></trkpt><trkpt lat="43.35612" lon="11.92172"><ele>438.99999999999994</ele><time>2026-04-03T10:18:47.916Z</time></trkpt><trkpt lat="43.356035" lon="11.9216967"><ele>437.0</ele><time>2026-04-03T10:18:48.916Z</time></trkpt><trkpt lat="43.3559417" lon="11.921695"><ele>436.99999999999994</ele><time>2026-04-03T10:18:49.915Z</time></trkpt><trkpt lat="43.3558483" lon="11.9216933"><ele>437.0</ele><time>2026-04-03T10:18:50.916Z</time></trkpt><trkpt lat="43.3557617" lon="11.9216967"><ele>437.0</ele><time>2026-04-03T10:18:51.915Z</time></trkpt><trkpt lat="43.3556667" lon="11.921695"><ele>437.0</ele><time>2026-04-03T10:18:52.915Z</time></trkpt><trkpt lat="43.3555783" lon="11.9216933"><ele>436.99999999999994</ele><time>2026-04-03T10:18:53.915Z</time></trkpt><trkpt lat="43.3554933" lon="11.9216833"><ele>437.0</ele><time>2026-04-03T10:18:54.916Z</time></trkpt><trkpt lat="43.35542" lon="11.92169"><ele>437.66666666666663</ele><time>2026-04-03T10:18:55.915Z</time></trkpt><trkpt lat="43.3553417" lon="11.9217017"><ele>438.3333333333333</ele><time>2026-04-03T10:18:56.915Z</time></trkpt><trkpt lat="43.355275" lon="11.9217183"><ele>439.0</ele><time>2026-04-03T10:18:57.916Z</time></trkpt><trkpt lat="43.3551533" lon="11.92173"><ele>439.66666666666663</ele><time>2026-04-03T10:18:59.916Z</time></trkpt><trkpt lat="43.355085" lon="11.9217417"><ele>440.3333333333333</ele><time>2026-04-03T10:19:00.916Z</time></trkpt><trkpt lat="43.3550083" lon="11.9217683"><ele>441.0</ele><time>2026-04-03T10:19:02.916Z</time></trkpt><trkpt lat="43.354925" lon="11.9218067"><ele>443.4</ele><time>2026-04-03T10:19:06.916Z</time></trkpt><trkpt lat="43.3548467" lon="11.9218467"><ele>445.8</ele><time>2026-04-03T10:19:08.915Z</time></trkpt><trkpt lat="43.35475" lon="11.9219117"><ele>448.19999999999993</ele><time>2026-04-03T10:19:10.915Z</time></trkpt><trkpt lat="43.354675" lon="11.9220417"><ele>450.59999999999997</ele><time>2026-04-03T10:19:12.916Z</time></trkpt><trkpt lat="43.3546333" lon="11.92218"><ele>453.0</ele><time>2026-04-03T10:19:14.916Z</time></trkpt><trkpt lat="43.3546" lon="11.9223367"><ele>452.99999999999994</ele><time>2026-04-03T10:19:16.915Z</time></trkpt><trkpt lat="43.3545883" lon="11.922435"><ele>453.0</ele><time>2026-04-03T10:19:17.916Z</time></trkpt><trkpt lat="43.3545783" lon="11.9225367"><ele>452.99999999999994</ele><time>2026-04-03T10:19:18.915Z</time></trkpt><trkpt lat="43.3545667" lon="11.92265"><ele>452.99999999999994</ele><time>2026-04-03T10:19:19.915Z</time></trkpt><trkpt lat="43.35455" lon="11.922735"><ele>453.0</ele><time>2026-04-03T10:19:20.915Z</time></trkpt><trkpt lat="43.354515" lon="11.92281"><ele>452.99999999999994</ele><time>2026-04-03T10:19:21.916Z</time></trkpt><trkpt lat="43.354465" lon="11.9228833"><ele>452.99999999999994</ele><time>2026-04-03T10:19:22.916Z</time></trkpt><trkpt lat="43.3543917" lon="11.9229367"><ele>454.5</ele><time>2026-04-03T10:19:23.915Z</time></trkpt><trkpt lat="43.3543183" lon="11.92297"><ele>456.0</ele><time>2026-04-03T10:19:24.916Z</time></trkpt><trkpt lat="43.354255" lon="11.922995"><ele>457.5</ele><time>2026-04-03T10:19:25.916Z</time></trkpt><trkpt lat="43.3541933" lon="11.9230267"><ele>459.0</ele><time>2026-04-03T10:19:27.916Z</time></trkpt><trkpt lat="43.3542217" lon="11.9231417"><ele>460.5</ele><time>2026-04-03T10:19:31.915Z</time></trkpt><trkpt lat="43.3542583" lon="11.9233283"><ele>462.0</ele><time>2026-04-03T10:19:33.915Z</time></trkpt><trkpt lat="43.3542833" lon="11.9234533"><ele>462.0</ele><time>2026-04-03T10:19:34.916Z</time></trkpt><trkpt lat="43.3543133" lon="11.92359"><ele>462.0</ele><time>2026-04-03T10:19:35.915Z</time></trkpt><trkpt lat="43.35436" lon="11.92374"><ele>462.0</ele><time>2026-04-03T10:19:36.916Z</time></trkpt><trkpt lat="43.354415" lon="11.9238917"><ele>462.0</ele><time>2026-04-03T10:19:37.916Z</time></trkpt><trkpt lat="43.354465" lon="11.92403"><ele>462.0</ele><time>2026-04-03T10:19:38.916Z</time></trkpt><trkpt lat="43.3545217" lon="11.9241517"><ele>462.00000000000006</ele><time>2026-04-03T10:19:39.916Z</time></trkpt><trkpt lat="43.3545717" lon="11.92426"><ele>462.00000000000006</ele><time>2026-04-03T10:19:40.915Z</time></trkpt><trkpt lat="43.35459" lon="11.92441"><ele>462.0</ele><time>2026-04-03T10:19:41.915Z</time></trkpt><trkpt lat="43.3546083" lon="11.9245633"><ele>462.0</ele><time>2026-04-03T10:19:42.915Z</time></trkpt><trkpt lat="43.35462" lon="11.92474"><ele>461.8</ele><time>2026-04-03T10:19:43.915Z</time></trkpt><trkpt lat="43.3546417" lon="11.9249017"><ele>461.6</ele><time>2026-04-03T10:19:44.915Z</time></trkpt><trkpt lat="43.3546733" lon="11.92503"><ele>461.40000000000003</ele><time>2026-04-03T10:19:45.916Z</time></trkpt><trkpt lat="43.35472" lon="11.92515"><ele>461.20000000000005</ele><time>2026-04-03T10:19:46.916Z</time></trkpt><trkpt lat="43.3547967" lon="11.9252733"><ele>461.0</ele><time>2026-04-03T10:19:47.916Z</time></trkpt><trkpt lat="43.3548833" lon="11.925395"><ele>464.8</ele><time>2026-04-03T10:19:48.915Z</time></trkpt><trkpt lat="43.354975" lon="11.9255183"><ele>468.6</ele><time>2026-04-03T10:19:49.915Z</time></trkpt><trkpt lat="43.355055" lon="11.9256133"><ele>472.4</ele><time>2026-04-03T10:19:50.916Z</time></trkpt><trkpt lat="43.3551367" lon="11.9256967"><ele>476.2</ele><time>2026-04-03T10:19:51.915Z</time></trkpt><trkpt lat="43.3552267" lon="11.9257817"><ele>480.0</ele><time>2026-04-03T10:19:52.916Z</time></trkpt><trkpt lat="43.3553167" lon="11.92585"><ele>481.2</ele><time>2026-04-03T10:19:53.916Z</time></trkpt><trkpt lat="43.3554033" lon="11.9259083"><ele>482.4</ele><time>2026-04-03T10:19:54.916Z</time></trkpt><trkpt lat="43.3554933" lon="11.925975"><ele>483.6</ele><time>2026-04-03T10:19:55.915Z</time></trkpt><trkpt lat="43.355575" lon="11.926065"><ele>484.8</ele><time>2026-04-03T10:19:56.915Z</time></trkpt><trkpt lat="43.3556517" lon="11.9261717"><ele>486.0</ele><time>2026-04-03T10:19:57.916Z</time></trkpt><trkpt lat="43.355715" lon="11.9262783"><ele>486.0</ele><time>2026-04-03T10:19:58.915Z</time></trkpt><trkpt lat="43.3557633" lon="11.92636"><ele>486.0</ele><time>2026-04-03T10:19:59.915Z</time></trkpt><trkpt lat="43.3558017" lon="11.926435"><ele>486.0</ele><time>2026-04-03T10:20:00.915Z</time></trkpt><trkpt lat="43.3558517" lon="11.92652"><ele>486.0</ele><time>2026-04-03T10:20:02.915Z</time></trkpt><trkpt lat="43.3557967" lon="11.92644"><ele>486.0</ele><time>2026-04-03T10:20:19.915Z</time></trkpt><trkpt lat="43.3557367" lon="11.9263517"><ele>486.0</ele><time>2026-04-03T10:20:21.916Z</time></trkpt><trkpt lat="43.3556433" lon="11.9262067"><ele>486.0</ele><time>2026-04-03T10:20:44.915Z</time></trkpt><trkpt lat="43.3555967" lon="11.9261033"><ele>486.0</ele><time>2026-04-03T10:20:46.916Z</time></trkpt><trkpt lat="43.3555567" lon="11.9260333"><ele>486.0</ele><time>2026-04-03T10:20:47.915Z</time></trkpt><trkpt lat="43.355495" lon="11.9259667"><ele>486.0</ele><time>2026-04-03T10:20:48.916Z</time></trkpt><trkpt lat="43.35543" lon="11.9259167"><ele>486.0</ele><time>2026-04-03T10:20:49.915Z</time></trkpt><trkpt lat="43.3553533" lon="11.9258633"><ele>486.0</ele><time>2026-04-03T10:20:50.915Z</time></trkpt><trkpt lat="43.35526" lon="11.9258133"><ele>484.8</ele><time>2026-04-03T10:20:51.916Z</time></trkpt><trkpt lat="43.3551667" lon="11.925735"><ele>483.6</ele><time>2026-04-03T10:20:52.915Z</time></trkpt><trkpt lat="43.35508" lon="11.9256383"><ele>482.4</ele><time>2026-04-03T10:20:53.915Z</time></trkpt><trkpt lat="43.3550017" lon="11.9255383"><ele>481.2</ele><time>2026-04-03T10:20:54.916Z</time></trkpt><trkpt lat="43.354925" lon="11.9254317"><ele>480.0</ele><time>2026-04-03T10:20:55.915Z</time></trkpt><trkpt lat="43.3548533" lon="11.925325"><ele>480.0</ele><time>2026-04-03T10:20:56.916Z</time></trkpt><trkpt lat="43.3547833" lon="11.92523"><ele>480.0</ele><time>2026-04-03T10:20:57.916Z</time></trkpt><trkpt lat="43.354715" lon="11.9251233"><ele>480.0</ele><time>2026-04-03T10:20:58.916Z</time></trkpt><trkpt lat="43.3546667" lon="11.9250083"><ele>480.0</ele><time>2026-04-03T10:20:59.916Z</time></trkpt><trkpt lat="43.35464" lon="11.9248917"><ele>480.0</ele><time>2026-04-03T10:21:00.916Z</time></trkpt><trkpt lat="43.354615" lon="11.92477"><ele>476.4</ele><time>2026-04-03T10:21:01.916Z</time></trkpt><trkpt lat="43.3546017" lon="11.9246433"><ele>472.8</ele><time>2026-04-03T10:21:02.916Z</time></trkpt><trkpt lat="43.3545917" lon="11.9245183"><ele>469.20000000000005</ele><time>2026-04-03T10:21:03.916Z</time></trkpt><trkpt lat="43.3545817" lon="11.9243983"><ele>465.6</ele><time>2026-04-03T10:21:04.915Z</time></trkpt><trkpt lat="43.3545583" lon="11.9242667"><ele>462.0</ele><time>2026-04-03T10:21:05.916Z</time></trkpt><trkpt lat="43.3545217" lon="11.92415"><ele>462.0</ele><time>2026-04-03T10:21:06.915Z</time></trkpt><trkpt lat="43.354465" lon="11.92402"><ele>462.0</ele><time>2026-04-03T10:21:07.915Z</time></trkpt><trkpt lat="43.354415" lon="11.9238767"><ele>462.0</ele><time>2026-04-03T10:21:08.916Z</time></trkpt><trkpt lat="43.3543617" lon="11.9237183"><ele>462.0</ele><time>2026-04-03T10:21:09.915Z</time></trkpt><trkpt lat="43.3543233" lon="11.9235833"><ele>462.0</ele><time>2026-04-03T10:21:10.916Z</time></trkpt><trkpt lat="43.3543" lon="11.923465"><ele>462.00000000000006</ele><time>2026-04-03T10:21:11.915Z</time></trkpt><trkpt lat="43.3542833" lon="11.9233567"><ele>462.00000000000006</ele><time>2026-04-03T10:21:12.915Z</time></trkpt><trkpt lat="43.3542533" lon="11.9232133"><ele>462.0</ele><time>2026-04-03T10:21:14.916Z</time></trkpt><trkpt lat="43.3543" lon="11.9231383"><ele>462.0</ele><time>2026-04-03T10:21:18.916Z</time></trkpt><trkpt lat="43.3544167" lon="11.9232567"><ele>462.0</ele><time>2026-04-03T10:21:20.916Z</time></trkpt><trkpt lat="43.3544967" lon="11.923335"><ele>462.00000000000006</ele><time>2026-04-03T10:21:21.915Z</time></trkpt><trkpt lat="43.354565" lon="11.9234067"><ele>462.00000000000006</ele><time>2026-04-03T10:21:22.916Z</time></trkpt><trkpt lat="43.3546233" lon="11.9234867"><ele>462.0</ele><time>2026-04-03T10:21:23.916Z</time></trkpt><trkpt lat="43.3546683" lon="11.923565"><ele>462.0</ele><time>2026-04-03T10:21:24.916Z</time></trkpt><trkpt lat="43.35474" lon="11.9236917"><ele>468.0</ele><time>2026-04-03T10:21:26.916Z</time></trkpt><trkpt lat="43.3548017" lon="11.923795"><ele>474.00000000000006</ele><time>2026-04-03T10:21:28.916Z</time></trkpt><trkpt lat="43.354865" lon="11.9238917"><ele>480.00000000000006</ele><time>2026-04-03T10:21:42.915Z</time></trkpt><trkpt lat="43.3549133" lon="11.92401"><ele>486.0</ele><time>2026-04-03T10:21:44.916Z</time></trkpt><trkpt lat="43.354955" lon="11.9241217"><ele>492.0</ele><time>2026-04-03T10:21:46.915Z</time></trkpt><trkpt lat="43.3550033" lon="11.924245"><ele>492.0</ele><time>2026-04-03T10:21:48.915Z</time></trkpt><trkpt lat="43.3550417" lon="11.92437"><ele>492.00000000000006</ele><time>2026-04-03T10:21:50.916Z</time></trkpt><trkpt lat="43.3550733" lon="11.9245017"><ele>492.00000000000006</ele><time>2026-04-03T10:21:52.915Z</time></trkpt><trkpt lat="43.3551283" lon="11.9246433"><ele>492.0</ele><time>2026-04-03T10:21:54.916Z</time></trkpt><trkpt lat="43.3551917" lon="11.9247317"><ele>492.0</ele><time>2026-04-03T10:21:56.916Z</time></trkpt><trkpt lat="43.3552533" lon="11.9247917"><ele>492.0</ele><time>2026-04-03T10:21:58.915Z</time></trkpt><trkpt lat="43.3553333" lon="11.9248867"><ele>492.0</ele><time>2026-04-03T10:22:00.916Z</time></trkpt><trkpt lat="43.3553867" lon="11.9249467"><ele>492.0</ele><time>2026-04-03T10:22:01.916Z</time></trkpt><trkpt lat="43.3554467" lon="11.9250217"><ele>492.0</ele><time>2026-04-03T10:22:02.915Z</time></trkpt><trkpt lat="43.3555167" lon="11.9250917"><ele>492.0</ele><time>2026-04-03T10:22:03.915Z</time></trkpt><trkpt lat="43.3555867" lon="11.9251533"><ele>492.0</ele><time>2026-04-03T10:22:04.916Z</time></trkpt><trkpt lat="43.355655" lon="11.9252017"><ele>494.1666666666667</ele><time>2026-04-03T10:22:05.916Z</time></trkpt><trkpt lat="43.35572" lon="11.925245"><ele>496.33333333333337</ele><time>2026-04-03T10:22:06.916Z</time></trkpt><trkpt lat="43.3557867" lon="11.9252933"><ele>498.5</ele><time>2026-04-03T10:22:07.916Z</time></trkpt><trkpt lat="43.3558433" lon="11.9253367"><ele>500.6666666666667</ele><time>2026-04-03T10:22:08.916Z</time></trkpt><trkpt lat="43.3559317" lon="11.925355"><ele>502.83333333333337</ele><time>2026-04-03T10:22:10.915Z</time></trkpt><trkpt lat="43.35603" lon="11.9253567"><ele>505.0</ele><time>2026-04-03T10:22:12.915Z</time></trkpt><trkpt lat="43.356145" lon="11.9253983"><ele>505.0</ele><time>2026-04-03T10:22:14.916Z</time></trkpt><trkpt lat="43.3562083" lon="11.92544"><ele>505.0</ele><time>2026-04-03T10:22:15.915Z</time></trkpt><trkpt lat="43.3562733" lon="11.9254767"><ele>505.0</ele><time>2026-04-03T10:22:16.916Z</time></trkpt><trkpt lat="43.3563867" lon="11.925505"><ele>505.0</ele><time>2026-04-03T10:22:18.915Z</time></trkpt><trkpt lat="43.3565017" lon="11.9255333"><ele>505.0</ele><time>2026-04-03T10:22:20.916Z</time></trkpt><trkpt lat="43.3566133" lon="11.9256167"><ele>509.6</ele><time>2026-04-03T10:22:22.916Z</time></trkpt><trkpt lat="43.356695" lon="11.925645"><ele>514.2</ele><time>2026-04-03T10:22:23.916Z</time></trkpt><trkpt lat="43.3567917" lon="11.9256767"><ele>518.8</ele><time>2026-04-03T10:22:24.916Z</time></trkpt><trkpt lat="43.3569" lon="11.9257033"><ele>523.4</ele><time>2026-04-03T10:22:25.915Z</time></trkpt><trkpt lat="43.3570067" lon="11.9257433"><ele>528.0</ele><time>2026-04-03T10:22:26.915Z</time></trkpt><trkpt lat="43.3571033" lon="11.925785"><ele>528.0</ele><time>2026-04-03T10:22:27.916Z</time></trkpt><trkpt lat="43.3572017" lon="11.9258333"><ele>528.0</ele><time>2026-04-03T10:22:28.915Z</time></trkpt><trkpt lat="43.3573083" lon="11.925865"><ele>528.0</ele><time>2026-04-03T10:22:29.915Z</time></trkpt><trkpt lat="43.3574133" lon="11.9258617"><ele>528.0</ele><time>2026-04-03T10:22:30.915Z</time></trkpt><trkpt lat="43.3575083" lon="11.9258667"><ele>528.0</ele><time>2026-04-03T10:22:31.916Z</time></trkpt><trkpt lat="43.3576083" lon="11.9258983"><ele>527.0</ele><time>2026-04-03T10:22:32.916Z</time></trkpt><trkpt lat="43.3577083" lon="11.9259167"><ele>526.0</ele><time>2026-04-03T10:22:33.915Z</time></trkpt><trkpt lat="43.3578167" lon="11.92593"><ele>525.0</ele><time>2026-04-03T10:22:34.916Z</time></trkpt><trkpt lat="43.357925" lon="11.925935"><ele>524.0</ele><time>2026-04-03T10:22:35.916Z</time></trkpt><trkpt lat="43.3580283" lon="11.9259283"><ele>523.0</ele><time>2026-04-03T10:22:36.916Z</time></trkpt><trkpt lat="43.3581317" lon="11.9259167"><ele>525.0</ele><time>2026-04-03T10:22:37.916Z</time></trkpt><trkpt lat="43.3582333" lon="11.92591"><ele>527.0</ele><time>2026-04-03T10:22:38.916Z</time></trkpt><trkpt lat="43.3583417" lon="11.9259117"><ele>529.0</ele><time>2026-04-03T10:22:39.915Z</time></trkpt><trkpt lat="43.35844" lon="11.9259133"><ele>531.0</ele><time>2026-04-03T10:22:40.915Z</time></trkpt><trkpt lat="43.3585267" lon="11.9259233"><ele>533.0</ele><time>2026-04-03T10:22:41.916Z</time></trkpt><trkpt lat="43.3586" lon="11.9259467"><ele>533.0</ele><time>2026-04-03T10:22:42.915Z</time></trkpt><trkpt lat="43.358655" lon="11.92599"><ele>533.0</ele><time>2026-04-03T10:22:43.916Z</time></trkpt><trkpt lat="43.358705" lon="11.9260717"><ele>533.0</ele><time>2026-04-03T10:22:44.915Z</time></trkpt><trkpt lat="43.35876" lon="11.9261683"><ele>533.0</ele><time>2026-04-03T10:22:45.915Z</time></trkpt><trkpt lat="43.358805" lon="11.926255"><ele>533.0</ele><time>2026-04-03T10:22:46.916Z</time></trkpt><trkpt lat="43.3588467" lon="11.926335"><ele>533.0</ele><time>2026-04-03T10:22:47.916Z</time></trkpt><trkpt lat="43.3589117" lon="11.9264467"><ele>535.0</ele><time>2026-04-03T10:22:49.916Z</time></trkpt><trkpt lat="43.3589633" lon="11.9265333"><ele>537.0</ele><time>2026-04-03T10:22:51.916Z</time></trkpt><trkpt lat="43.3590333" lon="11.9266233"><ele>539.0</ele><time>2026-04-03T10:23:22.916Z</time></trkpt><trkpt lat="43.3590767" lon="11.926695"><ele>541.0</ele><time>2026-04-03T10:23:23.916Z</time></trkpt><trkpt lat="43.3591333" lon="11.9267867"><ele>543.0</ele><time>2026-04-03T10:23:24.916Z</time></trkpt><trkpt lat="43.3592033" lon="11.9269067"><ele>545.0</ele><time>2026-04-03T10:23:25.915Z</time></trkpt><trkpt lat="43.35928" lon="11.927045"><ele>545.0</ele><time>2026-04-03T10:23:26.915Z</time></trkpt><trkpt lat="43.3593533" lon="11.9271683"><ele>545.0</ele><time>2026-04-03T10:23:27.916Z</time></trkpt><trkpt lat="43.3594067" lon="11.9272617"><ele>545.0</ele><time>2026-04-03T10:23:28.915Z</time></trkpt><trkpt lat="43.3594517" lon="11.9273233"><ele>545.0</ele><time>2026-04-03T10:23:29.916Z</time></trkpt><trkpt lat="43.3595383" lon="11.9274117"><ele>545.0</ele><time>2026-04-03T10:23:31.916Z</time></trkpt><trkpt lat="43.359595" lon="11.9275067"><ele>543.2</ele><time>2026-04-03T10:28:15.916Z</time></trkpt><trkpt lat="43.359635" lon="11.9275983"><ele>541.4</ele><time>2026-04-03T10:28:16.915Z</time></trkpt><trkpt lat="43.359695" lon="11.9277083"><ele>539.6</ele><time>2026-04-03T10:28:17.916Z</time></trkpt><trkpt lat="43.3597667" lon="11.9278317"><ele>537.8</ele><time>2026-04-03T10:28:18.916Z</time></trkpt><trkpt lat="43.3598417" lon="11.9279733"><ele>536.0</ele><time>2026-04-03T10:28:19.916Z</time></trkpt><trkpt lat="43.3599033" lon="11.9281183"><ele>541.2</ele><time>2026-04-03T10:28:20.916Z</time></trkpt><trkpt lat="43.359975" lon="11.92826"><ele>546.4000000000001</ele><time>2026-04-03T10:28:21.916Z</time></trkpt><trkpt lat="43.3600383" lon="11.9283967"><ele>551.6</ele><time>2026-04-03T10:28:22.915Z</time></trkpt><trkpt lat="43.3601" lon="11.928525"><ele>556.8000000000001</ele><time>2026-04-03T10:28:23.915Z</time></trkpt><trkpt lat="43.3601517" lon="11.928615"><ele>562.0</ele><time>2026-04-03T10:28:24.916Z</time></trkpt><trkpt lat="43.3602233" lon="11.92872"><ele>562.8333333333334</ele><time>2026-04-03T10:28:26.915Z</time></trkpt><trkpt lat="43.360285" lon="11.9287433"><ele>563.6666666666667</ele><time>2026-04-03T10:28:28.916Z</time></trkpt><trkpt lat="43.360345" lon="11.928705"><ele>564.5</ele><time>2026-04-03T10:28:30.915Z</time></trkpt><trkpt lat="43.3604167" lon="11.928715"><ele>565.3333333333334</ele><time>2026-04-03T10:28:33.916Z</time></trkpt><trkpt lat="43.3604917" lon="11.928765"><ele>566.1666666666666</ele><time>2026-04-03T10:28:36.916Z</time></trkpt><trkpt lat="43.3605733" lon="11.9287867"><ele>567.0</ele><time>2026-04-03T10:28:38.915Z</time></trkpt><trkpt lat="43.3606567" lon="11.9288033"><ele>572.2</ele><time>2026-04-03T10:28:40.916Z</time></trkpt><trkpt lat="43.3607467" lon="11.92882"><ele>577.4000000000001</ele><time>2026-04-03T10:28:42.915Z</time></trkpt><trkpt lat="43.3608033" lon="11.9288617"><ele>582.5999999999999</ele><time>2026-04-03T10:28:51.916Z</time></trkpt><trkpt lat="43.3609067" lon="11.9289517"><ele>587.8</ele><time>2026-04-03T10:28:53.916Z</time></trkpt><trkpt lat="43.3609883" lon="11.929045"><ele>593.0</ele><time>2026-04-03T10:28:55.916Z</time></trkpt><trkpt lat="43.3609983" lon="11.9291517"><ele>592.8</ele><time>2026-04-03T10:28:57.915Z</time></trkpt><trkpt lat="43.3609833" lon="11.9292833"><ele>592.5999999999999</ele><time>2026-04-03T10:28:59.915Z</time></trkpt><trkpt lat="43.3609867" lon="11.9294067"><ele>592.4000000000001</ele><time>2026-04-03T10:29:01.915Z</time></trkpt><trkpt lat="43.361035" lon="11.9294783"><ele>592.2</ele><time>2026-04-03T10:29:08.916Z</time></trkpt><trkpt lat="43.36112" lon="11.9295217"><ele>592.0</ele><time>2026-04-03T10:29:10.915Z</time></trkpt><trkpt lat="43.3611917" lon="11.92962"><ele>592.0</ele><time>2026-04-03T10:29:12.915Z</time></trkpt><trkpt lat="43.3612367" lon="11.9297633"><ele>592.0</ele><time>2026-04-03T10:29:14.916Z</time></trkpt><trkpt lat="43.3612383" lon="11.9298617"><ele>592.0</ele><time>2026-04-03T10:29:15.916Z</time></trkpt><trkpt lat="43.3612383" lon="11.9299617"><ele>592.0</ele><time>2026-04-03T10:29:16.916Z</time></trkpt><trkpt lat="43.3612433" lon="11.9300483"><ele>592.0</ele><time>2026-04-03T10:29:17.915Z</time></trkpt><trkpt lat="43.3612683" lon="11.930135"><ele>592.0</ele><time>2026-04-03T10:29:18.915Z</time></trkpt><trkpt lat="43.3613133" lon="11.9302217"><ele>593.0</ele><time>2026-04-03T10:29:19.915Z</time></trkpt><trkpt lat="43.3613567" lon="11.9303067"><ele>594.0</ele><time>2026-04-03T10:29:20.916Z</time></trkpt><trkpt lat="43.3614017" lon="11.9304017"><ele>595.0</ele><time>2026-04-03T10:29:21.916Z</time></trkpt><trkpt lat="43.361435" lon="11.930495"><ele>596.0</ele><time>2026-04-03T10:29:22.916Z</time></trkpt><trkpt lat="43.3614567" lon="11.9305767"><ele>597.0</ele><time>2026-04-03T10:29:23.916Z</time></trkpt><trkpt lat="43.3614717" lon="11.9306717"><ele>598.0</ele><time>2026-04-03T10:29:24.916Z</time></trkpt><trkpt lat="43.3615017" lon="11.9308267"><ele>601.8333333333334</ele><time>2026-04-03T10:29:26.915Z</time></trkpt><trkpt lat="43.3615683" lon="11.9309383"><ele>605.6666666666667</ele><time>2026-04-03T10:29:28.915Z</time></trkpt><trkpt lat="43.3616133" lon="11.9310583"><ele>609.5</ele><time>2026-04-03T10:29:30.915Z</time></trkpt><trkpt lat="43.3616017" lon="11.93115"><ele>613.3333333333334</ele><time>2026-04-03T10:29:31.915Z</time></trkpt><trkpt lat="43.361595" lon="11.9312483"><ele>617.1666666666666</ele><time>2026-04-03T10:29:32.916Z</time></trkpt><trkpt lat="43.3616" lon="11.9313567"><ele>621.0</ele><time>2026-04-03T10:29:33.915Z</time></trkpt><trkpt lat="43.3616033" lon="11.9314833"><ele>621.0</ele><time>2026-04-03T10:29:34.916Z</time></trkpt><trkpt lat="43.361605" lon="11.931615"><ele>621.0</ele><time>2026-04-03T10:29:35.915Z</time></trkpt><trkpt lat="43.3616033" lon="11.9317533"><ele>621.0</ele><time>2026-04-03T10:29:36.916Z</time></trkpt><trkpt lat="43.3616067" lon="11.9318833"><ele>621.0</ele><time>2026-04-03T10:29:37.916Z</time></trkpt><trkpt lat="43.3616117" lon="11.93199"><ele>621.0</ele><time>2026-04-03T10:29:38.916Z</time></trkpt><trkpt lat="43.3616233" lon="11.9321467"><ele>622.4</ele><time>2026-04-03T10:29:40.916Z</time></trkpt><trkpt lat="43.3616317" lon="11.9322767"><ele>623.8</ele><time>2026-04-03T10:29:42.916Z</time></trkpt><trkpt lat="43.3616217" lon="11.9323983"><ele>625.1999999999999</ele><time>2026-04-03T10:29:44.916Z</time></trkpt><trkpt lat="43.361585" lon="11.9325233"><ele>626.6</ele><time>2026-04-03T10:29:46.916Z</time></trkpt><trkpt lat="43.3615383" lon="11.9326767"><ele>628.0</ele><time>2026-04-03T10:29:48.915Z</time></trkpt><trkpt lat="43.3615367" lon="11.9328183"><ele>629.3333333333334</ele><time>2026-04-03T10:29:50.916Z</time></trkpt><trkpt lat="43.361495" lon="11.9329067"><ele>630.6666666666667</ele><time>2026-04-03T10:29:52.915Z</time></trkpt><trkpt lat="43.3614267" lon="11.9330117"><ele>632.0</ele><time>2026-04-03T10:29:54.915Z</time></trkpt><trkpt lat="43.3613817" lon="11.93309"><ele>633.3333333333334</ele><time>2026-04-03T10:29:55.916Z</time></trkpt><trkpt lat="43.3613267" lon="11.9331717"><ele>634.6666666666666</ele><time>2026-04-03T10:29:56.915Z</time></trkpt><trkpt lat="43.3612667" lon="11.933235"><ele>636.0</ele><time>2026-04-03T10:29:57.915Z</time></trkpt><trkpt lat="43.3612133" lon="11.9332817"><ele>636.2</ele><time>2026-04-03T10:29:58.916Z</time></trkpt><trkpt lat="43.3611267" lon="11.9333833"><ele>636.4000000000001</ele><time>2026-04-03T10:30:00.915Z</time></trkpt><trkpt lat="43.36109" lon="11.93351"><ele>636.6</ele><time>2026-04-03T10:30:02.915Z</time></trkpt><trkpt lat="43.3610867" lon="11.9336233"><ele>636.8000000000001</ele><time>2026-04-03T10:30:04.916Z</time></trkpt><trkpt lat="43.3611183" lon="11.933745"><ele>637.0</ele><time>2026-04-03T10:30:06.916Z</time></trkpt><trkpt lat="43.3611133" lon="11.9338617"><ele>638.5</ele><time>2026-04-03T10:30:08.915Z</time></trkpt><trkpt lat="43.361055" lon="11.9339833"><ele>640.0</ele><time>2026-04-03T10:30:10.916Z</time></trkpt><trkpt lat="43.3610283" lon="11.9340667"><ele>641.5</ele><time>2026-04-03T10:30:11.915Z</time></trkpt><trkpt lat="43.3610217" lon="11.9341733"><ele>643.0</ele><time>2026-04-03T10:30:12.916Z</time></trkpt><trkpt lat="43.3610367" lon="11.934295"><ele>644.5</ele><time>2026-04-03T10:30:13.915Z</time></trkpt><trkpt lat="43.361065" lon="11.934405"><ele>646.0</ele><time>2026-04-03T10:30:14.916Z</time></trkpt><trkpt lat="43.361105" lon="11.9344733"><ele>646.0</ele><time>2026-04-03T10:30:15.915Z</time></trkpt><trkpt lat="43.36119" lon="11.9345817"><ele>646.0</ele><time>2026-04-03T10:30:17.915Z</time></trkpt><trkpt lat="43.3612617" lon="11.9347167"><ele>646.0</ele><time>2026-04-03T10:30:19.915Z</time></trkpt><trkpt lat="43.361295" lon="11.9348483"><ele>646.0</ele><time>2026-04-03T10:30:21.915Z</time></trkpt><trkpt lat="43.3613283" lon="11.9349417"><ele>646.0</ele><time>2026-04-03T10:30:23.915Z</time></trkpt><trkpt lat="43.36137" lon="11.9350367"><ele>649.8</ele><time>2026-04-03T10:30:25.916Z</time></trkpt><trkpt lat="43.3614167" lon="11.9351433"><ele>653.5999999999999</ele><time>2026-04-03T10:30:27.915Z</time></trkpt><trkpt lat="43.3614567" lon="11.9352483"><ele>657.4</ele><time>2026-04-03T10:30:29.915Z</time></trkpt><trkpt lat="43.3615033" lon="11.93537"><ele>661.2</ele><time>2026-04-03T10:30:31.916Z</time></trkpt><trkpt lat="43.3615583" lon="11.93549"><ele>665.0</ele><time>2026-04-03T10:30:33.916Z</time></trkpt><trkpt lat="43.3616183" lon="11.9355867"><ele>665.0</ele><time>2026-04-03T10:30:35.916Z</time></trkpt><trkpt lat="43.3616983" lon="11.9356717"><ele>665.0</ele><time>2026-04-03T10:30:37.916Z</time></trkpt><trkpt lat="43.36176" lon="11.93574"><ele>665.0</ele><time>2026-04-03T10:30:38.916Z</time></trkpt><trkpt lat="43.361815" lon="11.935825"><ele>665.0</ele><time>2026-04-03T10:30:39.915Z</time></trkpt><trkpt lat="43.361865" lon="11.9359267"><ele>665.0</ele><time>2026-04-03T10:30:40.915Z</time></trkpt><trkpt lat="43.3619117" lon="11.93603"><ele>665.0</ele><time>2026-04-03T10:30:41.916Z</time></trkpt><trkpt lat="43.3619617" lon="11.936105"><ele>666.4</ele><time>2026-04-03T10:30:42.915Z</time></trkpt><trkpt lat="43.362" lon="11.9361767"><ele>667.8</ele><time>2026-04-03T10:30:43.916Z</time></trkpt><trkpt lat="43.3620733" lon="11.9363033"><ele>669.2</ele><time>2026-04-03T10:30:45.915Z</time></trkpt><trkpt lat="43.3621133" lon="11.9364267"><ele>670.6</ele><time>2026-04-03T10:30:47.916Z</time></trkpt><trkpt lat="43.3621533" lon="11.9365717"><ele>672.0</ele><time>2026-04-03T10:30:49.916Z</time></trkpt><trkpt lat="43.3621783" lon="11.9366567"><ele>675.6</ele><time>2026-04-03T10:30:50.915Z</time></trkpt><trkpt lat="43.3622133" lon="11.9367367"><ele>679.2</ele><time>2026-04-03T10:30:51.915Z</time></trkpt><trkpt lat="43.3622667" lon="11.9368833"><ele>682.8</ele><time>2026-04-03T10:30:53.915Z</time></trkpt><trkpt lat="43.3623117" lon="11.93703"><ele>686.4</ele><time>2026-04-03T10:30:55.915Z</time></trkpt><trkpt lat="43.362345" lon="11.9371683"><ele>690.0</ele><time>2026-04-03T10:30:57.916Z</time></trkpt><trkpt lat="43.3623933" lon="11.937305"><ele>690.0</ele><time>2026-04-03T10:30:59.915Z</time></trkpt><trkpt lat="43.3624233" lon="11.937395"><ele>690.0</ele><time>2026-04-03T10:31:00.915Z</time></trkpt><trkpt lat="43.3624567" lon="11.9374883"><ele>690.0</ele><time>2026-04-03T10:31:01.916Z</time></trkpt><trkpt lat="43.3624917" lon="11.9375767"><ele>690.0</ele><time>2026-04-03T10:31:02.915Z</time></trkpt><trkpt lat="43.3625633" lon="11.9376833"><ele>690.0</ele><time>2026-04-03T10:31:04.915Z</time></trkpt><trkpt lat="43.362655" lon="11.9377867"><ele>690.0</ele><time>2026-04-03T10:31:06.915Z</time></trkpt><trkpt lat="43.3627283" lon="11.9379117"><ele>690.0</ele><time>2026-04-03T10:31:08.915Z</time></trkpt><trkpt lat="43.362805" lon="11.9380367"><ele>690.0</ele><time>2026-04-03T10:31:10.916Z</time></trkpt><trkpt lat="43.3628917" lon="11.9381133"><ele>690.0</ele><time>2026-04-03T10:31:12.915Z</time></trkpt><trkpt lat="43.362995" lon="11.9381883"><ele>690.0</ele><time>2026-04-03T10:31:14.915Z</time></trkpt><trkpt lat="43.3630733" lon="11.9383133"><ele>692.2</ele><time>2026-04-03T10:31:16.915Z</time></trkpt><trkpt lat="43.3631467" lon="11.9384217"><ele>694.4</ele><time>2026-04-03T10:31:18.915Z</time></trkpt><trkpt lat="43.363205" lon="11.93848"><ele>696.5999999999999</ele><time>2026-04-03T10:31:19.915Z</time></trkpt><trkpt lat="43.3632533" lon="11.9385417"><ele>698.8</ele><time>2026-04-03T10:31:20.915Z</time></trkpt><trkpt lat="43.3633383" lon="11.9386317"><ele>701.0</ele><time>2026-04-03T10:31:22.915Z</time></trkpt><trkpt lat="43.363405" lon="11.93873"><ele>701.0</ele><time>2026-04-03T10:31:24.916Z</time></trkpt><trkpt lat="43.3634833" lon="11.9388317"><ele>701.0</ele><time>2026-04-03T10:31:26.916Z</time></trkpt><trkpt lat="43.3635483" lon="11.9389067"><ele>701.0</ele><time>2026-04-03T10:31:28.915Z</time></trkpt><trkpt lat="43.3636217" lon="11.938915"><ele>701.0</ele><time>2026-04-03T10:31:31.916Z</time></trkpt><trkpt lat="43.3637067" lon="11.9389083"><ele>701.0</ele><time>2026-04-03T10:31:47.915Z</time></trkpt><trkpt lat="43.3638083" lon="11.938905"><ele>704.5</ele><time>2026-04-03T10:31:49.916Z</time></trkpt><trkpt lat="43.3638783" lon="11.9389217"><ele>708.0</ele><time>2026-04-03T10:31:50.915Z</time></trkpt><trkpt lat="43.3639483" lon="11.938925"><ele>711.5</ele><time>2026-04-03T10:31:51.915Z</time></trkpt><trkpt lat="43.3640633" lon="11.9388983"><ele>715.0</ele><time>2026-04-03T10:31:53.915Z</time></trkpt><trkpt lat="43.3641367" lon="11.9389217"><ele>718.5</ele><time>2026-04-03T10:31:55.916Z</time></trkpt><trkpt lat="43.3641883" lon="11.9389917"><ele>722.0</ele><time>2026-04-03T10:31:57.916Z</time></trkpt><trkpt lat="43.3642833" lon="11.93902"><ele>722.0</ele><time>2026-04-03T10:31:59.916Z</time></trkpt><trkpt lat="43.364395" lon="11.939045"><ele>722.0</ele><time>2026-04-03T10:32:01.916Z</time></trkpt><trkpt lat="43.36448" lon="11.939055"><ele>722.0</ele><time>2026-04-03T10:32:03.915Z</time></trkpt><trkpt lat="43.3645867" lon="11.939055"><ele>722.0</ele><time>2026-04-03T10:32:05.915Z</time></trkpt><trkpt lat="43.364685" lon="11.9390333"><ele>722.0</ele><time>2026-04-03T10:32:07.916Z</time></trkpt><trkpt lat="43.3647733" lon="11.938965"><ele>725.3333333333333</ele><time>2026-04-03T10:32:09.915Z</time></trkpt><trkpt lat="43.3648633" lon="11.938865"><ele>728.6666666666666</ele><time>2026-04-03T10:32:11.915Z</time></trkpt><trkpt lat="43.3649367" lon="11.9388017"><ele>732.0</ele><time>2026-04-03T10:32:13.916Z</time></trkpt><trkpt lat="43.3649967" lon="11.938755"><ele>735.3333333333334</ele><time>2026-04-03T10:32:15.915Z</time></trkpt><trkpt lat="43.3649483" lon="11.938675"><ele>738.6666666666667</ele><time>2026-04-03T10:32:19.916Z</time></trkpt><trkpt lat="43.3648817" lon="11.9386633"><ele>742.0</ele><time>2026-04-03T10:32:21.916Z</time></trkpt><trkpt lat="43.364815" lon="11.938625"><ele>742.0</ele><time>2026-04-03T10:32:24.915Z</time></trkpt><trkpt lat="43.36485" lon="11.9387333"><ele>742.0</ele><time>2026-04-03T10:43:43.915Z</time></trkpt><trkpt lat="43.364935" lon="11.938755"><ele>742.0</ele><time>2026-04-03T10:43:46.916Z</time></trkpt><trkpt lat="43.3650667" lon="11.9387283"><ele>742.0</ele><time>2026-04-03T10:43:48.916Z</time></trkpt><trkpt lat="43.36515" lon="11.93871"><ele>742.0</ele><time>2026-04-03T10:43:49.915Z</time></trkpt><trkpt lat="43.36523" lon="11.938685"><ele>742.0</ele><time>2026-04-03T10:43:50.916Z</time></trkpt><trkpt lat="43.3653167" lon="11.9386717"><ele>742.0</ele><time>2026-04-03T10:43:51.915Z</time></trkpt><trkpt lat="43.36539" lon="11.9386633"><ele>742.0</ele><time>2026-04-03T10:43:52.915Z</time></trkpt><trkpt lat="43.365465" lon="11.9386633"><ele>742.0</ele><time>2026-04-03T10:43:53.916Z</time></trkpt><trkpt lat="43.36553" lon="11.938675"><ele>742.0</ele><time>2026-04-03T10:43:54.915Z</time></trkpt><trkpt lat="43.3656" lon="11.938695"><ele>742.0</ele><time>2026-04-03T10:43:55.915Z</time></trkpt><trkpt lat="43.3656633" lon="11.9387233"><ele>742.0</ele><time>2026-04-03T10:43:56.915Z</time></trkpt><trkpt lat="43.3657767" lon="11.938805"><ele>743.2</ele><time>2026-04-03T10:43:58.915Z</time></trkpt><trkpt lat="43.3658417" lon="11.93885"><ele>744.4000000000001</ele><time>2026-04-03T10:43:59.915Z</time></trkpt><trkpt lat="43.36592" lon="11.9389167"><ele>745.5999999999999</ele><time>2026-04-03T10:44:00.915Z</time></trkpt><trkpt lat="43.3660067" lon="11.9389817"><ele>746.8</ele><time>2026-04-03T10:44:01.916Z</time></trkpt><trkpt lat="43.36609" lon="11.9390233"><ele>748.0</ele><time>2026-04-03T10:44:02.915Z</time></trkpt><trkpt lat="43.3661983" lon="11.9390467"><ele>748.0</ele><time>2026-04-03T10:44:03.915Z</time></trkpt><trkpt lat="43.36632" lon="11.9390633"><ele>748.0</ele><time>2026-04-03T10:44:04.916Z</time></trkpt><trkpt lat="43.366455" lon="11.939085"><ele>748.0</ele><time>2026-04-03T10:44:05.916Z</time></trkpt><trkpt lat="43.366575" lon="11.9391167"><ele>748.0</ele><time>2026-04-03T10:44:06.916Z</time></trkpt><trkpt lat="43.3667067" lon="11.9391433"><ele>747.0</ele><time>2026-04-03T10:44:07.916Z</time></trkpt><trkpt lat="43.3668417" lon="11.9391467"><ele>746.0</ele><time>2026-04-03T10:44:08.916Z</time></trkpt><trkpt lat="43.3669533" lon="11.93915"><ele>745.0</ele><time>2026-04-03T10:44:09.915Z</time></trkpt><trkpt lat="43.3670467" lon="11.9391617"><ele>744.0</ele><time>2026-04-03T10:44:10.916Z</time></trkpt><trkpt lat="43.3671433" lon="11.9391717"><ele>743.0</ele><time>2026-04-03T10:44:11.916Z</time></trkpt><trkpt lat="43.3672367" lon="11.939175"><ele>743.0</ele><time>2026-04-03T10:44:12.916Z</time></trkpt><trkpt lat="43.367315" lon="11.9391733"><ele>743.0</ele><time>2026-04-03T10:44:13.915Z</time></trkpt><trkpt lat="43.3673783" lon="11.939165"><ele>743.0</ele><time>2026-04-03T10:44:14.916Z</time></trkpt><trkpt lat="43.3674967" lon="11.939125"><ele>743.0</ele><time>2026-04-03T10:44:16.915Z</time></trkpt><trkpt lat="43.3676067" lon="11.9391117"><ele>743.0</ele><time>2026-04-03T10:44:18.916Z</time></trkpt><trkpt lat="43.36767" lon="11.939125"><ele>743.0</ele><time>2026-04-03T10:44:19.915Z</time></trkpt><trkpt lat="43.3677867" lon="11.9391567"><ele>743.0</ele><time>2026-04-03T10:44:21.915Z</time></trkpt><trkpt lat="43.3678867" lon="11.9391083"><ele>743.0</ele><time>2026-04-03T10:44:23.916Z</time></trkpt><trkpt lat="43.3679433" lon="11.93901"><ele>743.0</ele><time>2026-04-03T10:44:25.915Z</time></trkpt><trkpt lat="43.3679883" lon="11.9389233"><ele>743.0</ele><time>2026-04-03T10:44:27.916Z</time></trkpt><trkpt lat="43.3680533" lon="11.9388883"><ele>743.0</ele><time>2026-04-03T10:44:29.916Z</time></trkpt><trkpt lat="43.3681567" lon="11.938905"><ele>743.0</ele><time>2026-04-03T10:44:31.915Z</time></trkpt><trkpt lat="43.3682283" lon="11.9389267"><ele>740.8</ele><time>2026-04-03T10:44:32.915Z</time></trkpt><trkpt lat="43.3683117" lon="11.9389317"><ele>738.5999999999999</ele><time>2026-04-03T10:44:33.915Z</time></trkpt><trkpt lat="43.368425" lon="11.93891"><ele>736.4000000000001</ele><time>2026-04-03T10:44:34.915Z</time></trkpt><trkpt lat="43.36853" lon="11.93888"><ele>734.2</ele><time>2026-04-03T10:44:35.916Z</time></trkpt><trkpt lat="43.36863" lon="11.93884"><ele>732.0</ele><time>2026-04-03T10:44:36.916Z</time></trkpt><trkpt lat="43.3687117" lon="11.9388067"><ele>732.0</ele><time>2026-04-03T10:44:37.916Z</time></trkpt><trkpt lat="43.36878" lon="11.9387733"><ele>732.0</ele><time>2026-04-03T10:44:38.916Z</time></trkpt><trkpt lat="43.3688517" lon="11.938735"><ele>732.0</ele><time>2026-04-03T10:44:54.915Z</time></trkpt><trkpt lat="43.36896" lon="11.9386817"><ele>732.0</ele><time>2026-04-03T10:44:56.916Z</time></trkpt><trkpt lat="43.36904" lon="11.9386517"><ele>732.0</ele><time>2026-04-03T10:44:57.915Z</time></trkpt><trkpt lat="43.3691317" lon="11.9386033"><ele>732.0</ele><time>2026-04-03T10:44:58.916Z</time></trkpt><trkpt lat="43.3692267" lon="11.938535"><ele>732.0</ele><time>2026-04-03T10:44:59.916Z</time></trkpt><trkpt lat="43.3693117" lon="11.9384617"><ele>732.0</ele><time>2026-04-03T10:45:00.915Z</time></trkpt><trkpt lat="43.3693967" lon="11.93841"><ele>732.0</ele><time>2026-04-03T10:45:01.915Z</time></trkpt><trkpt lat="43.3694883" lon="11.9383817"><ele>732.0</ele><time>2026-04-03T10:45:02.916Z</time></trkpt><trkpt lat="43.3695817" lon="11.9383717"><ele>732.0</ele><time>2026-04-03T10:45:03.915Z</time></trkpt><trkpt lat="43.36968" lon="11.9384"><ele>731.3333333333334</ele><time>2026-04-03T10:45:04.916Z</time></trkpt><trkpt lat="43.3697733" lon="11.9384583"><ele>730.6666666666666</ele><time>2026-04-03T10:45:05.916Z</time></trkpt><trkpt lat="43.3698533" lon="11.938515"><ele>730.0</ele><time>2026-04-03T10:45:06.916Z</time></trkpt><trkpt lat="43.369935" lon="11.9385667"><ele>729.3333333333333</ele><time>2026-04-03T10:45:07.915Z</time></trkpt><trkpt lat="43.370015" lon="11.9386117"><ele>728.6666666666666</ele><time>2026-04-03T10:45:08.915Z</time></trkpt><trkpt lat="43.3700933" lon="11.9386367"><ele>728.0</ele><time>2026-04-03T10:45:09.915Z</time></trkpt><trkpt lat="43.3701867" lon="11.9386217"><ele>728.0</ele><time>2026-04-03T10:45:10.915Z</time></trkpt><trkpt lat="43.370275" lon="11.9385717"><ele>728.0</ele><time>2026-04-03T10:45:11.916Z</time></trkpt><trkpt lat="43.3703483" lon="11.9384917"><ele>728.0</ele><time>2026-04-03T10:45:12.915Z</time></trkpt><trkpt lat="43.370425" lon="11.9384083"><ele>728.0</ele><time>2026-04-03T10:45:13.915Z</time></trkpt><trkpt lat="43.3704967" lon="11.9383317"><ele>728.0</ele><time>2026-04-03T10:45:14.915Z</time></trkpt><trkpt lat="43.3705767" lon="11.9382767"><ele>727.5</ele><time>2026-04-03T10:45:15.915Z</time></trkpt><trkpt lat="43.3706567" lon="11.9382383"><ele>727.0</ele><time>2026-04-03T10:45:16.916Z</time></trkpt><trkpt lat="43.37073" lon="11.9382067"><ele>726.5</ele><time>2026-04-03T10:45:17.916Z</time></trkpt><trkpt lat="43.370795" lon="11.9382033"><ele>726.0</ele><time>2026-04-03T10:45:18.916Z</time></trkpt><trkpt lat="43.3708633" lon="11.9382217"><ele>725.5</ele><time>2026-04-03T10:45:19.916Z</time></trkpt><trkpt lat="43.370955" lon="11.9382617"><ele>725.0</ele><time>2026-04-03T10:45:20.916Z</time></trkpt><trkpt lat="43.3710567" lon="11.938295"><ele>725.0</ele><time>2026-04-03T10:45:21.915Z</time></trkpt><trkpt lat="43.3711533" lon="11.93832"><ele>725.0</ele><time>2026-04-03T10:45:22.915Z</time></trkpt><trkpt lat="43.3712483" lon="11.93834"><ele>725.0</ele><time>2026-04-03T10:45:23.915Z</time></trkpt><trkpt lat="43.3713467" lon="11.93835"><ele>725.0</ele><time>2026-04-03T10:45:24.915Z</time></trkpt><trkpt lat="43.371425" lon="11.938355"><ele>725.0</ele><time>2026-04-03T10:45:25.915Z</time></trkpt><trkpt lat="43.3715083" lon="11.9383467"><ele>724.4285714285714</ele><time>2026-04-03T10:45:26.915Z</time></trkpt><trkpt lat="43.37158" lon="11.9383317"><ele>723.8571428571429</ele><time>2026-04-03T10:45:27.916Z</time></trkpt><trkpt lat="43.3716417" lon="11.9383"><ele>723.2857142857142</ele><time>2026-04-03T10:45:28.915Z</time></trkpt><trkpt lat="43.3717" lon="11.9382517"><ele>722.7142857142858</ele><time>2026-04-03T10:45:30.915Z</time></trkpt><trkpt lat="43.371765" lon="11.9382683"><ele>722.1428571428571</ele><time>2026-04-03T10:57:13.914Z</time></trkpt><trkpt lat="43.371835" lon="11.9383167"><ele>721.5714285714286</ele><time>2026-04-03T10:57:17.915Z</time></trkpt><trkpt lat="43.3718933" lon="11.9384117"><ele>721.0</ele><time>2026-04-03T10:57:20.915Z</time></trkpt><trkpt lat="43.3719683" lon="11.938435"><ele>719.5999999999999</ele><time>2026-04-03T10:57:23.915Z</time></trkpt><trkpt lat="43.3720333" lon="11.938485"><ele>718.2</ele><time>2026-04-03T10:57:35.914Z</time></trkpt><trkpt lat="43.3721217" lon="11.9385567"><ele>716.8</ele><time>2026-04-03T10:57:37.914Z</time></trkpt><trkpt lat="43.3722017" lon="11.9386917"><ele>715.4000000000001</ele><time>2026-04-03T10:57:39.915Z</time></trkpt><trkpt lat="43.372245" lon="11.9387817"><ele>714.0</ele><time>2026-04-03T10:57:40.914Z</time></trkpt><trkpt lat="43.3723" lon="11.938865"><ele>716.6666666666666</ele><time>2026-04-03T10:57:41.914Z</time></trkpt><trkpt lat="43.3723667" lon="11.9390083"><ele>719.3333333333334</ele><time>2026-04-03T10:57:43.915Z</time></trkpt><trkpt lat="43.3724" lon="11.939085"><ele>722.0</ele><time>2026-04-03T10:57:44.915Z</time></trkpt><trkpt lat="43.3724417" lon="11.9391717"><ele>724.6666666666667</ele><time>2026-04-03T10:57:45.915Z</time></trkpt><trkpt lat="43.3724917" lon="11.9392717"><ele>727.3333333333334</ele><time>2026-04-03T10:57:46.914Z</time></trkpt><trkpt lat="43.37255" lon="11.9393683"><ele>730.0</ele><time>2026-04-03T10:57:47.914Z</time></trkpt><trkpt lat="43.3726" lon="11.9394583"><ele>730.0</ele><time>2026-04-03T10:57:48.915Z</time></trkpt><trkpt lat="43.37266" lon="11.9395367"><ele>730.0</ele><time>2026-04-03T10:57:49.915Z</time></trkpt><trkpt lat="43.3727117" lon="11.93961"><ele>730.0</ele><time>2026-04-03T10:57:50.914Z</time></trkpt><trkpt lat="43.3727717" lon="11.9397167"><ele>730.0</ele><time>2026-04-03T10:57:51.915Z</time></trkpt><trkpt lat="43.3728267" lon="11.939825"><ele>730.0</ele><time>2026-04-03T10:57:52.915Z</time></trkpt><trkpt lat="43.3728617" lon="11.939925"><ele>730.0</ele><time>2026-04-03T10:57:53.915Z</time></trkpt><trkpt lat="43.3728983" lon="11.9400133"><ele>731.3333333333334</ele><time>2026-04-03T10:57:54.915Z</time></trkpt><trkpt lat="43.3729417" lon="11.9400967"><ele>732.6666666666667</ele><time>2026-04-03T10:57:55.915Z</time></trkpt><trkpt lat="43.3729983" lon="11.9401683"><ele>734.0</ele><time>2026-04-03T10:57:56.914Z</time></trkpt><trkpt lat="43.3730467" lon="11.9402517"><ele>735.3333333333334</ele><time>2026-04-03T10:57:57.915Z</time></trkpt><trkpt lat="43.3730883" lon="11.9403433"><ele>736.6666666666666</ele><time>2026-04-03T10:57:58.914Z</time></trkpt><trkpt lat="43.3731383" lon="11.94043"><ele>738.0</ele><time>2026-04-03T10:57:59.914Z</time></trkpt><trkpt lat="43.3731917" lon="11.9405167"><ele>738.0</ele><time>2026-04-03T10:58:00.915Z</time></trkpt><trkpt lat="43.3732467" lon="11.94058"><ele>738.0</ele><time>2026-04-03T10:58:01.915Z</time></trkpt><trkpt lat="43.3733617" lon="11.9406467"><ele>738.0</ele><time>2026-04-03T10:58:03.915Z</time></trkpt><trkpt lat="43.373465" lon="11.940745"><ele>738.0</ele><time>2026-04-03T10:58:05.915Z</time></trkpt><trkpt lat="43.3735083" lon="11.9408183"><ele>738.0</ele><time>2026-04-03T10:58:06.914Z</time></trkpt><trkpt lat="43.3735517" lon="11.9408833"><ele>736.5</ele><time>2026-04-03T10:58:07.914Z</time></trkpt><trkpt lat="43.37364" lon="11.940975"><ele>735.0</ele><time>2026-04-03T10:58:09.914Z</time></trkpt><trkpt lat="43.373745" lon="11.9410433"><ele>733.5</ele><time>2026-04-03T10:58:11.914Z</time></trkpt><trkpt lat="43.373805" lon="11.9410983"><ele>732.0</ele><time>2026-04-03T10:58:12.914Z</time></trkpt><trkpt lat="43.37387" lon="11.9411433"><ele>730.5</ele><time>2026-04-03T10:58:13.914Z</time></trkpt><trkpt lat="43.373935" lon="11.94117"><ele>729.0</ele><time>2026-04-03T10:58:14.914Z</time></trkpt><trkpt lat="43.3740017" lon="11.94119"><ele>729.0</ele><time>2026-04-03T10:58:15.914Z</time></trkpt><trkpt lat="43.3740633" lon="11.941215"><ele>729.0</ele><time>2026-04-03T10:58:16.915Z</time></trkpt><trkpt lat="43.3741217" lon="11.9412517"><ele>729.0</ele><time>2026-04-03T10:58:17.915Z</time></trkpt><trkpt lat="43.3741833" lon="11.9412867"><ele>729.0</ele><time>2026-04-03T10:58:18.915Z</time></trkpt><trkpt lat="43.37425" lon="11.9413267"><ele>729.0</ele><time>2026-04-03T10:58:19.914Z</time></trkpt><trkpt lat="43.3743217" lon="11.9413683"><ele>729.0</ele><time>2026-04-03T10:58:20.914Z</time></trkpt><trkpt lat="43.3743833" lon="11.9414067"><ele>729.0</ele><time>2026-04-03T10:58:21.914Z</time></trkpt><trkpt lat="43.3744917" lon="11.9414133"><ele>729.0</ele><time>2026-04-03T10:58:23.914Z</time></trkpt><trkpt lat="43.374565" lon="11.9413767"><ele>729.0</ele><time>2026-04-03T10:58:25.915Z</time></trkpt><trkpt lat="43.3746417" lon="11.9414383"><ele>729.0</ele><time>2026-04-03T10:58:27.915Z</time></trkpt><trkpt lat="43.3747517" lon="11.9415333"><ele>729.0</ele><time>2026-04-03T10:58:29.915Z</time></trkpt><trkpt lat="43.3748183" lon="11.94156"><ele>729.0</ele><time>2026-04-03T10:58:30.915Z</time></trkpt><trkpt lat="43.3748867" lon="11.9415817"><ele>729.0</ele><time>2026-04-03T10:58:31.914Z</time></trkpt><trkpt lat="43.37496" lon="11.941605"><ele>728.8000000000001</ele><time>2026-04-03T10:58:32.915Z</time></trkpt><trkpt lat="43.3750267" lon="11.9416367"><ele>728.6</ele><time>2026-04-03T10:58:33.914Z</time></trkpt><trkpt lat="43.3751383" lon="11.94164"><ele>728.4</ele><time>2026-04-03T10:58:35.915Z</time></trkpt><trkpt lat="43.375225" lon="11.9415967"><ele>728.2</ele><time>2026-04-03T10:58:37.914Z</time></trkpt><trkpt lat="43.37533" lon="11.9416283"><ele>728.0</ele><time>2026-04-03T10:58:39.914Z</time></trkpt><trkpt lat="43.3754333" lon="11.9416783"><ele>728.0</ele><time>2026-04-03T10:58:41.915Z</time></trkpt><trkpt lat="43.3754967" lon="11.9416933"><ele>728.0</ele><time>2026-04-03T10:58:42.914Z</time></trkpt><trkpt lat="43.3756117" lon="11.941675"><ele>728.0</ele><time>2026-04-03T10:58:44.915Z</time></trkpt><trkpt lat="43.3756767" lon="11.9416517"><ele>728.0</ele><time>2026-04-03T10:58:45.914Z</time></trkpt><trkpt lat="43.3757533" lon="11.9416267"><ele>728.0</ele><time>2026-04-03T10:58:46.914Z</time></trkpt><trkpt lat="43.3758217" lon="11.9416133"><ele>728.0</ele><time>2026-04-03T10:58:47.915Z</time></trkpt><trkpt lat="43.375885" lon="11.9415917"><ele>727.0</ele><time>2026-04-03T10:58:48.914Z</time></trkpt><trkpt lat="43.37596" lon="11.9414883"><ele>726.0</ele><time>2026-04-03T10:58:50.914Z</time></trkpt><trkpt lat="43.376045" lon="11.941335"><ele>725.0</ele><time>2026-04-03T10:58:52.915Z</time></trkpt><trkpt lat="43.37609" lon="11.941265"><ele>724.0</ele><time>2026-04-03T10:58:53.914Z</time></trkpt><trkpt lat="43.3761683" lon="11.9411583"><ele>723.0</ele><time>2026-04-03T10:58:55.914Z</time></trkpt><trkpt lat="43.37622" lon="11.9410567"><ele>723.0</ele><time>2026-04-03T10:58:57.915Z</time></trkpt><trkpt lat="43.3763117" lon="11.9410483"><ele>723.0</ele><time>2026-04-03T10:59:00.914Z</time></trkpt><trkpt lat="43.3763867" lon="11.9411267"><ele>723.0</ele><time>2026-04-03T10:59:02.914Z</time></trkpt><trkpt lat="43.3764267" lon="11.9412883"><ele>723.0</ele><time>2026-04-03T10:59:04.914Z</time></trkpt><trkpt lat="43.3764367" lon="11.9414367"><ele>723.0</ele><time>2026-04-03T10:59:06.915Z</time></trkpt><trkpt lat="43.37643" lon="11.94153"><ele>723.0</ele><time>2026-04-03T10:59:08.915Z</time></trkpt><trkpt lat="43.3764183" lon="11.941625"><ele>723.0</ele><time>2026-04-03T10:59:48.915Z</time></trkpt><trkpt lat="43.3764033" lon="11.9417583"><ele>723.0</ele><time>2026-04-03T10:59:50.915Z</time></trkpt><trkpt lat="43.37638" lon="11.9419267"><ele>723.0</ele><time>2026-04-03T10:59:52.915Z</time></trkpt><trkpt lat="43.3763717" lon="11.9420167"><ele>723.0</ele><time>2026-04-03T10:59:53.915Z</time></trkpt><trkpt lat="43.376345" lon="11.9421067"><ele>723.0</ele><time>2026-04-03T10:59:54.914Z</time></trkpt><trkpt lat="43.3762983" lon="11.9422017"><ele>723.0000000000001</ele><time>2026-04-03T10:59:55.915Z</time></trkpt><trkpt lat="43.3762433" lon="11.9422883"><ele>723.0</ele><time>2026-04-03T10:59:56.915Z</time></trkpt><trkpt lat="43.376195" lon="11.9423733"><ele>723.0</ele><time>2026-04-03T10:59:57.914Z</time></trkpt><trkpt lat="43.3761683" lon="11.942465"><ele>723.0</ele><time>2026-04-03T10:59:58.914Z</time></trkpt><trkpt lat="43.3761667" lon="11.942555"><ele>723.0</ele><time>2026-04-03T10:59:59.914Z</time></trkpt><trkpt lat="43.3761733" lon="11.9426583"><ele>723.0000000000001</ele><time>2026-04-03T11:00:00.915Z</time></trkpt><trkpt lat="43.3761717" lon="11.9427533"><ele>723.0</ele><time>2026-04-03T11:00:01.915Z</time></trkpt><trkpt lat="43.3761683" lon="11.9428467"><ele>725.0</ele><time>2026-04-03T11:00:02.915Z</time></trkpt><trkpt lat="43.376155" lon="11.942945"><ele>727.0</ele><time>2026-04-03T11:00:03.915Z</time></trkpt><trkpt lat="43.37611" lon="11.94309"><ele>729.0</ele><time>2026-04-03T11:00:05.914Z</time></trkpt><trkpt lat="43.3761" lon="11.9431983"><ele>731.0</ele><time>2026-04-03T11:00:07.915Z</time></trkpt><trkpt lat="43.3761433" lon="11.9432967"><ele>733.0</ele><time>2026-04-03T11:00:09.914Z</time></trkpt><trkpt lat="43.3761767" lon="11.943435"><ele>733.0</ele><time>2026-04-03T11:00:11.915Z</time></trkpt><trkpt lat="43.3761767" lon="11.94355"><ele>733.0</ele><time>2026-04-03T11:00:13.915Z</time></trkpt><trkpt lat="43.376165" lon="11.9436567"><ele>733.0</ele><time>2026-04-03T11:00:16.914Z</time></trkpt><trkpt lat="43.3762017" lon="11.9435567"><ele>733.0</ele><time>2026-04-03T11:00:22.914Z</time></trkpt><trkpt lat="43.3762833" lon="11.9435067"><ele>733.0</ele><time>2026-04-03T11:00:24.914Z</time></trkpt><trkpt lat="43.3763567" lon="11.9434533"><ele>733.0</ele><time>2026-04-03T11:00:26.914Z</time></trkpt><trkpt lat="43.37648" lon="11.9434133"><ele>733.0</ele><time>2026-04-03T11:00:41.915Z</time></trkpt><trkpt lat="43.3763933" lon="11.9434417"><ele>733.0</ele><time>2026-04-03T11:00:58.915Z</time></trkpt><trkpt lat="43.3763167" lon="11.9434833"><ele>733.0</ele><time>2026-04-03T11:01:09.915Z</time></trkpt><trkpt lat="43.3762583" lon="11.943565"><ele>733.0</ele><time>2026-04-03T11:01:11.914Z</time></trkpt><trkpt lat="43.3762233" lon="11.9436683"><ele>733.0</ele><time>2026-04-03T11:01:13.914Z</time></trkpt><trkpt lat="43.3762467" lon="11.943805"><ele>733.0</ele><time>2026-04-03T11:01:15.914Z</time></trkpt><trkpt lat="43.3762817" lon="11.9438833"><ele>732.6666666666667</ele><time>2026-04-03T11:01:16.915Z</time></trkpt><trkpt lat="43.376355" lon="11.9440017"><ele>732.3333333333334</ele><time>2026-04-03T11:01:18.914Z</time></trkpt><trkpt lat="43.3764483" lon="11.9440717"><ele>732.0</ele><time>2026-04-03T11:01:20.914Z</time></trkpt><trkpt lat="43.3765367" lon="11.9440983"><ele>731.6666666666666</ele><time>2026-04-03T11:01:22.914Z</time></trkpt><trkpt lat="43.3765983" lon="11.9441167"><ele>731.3333333333333</ele><time>2026-04-03T11:01:24.914Z</time></trkpt><trkpt lat="43.3766683" lon="11.9441133"><ele>731.0</ele><time>2026-04-03T11:01:27.914Z</time></trkpt><trkpt lat="43.376735" lon="11.944065"><ele>731.0</ele><time>2026-04-03T11:01:29.915Z</time></trkpt><trkpt lat="43.3768183" lon="11.9440217"><ele>731.0</ele><time>2026-04-03T11:01:31.915Z</time></trkpt><trkpt lat="43.376925" lon="11.9440067"><ele>731.0</ele><time>2026-04-03T11:01:33.914Z</time></trkpt><trkpt lat="43.3770133" lon="11.9440183"><ele>731.0</ele><time>2026-04-03T11:01:34.915Z</time></trkpt><trkpt lat="43.377125" lon="11.9440333"><ele>731.0</ele><time>2026-04-03T11:01:35.915Z</time></trkpt><trkpt lat="43.3772633" lon="11.9440517"><ele>730.25</ele><time>2026-04-03T11:01:36.915Z</time></trkpt><trkpt lat="43.3774033" lon="11.9440667"><ele>729.5</ele><time>2026-04-03T11:01:37.914Z</time></trkpt><trkpt lat="43.377555" lon="11.9440767"><ele>728.75</ele><time>2026-04-03T11:01:38.915Z</time></trkpt><trkpt lat="43.3776717" lon="11.9440783"><ele>728.0</ele><time>2026-04-03T11:01:39.915Z</time></trkpt><trkpt lat="43.3777767" lon="11.9440883"><ele>728.0</ele><time>2026-04-03T11:01:40.915Z</time></trkpt><trkpt lat="43.3778983" lon="11.944105"><ele>728.0</ele><time>2026-04-03T11:01:41.914Z</time></trkpt><trkpt lat="43.3780067" lon="11.944105"><ele>728.0</ele><time>2026-04-03T11:01:42.914Z</time></trkpt><trkpt lat="43.37812" lon="11.9441033"><ele>728.0</ele><time>2026-04-03T11:01:43.915Z</time></trkpt><trkpt lat="43.3782467" lon="11.9440833"><ele>728.4</ele><time>2026-04-03T11:01:44.914Z</time></trkpt><trkpt lat="43.3783633" lon="11.9440617"><ele>728.8</ele><time>2026-04-03T11:01:45.915Z</time></trkpt><trkpt lat="43.37845" lon="11.94404"><ele>729.2</ele><time>2026-04-03T11:01:46.914Z</time></trkpt><trkpt lat="43.3785183" lon="11.9440217"><ele>729.6</ele><time>2026-04-03T11:01:47.915Z</time></trkpt><trkpt lat="43.3786367" lon="11.9440167"><ele>730.0</ele><time>2026-04-03T11:01:49.914Z</time></trkpt><trkpt lat="43.3787" lon="11.944"><ele>730.0</ele><time>2026-04-03T11:01:50.914Z</time></trkpt><trkpt lat="43.3788033" lon="11.9439667"><ele>730.0</ele><time>2026-04-03T11:01:52.914Z</time></trkpt><trkpt lat="43.378935" lon="11.9439783"><ele>730.0</ele><time>2026-04-03T11:01:54.914Z</time></trkpt><trkpt lat="43.379005" lon="11.9440067"><ele>730.0</ele><time>2026-04-03T11:01:55.915Z</time></trkpt><trkpt lat="43.379105" lon="11.9440517"><ele>730.0</ele><time>2026-04-03T11:01:56.915Z</time></trkpt><trkpt lat="43.37921" lon="11.9441033"><ele>729.8333333333334</ele><time>2026-04-03T11:01:57.915Z</time></trkpt><trkpt lat="43.379305" lon="11.944135"><ele>729.6666666666667</ele><time>2026-04-03T11:01:58.915Z</time></trkpt><trkpt lat="43.3793867" lon="11.9441533"><ele>729.5</ele><time>2026-04-03T11:01:59.915Z</time></trkpt><trkpt lat="43.37945" lon="11.94417"><ele>729.3333333333334</ele><time>2026-04-03T11:02:00.915Z</time></trkpt><trkpt lat="43.379525" lon="11.94419"><ele>729.1666666666666</ele><time>2026-04-03T11:02:02.914Z</time></trkpt><trkpt lat="43.379575" lon="11.94428"><ele>729.0</ele><time>2026-04-03T11:02:05.915Z</time></trkpt><trkpt lat="43.3796267" lon="11.94435"><ele>726.0</ele><time>2026-04-03T11:02:08.915Z</time></trkpt><trkpt lat="43.3795667" lon="11.9442667"><ele>723.0</ele><time>2026-04-03T11:02:15.914Z</time></trkpt><trkpt lat="43.3794983" lon="11.9442233"><ele>720.0</ele><time>2026-04-03T11:02:17.915Z</time></trkpt><trkpt lat="43.37943" lon="11.944225"><ele>717.0</ele><time>2026-04-03T11:02:20.914Z</time></trkpt><trkpt lat="43.3794367" lon="11.9443383"><ele>714.0</ele><time>2026-04-03T11:02:23.914Z</time></trkpt><trkpt lat="43.3794717" lon="11.94442"><ele>711.0</ele><time>2026-04-03T11:02:25.914Z</time></trkpt><trkpt lat="43.37955" lon="11.9445733"><ele>711.0</ele><time>2026-04-03T11:02:34.914Z</time></trkpt><trkpt lat="43.37962" lon="11.944635"><ele>711.0</ele><time>2026-04-03T11:02:37.914Z</time></trkpt><trkpt lat="43.379685" lon="11.9447017"><ele>711.0</ele><time>2026-04-03T11:02:39.914Z</time></trkpt><trkpt lat="43.37973" lon="11.9447633"><ele>711.0</ele><time>2026-04-03T11:02:40.914Z</time></trkpt><trkpt lat="43.37978" lon="11.9448383"><ele>711.0</ele><time>2026-04-03T11:02:41.914Z</time></trkpt><trkpt lat="43.3798283" lon="11.9449217"><ele>711.0</ele><time>2026-04-03T11:02:42.915Z</time></trkpt><trkpt lat="43.379905" lon="11.9450167"><ele>710.3333333333334</ele><time>2026-04-03T11:02:44.914Z</time></trkpt><trkpt lat="43.3799267" lon="11.9451167"><ele>709.6666666666666</ele><time>2026-04-03T11:02:47.915Z</time></trkpt><trkpt lat="43.37986" lon="11.9451017"><ele>709.0</ele><time>2026-04-03T11:02:50.915Z</time></trkpt><trkpt lat="43.37984" lon="11.9452083"><ele>708.3333333333333</ele><time>2026-04-03T11:02:56.915Z</time></trkpt><trkpt lat="43.3798817" lon="11.945295"><ele>707.6666666666666</ele><time>2026-04-03T11:02:58.915Z</time></trkpt><trkpt lat="43.3799333" lon="11.9453717"><ele>707.0</ele><time>2026-04-03T11:03:00.915Z</time></trkpt><trkpt lat="43.3799817" lon="11.9454567"><ele>707.0</ele><time>2026-04-03T11:03:02.914Z</time></trkpt><trkpt lat="43.3800167" lon="11.94555"><ele>707.0</ele><time>2026-04-03T11:03:04.915Z</time></trkpt><trkpt lat="43.380025" lon="11.9456467"><ele>707.0</ele><time>2026-04-03T11:03:06.915Z</time></trkpt><trkpt lat="43.3800117" lon="11.9458033"><ele>707.0</ele><time>2026-04-03T11:03:08.915Z</time></trkpt><trkpt lat="43.3800167" lon="11.9458917"><ele>707.0</ele><time>2026-04-03T11:03:09.914Z</time></trkpt><trkpt lat="43.3800183" lon="11.9459967"><ele>707.0</ele><time>2026-04-03T11:03:10.914Z</time></trkpt><trkpt lat="43.380025" lon="11.9461133"><ele>704.8333333333333</ele><time>2026-04-03T11:03:11.914Z</time></trkpt><trkpt lat="43.3800333" lon="11.94622"><ele>702.6666666666666</ele><time>2026-04-03T11:03:12.915Z</time></trkpt><trkpt lat="43.3800383" lon="11.9463133"><ele>700.5</ele><time>2026-04-03T11:03:13.915Z</time></trkpt><trkpt lat="43.380045" lon="11.9464717"><ele>698.3333333333334</ele><time>2026-04-03T11:03:15.914Z</time></trkpt><trkpt lat="43.380075" lon="11.946635"><ele>696.1666666666667</ele><time>2026-04-03T11:03:17.915Z</time></trkpt><trkpt lat="43.3800833" lon="11.9467233"><ele>694.0</ele><time>2026-04-03T11:03:18.914Z</time></trkpt><trkpt lat="43.3800933" lon="11.9468233"><ele>692.2857142857143</ele><time>2026-04-03T11:03:19.915Z</time></trkpt><trkpt lat="43.3800917" lon="11.94693"><ele>690.5714285714286</ele><time>2026-04-03T11:03:20.914Z</time></trkpt><trkpt lat="43.380085" lon="11.947035"><ele>688.8571428571429</ele><time>2026-04-03T11:03:21.914Z</time></trkpt><trkpt lat="43.3800833" lon="11.9471283"><ele>687.1428571428571</ele><time>2026-04-03T11:03:22.915Z</time></trkpt><trkpt lat="43.3800767" lon="11.9472267"><ele>685.4285714285714</ele><time>2026-04-03T11:03:23.914Z</time></trkpt><trkpt lat="43.3800667" lon="11.9473283"><ele>683.7142857142857</ele><time>2026-04-03T11:03:24.915Z</time></trkpt><trkpt lat="43.3800417" lon="11.9474283"><ele>682.0</ele><time>2026-04-03T11:03:25.914Z</time></trkpt><trkpt lat="43.380005" lon="11.947525"><ele>680.6666666666667</ele><time>2026-04-03T11:03:26.915Z</time></trkpt><trkpt lat="43.3799667" lon="11.94762"><ele>679.3333333333334</ele><time>2026-04-03T11:03:27.914Z</time></trkpt><trkpt lat="43.3799367" lon="11.94771"><ele>678.0</ele><time>2026-04-03T11:03:28.915Z</time></trkpt><trkpt lat="43.3799033" lon="11.9478083"><ele>676.6666666666666</ele><time>2026-04-03T11:03:29.915Z</time></trkpt><trkpt lat="43.3798683" lon="11.947905"><ele>675.3333333333333</ele><time>2026-04-03T11:03:30.914Z</time></trkpt><trkpt lat="43.3798267" lon="11.9480167"><ele>674.0</ele><time>2026-04-03T11:03:32.915Z</time></trkpt><trkpt lat="43.37974" lon="11.9480167"><ele>674.0</ele><time>2026-04-03T11:03:34.914Z</time></trkpt><trkpt lat="43.3796717" lon="11.94789"><ele>674.0</ele><time>2026-04-03T11:03:36.915Z</time></trkpt><trkpt lat="43.379665" lon="11.9477917"><ele>674.0</ele><time>2026-04-03T11:03:37.915Z</time></trkpt><trkpt lat="43.37967" lon="11.947695"><ele>674.0</ele><time>2026-04-03T11:03:38.915Z</time></trkpt><trkpt lat="43.37969" lon="11.94759"><ele>674.0</ele><time>2026-04-03T11:03:39.915Z</time></trkpt><trkpt lat="43.379705" lon="11.947495"><ele>674.0</ele><time>2026-04-03T11:03:40.915Z</time></trkpt><trkpt lat="43.3797133" lon="11.9473917"><ele>675.3333333333333</ele><time>2026-04-03T11:03:41.915Z</time></trkpt><trkpt lat="43.3797283" lon="11.9473017"><ele>676.6666666666666</ele><time>2026-04-03T11:03:42.914Z</time></trkpt><trkpt lat="43.3797467" lon="11.9471283"><ele>678.0</ele><time>2026-04-03T11:03:44.915Z</time></trkpt><trkpt lat="43.37975" lon="11.9470133"><ele>679.3333333333334</ele><time>2026-04-03T11:03:46.916Z</time></trkpt><trkpt lat="43.3796917" lon="11.946935"><ele>680.6666666666667</ele><time>2026-04-03T11:03:48.916Z</time></trkpt><trkpt lat="43.3796233" lon="11.9468933"><ele>682.0</ele><time>2026-04-03T11:03:49.915Z</time></trkpt><trkpt lat="43.37954" lon="11.9468433"><ele>678.6</ele><time>2026-04-03T11:03:50.915Z</time></trkpt><trkpt lat="43.3794467" lon="11.9467983"><ele>675.2</ele><time>2026-04-03T11:03:51.916Z</time></trkpt><trkpt lat="43.3793633" lon="11.9467467"><ele>671.8</ele><time>2026-04-03T11:03:52.916Z</time></trkpt><trkpt lat="43.37929" lon="11.9467167"><ele>668.4</ele><time>2026-04-03T11:03:53.915Z</time></trkpt><trkpt lat="43.3791867" lon="11.9467517"><ele>665.0</ele><time>2026-04-03T11:03:55.916Z</time></trkpt><trkpt lat="43.3791317" lon="11.94689"><ele>665.0</ele><time>2026-04-03T11:03:57.916Z</time></trkpt><trkpt lat="43.3790833" lon="11.9469817"><ele>665.0</ele><time>2026-04-03T11:03:58.916Z</time></trkpt><trkpt lat="43.3790233" lon="11.9470717"><ele>665.0</ele><time>2026-04-03T11:03:59.915Z</time></trkpt><trkpt lat="43.378965" lon="11.947155"><ele>665.0</ele><time>2026-04-03T11:04:00.915Z</time></trkpt><trkpt lat="43.3789033" lon="11.9472217"><ele>665.0</ele><time>2026-04-03T11:04:01.915Z</time></trkpt><trkpt lat="43.3788433" lon="11.94729"><ele>665.0</ele><time>2026-04-03T11:04:02.916Z</time></trkpt><trkpt lat="43.3788017" lon="11.9473617"><ele>663.4</ele><time>2026-04-03T11:04:03.916Z</time></trkpt><trkpt lat="43.3787683" lon="11.9474917"><ele>661.8</ele><time>2026-04-03T11:04:05.916Z</time></trkpt><trkpt lat="43.378805" lon="11.9476283"><ele>660.2</ele><time>2026-04-03T11:04:07.916Z</time></trkpt><trkpt lat="43.3788817" lon="11.947745"><ele>658.6</ele><time>2026-04-03T11:04:09.915Z</time></trkpt><trkpt lat="43.378815" lon="11.947705"><ele>657.0</ele><time>2026-04-03T11:04:15.915Z</time></trkpt><trkpt lat="43.3787467" lon="11.9476167"><ele>653.8</ele><time>2026-04-03T11:04:17.916Z</time></trkpt><trkpt lat="43.3786567" lon="11.9475367"><ele>650.6</ele><time>2026-04-03T11:04:19.916Z</time></trkpt><trkpt lat="43.3786033" lon="11.94749"><ele>647.4</ele><time>2026-04-03T11:04:20.915Z</time></trkpt><trkpt lat="43.3785083" lon="11.9474067"><ele>644.1999999999999</ele><time>2026-04-03T11:04:22.915Z</time></trkpt><trkpt lat="43.3784217" lon="11.9473367"><ele>641.0</ele><time>2026-04-03T11:04:24.915Z</time></trkpt><trkpt lat="43.3783467" lon="11.9472783"><ele>641.0</ele><time>2026-04-03T11:04:26.916Z</time></trkpt><trkpt lat="43.3782867" lon="11.94722"><ele>641.0</ele><time>2026-04-03T11:04:28.916Z</time></trkpt><trkpt lat="43.378215" lon="11.9471733"><ele>641.0</ele><time>2026-04-03T11:04:30.916Z</time></trkpt><trkpt lat="43.3781233" lon="11.9471383"><ele>641.0</ele><time>2026-04-03T11:04:32.916Z</time></trkpt><trkpt lat="43.37806" lon="11.9471367"><ele>641.0</ele><time>2026-04-03T11:04:34.915Z</time></trkpt><trkpt lat="43.377995" lon="11.9471717"><ele>641.0</ele><time>2026-04-03T11:05:20.916Z</time></trkpt><trkpt lat="43.378015" lon="11.947255"><ele>641.0</ele><time>2026-04-03T11:05:22.915Z</time></trkpt><trkpt lat="43.3780617" lon="11.947395"><ele>641.0</ele><time>2026-04-03T11:05:24.915Z</time></trkpt><trkpt lat="43.378095" lon="11.9474767"><ele>641.0</ele><time>2026-04-03T11:05:25.915Z</time></trkpt><trkpt lat="43.378155" lon="11.94757"><ele>641.0</ele><time>2026-04-03T11:05:26.915Z</time></trkpt><trkpt lat="43.3782083" lon="11.947655"><ele>641.0</ele><time>2026-04-03T11:05:27.915Z</time></trkpt><trkpt lat="43.378255" lon="11.9477467"><ele>641.0</ele><time>2026-04-03T11:05:28.916Z</time></trkpt><trkpt lat="43.3782833" lon="11.9478433"><ele>641.0</ele><time>2026-04-03T11:05:29.916Z</time></trkpt><trkpt lat="43.3782967" lon="11.9479383"><ele>638.1666666666666</ele><time>2026-04-03T11:05:30.915Z</time></trkpt><trkpt lat="43.3783233" lon="11.9480383"><ele>635.3333333333333</ele><time>2026-04-03T11:05:31.915Z</time></trkpt><trkpt lat="43.3783683" lon="11.9481317"><ele>632.5</ele><time>2026-04-03T11:05:32.915Z</time></trkpt><trkpt lat="43.3784133" lon="11.9482167"><ele>629.6666666666666</ele><time>2026-04-03T11:05:33.915Z</time></trkpt><trkpt lat="43.3784533" lon="11.94831"><ele>626.8333333333334</ele><time>2026-04-03T11:05:34.915Z</time></trkpt><trkpt lat="43.3784767" lon="11.9484067"><ele>624.0</ele><time>2026-04-03T11:05:35.916Z</time></trkpt><trkpt lat="43.37852" lon="11.948485"><ele>627.2</ele><time>2026-04-03T11:05:36.916Z</time></trkpt><trkpt lat="43.3785783" lon="11.9485517"><ele>630.4</ele><time>2026-04-03T11:05:37.915Z</time></trkpt><trkpt lat="43.3786533" lon="11.9486233"><ele>633.6</ele><time>2026-04-03T11:05:38.915Z</time></trkpt><trkpt lat="43.3787367" lon="11.9486983"><ele>636.8</ele><time>2026-04-03T11:05:39.916Z</time></trkpt><trkpt lat="43.3788217" lon="11.948775"><ele>640.0</ele><time>2026-04-03T11:05:40.916Z</time></trkpt><trkpt lat="43.3789217" lon="11.948865"><ele>640.0</ele><time>2026-04-03T11:05:41.915Z</time></trkpt><trkpt lat="43.379025" lon="11.94895"><ele>640.0</ele><time>2026-04-03T11:05:42.916Z</time></trkpt><trkpt lat="43.3791183" lon="11.9490333"><ele>640.0</ele><time>2026-04-03T11:05:43.915Z</time></trkpt><trkpt lat="43.3791933" lon="11.9491317"><ele>640.0</ele><time>2026-04-03T11:05:44.915Z</time></trkpt><trkpt lat="43.379255" lon="11.9492433"><ele>640.0</ele><time>2026-04-03T11:05:45.916Z</time></trkpt><trkpt lat="43.3792967" lon="11.9493617"><ele>637.4</ele><time>2026-04-03T11:05:46.916Z</time></trkpt><trkpt lat="43.37933" lon="11.9494767"><ele>634.8</ele><time>2026-04-03T11:05:47.915Z</time></trkpt><trkpt lat="43.3793633" lon="11.9495817"><ele>632.2</ele><time>2026-04-03T11:05:48.916Z</time></trkpt><trkpt lat="43.37941" lon="11.9496883"><ele>629.6</ele><time>2026-04-03T11:05:49.915Z</time></trkpt><trkpt lat="43.3794483" lon="11.9498133"><ele>627.0</ele><time>2026-04-03T11:05:50.915Z</time></trkpt><trkpt lat="43.3794783" lon="11.9499367"><ele>625.8000000000001</ele><time>2026-04-03T11:05:51.916Z</time></trkpt><trkpt lat="43.3795167" lon="11.9500783"><ele>624.6</ele><time>2026-04-03T11:05:52.915Z</time></trkpt><trkpt lat="43.3795567" lon="11.9501733"><ele>623.4000000000001</ele><time>2026-04-03T11:05:53.916Z</time></trkpt><trkpt lat="43.3796217" lon="11.9502533"><ele>622.2</ele><time>2026-04-03T11:05:55.916Z</time></trkpt><trkpt lat="43.379715" lon="11.9502567"><ele>621.0</ele><time>2026-04-03T11:05:57.915Z</time></trkpt><trkpt lat="43.3798133" lon="11.950245"><ele>621.0</ele><time>2026-04-03T11:05:59.915Z</time></trkpt><trkpt lat="43.379885" lon="11.9502417"><ele>621.0</ele><time>2026-04-03T11:06:01.915Z</time></trkpt><trkpt lat="43.3799717" lon="11.95023"><ele>621.0</ele><time>2026-04-03T11:06:04.916Z</time></trkpt><trkpt lat="43.38006" lon="11.9502017"><ele>621.0</ele><time>2026-04-03T11:06:06.915Z</time></trkpt><trkpt lat="43.380165" lon="11.9501583"><ele>621.0</ele><time>2026-04-03T11:06:08.915Z</time></trkpt><trkpt lat="43.3802283" lon="11.9501333"><ele>621.0</ele><time>2026-04-03T11:06:09.916Z</time></trkpt><trkpt lat="43.3802917" lon="11.9501133"><ele>621.0</ele><time>2026-04-03T11:06:10.916Z</time></trkpt><trkpt lat="43.3804117" lon="11.9500483"><ele>621.0</ele><time>2026-04-03T11:06:12.915Z</time></trkpt><trkpt lat="43.3804667" lon="11.9499917"><ele>621.0</ele><time>2026-04-03T11:06:13.916Z</time></trkpt><trkpt lat="43.3805717" lon="11.9499117"><ele>621.0</ele><time>2026-04-03T11:06:15.916Z</time></trkpt><trkpt lat="43.3806733" lon="11.9499"><ele>621.0</ele><time>2026-04-03T11:06:17.916Z</time></trkpt><trkpt lat="43.3807367" lon="11.9498833"><ele>621.0</ele><time>2026-04-03T11:06:20.915Z</time></trkpt><trkpt lat="43.3807267" lon="11.9497917"><ele>621.0</ele><time>2026-04-03T11:06:25.915Z</time></trkpt><trkpt lat="43.3806633" lon="11.94981"><ele>621.0</ele><time>2026-04-03T11:06:27.916Z</time></trkpt><trkpt lat="43.38059" lon="11.9498417"><ele>621.0</ele><time>2026-04-03T11:06:30.915Z</time></trkpt><trkpt lat="43.38054" lon="11.9499317"><ele>621.0</ele><time>2026-04-03T11:06:32.915Z</time></trkpt><trkpt lat="43.380435" lon="11.9500217"><ele>621.0</ele><time>2026-04-03T11:06:34.916Z</time></trkpt><trkpt lat="43.3803567" lon="11.9500617"><ele>621.0</ele><time>2026-04-03T11:06:35.915Z</time></trkpt><trkpt lat="43.3802683" lon="11.9501"><ele>621.0</ele><time>2026-04-03T11:06:36.915Z</time></trkpt><trkpt lat="43.3801583" lon="11.9501333"><ele>621.0</ele><time>2026-04-03T11:06:37.915Z</time></trkpt><trkpt lat="43.38006" lon="11.9501583"><ele>621.0</ele><time>2026-04-03T11:06:38.916Z</time></trkpt><trkpt lat="43.3799633" lon="11.950185"><ele>621.0</ele><time>2026-04-03T11:06:39.915Z</time></trkpt><trkpt lat="43.3798717" lon="11.9502167"><ele>621.0</ele><time>2026-04-03T11:06:40.916Z</time></trkpt><trkpt lat="43.379785" lon="11.9502283"><ele>621.0</ele><time>2026-04-03T11:06:41.916Z</time></trkpt><trkpt lat="43.37971" lon="11.9502217"><ele>621.0</ele><time>2026-04-03T11:06:42.915Z</time></trkpt><trkpt lat="43.3796083" lon="11.950225"><ele>621.0</ele><time>2026-04-03T11:06:44.916Z</time></trkpt><trkpt lat="43.379655" lon="11.95032"><ele>621.0</ele><time>2026-04-03T11:06:59.915Z</time></trkpt><trkpt lat="43.3797433" lon="11.950355"><ele>621.0</ele><time>2026-04-03T11:07:01.915Z</time></trkpt><trkpt lat="43.379795" lon="11.9504283"><ele>621.0</ele><time>2026-04-03T11:07:04.915Z</time></trkpt><trkpt lat="43.37972" lon="11.9505133"><ele>621.0</ele><time>2026-04-03T11:07:07.916Z</time></trkpt><trkpt lat="43.3796417" lon="11.9505367"><ele>621.0</ele><time>2026-04-03T11:07:09.915Z</time></trkpt><trkpt lat="43.3795783" lon="11.950565"><ele>621.0</ele><time>2026-04-03T11:07:11.915Z</time></trkpt><trkpt lat="43.3796017" lon="11.9506733"><ele>621.0</ele><time>2026-04-03T11:07:15.915Z</time></trkpt><trkpt lat="43.3796683" lon="11.9507417"><ele>621.0</ele><time>2026-04-03T11:07:17.915Z</time></trkpt><trkpt lat="43.379745" lon="11.95082"><ele>616.8</ele><time>2026-04-03T11:07:19.916Z</time></trkpt><trkpt lat="43.3798267" lon="11.95091"><ele>612.6</ele><time>2026-04-03T11:07:21.915Z</time></trkpt><trkpt lat="43.37991" lon="11.9509833"><ele>608.4</ele><time>2026-04-03T11:07:23.915Z</time></trkpt><trkpt lat="43.3800017" lon="11.9510383"><ele>604.2</ele><time>2026-04-03T11:07:25.915Z</time></trkpt><trkpt lat="43.3800917" lon="11.9510183"><ele>600.0</ele><time>2026-04-03T11:07:27.916Z</time></trkpt><trkpt lat="43.3801717" lon="11.9510267"><ele>600.0</ele><time>2026-04-03T11:07:30.915Z</time></trkpt><trkpt lat="43.3801483" lon="11.9511633"><ele>600.0</ele><time>2026-04-03T11:07:33.916Z</time></trkpt><trkpt lat="43.3800717" lon="11.9512617"><ele>600.0</ele><time>2026-04-03T11:07:35.915Z</time></trkpt><trkpt lat="43.379985" lon="11.95137"><ele>600.0</ele><time>2026-04-03T11:07:37.916Z</time></trkpt><trkpt lat="43.3798833" lon="11.9514317"><ele>600.0</ele><time>2026-04-03T11:07:39.915Z</time></trkpt><trkpt lat="43.37979" lon="11.9515017"><ele>598.8</ele><time>2026-04-03T11:07:41.915Z</time></trkpt><trkpt lat="43.3796783" lon="11.951545"><ele>597.6</ele><time>2026-04-03T11:07:43.916Z</time></trkpt><trkpt lat="43.3795683" lon="11.9515783"><ele>596.4</ele><time>2026-04-03T11:07:45.915Z</time></trkpt><trkpt lat="43.37945" lon="11.9516417"><ele>595.2</ele><time>2026-04-03T11:07:47.916Z</time></trkpt><trkpt lat="43.379385" lon="11.95168"><ele>594.0</ele><time>2026-04-03T11:07:48.916Z</time></trkpt><trkpt lat="43.379275" lon="11.9517517"><ele>590.8333333333334</ele><time>2026-04-03T11:07:50.915Z</time></trkpt><trkpt lat="43.379195" lon="11.9518083"><ele>587.6666666666666</ele><time>2026-04-03T11:07:52.916Z</time></trkpt><trkpt lat="43.3791633" lon="11.9519167"><ele>584.5</ele><time>2026-04-03T11:07:55.916Z</time></trkpt><trkpt lat="43.3791983" lon="11.9519967"><ele>581.3333333333333</ele><time>2026-04-03T11:07:57.916Z</time></trkpt><trkpt lat="43.37924" lon="11.9520767"><ele>578.1666666666666</ele><time>2026-04-03T11:07:59.916Z</time></trkpt><trkpt lat="43.3792367" lon="11.9521767"><ele>575.0</ele><time>2026-04-03T11:08:01.916Z</time></trkpt><trkpt lat="43.3791967" lon="11.9522717"><ele>575.0</ele><time>2026-04-03T11:08:03.916Z</time></trkpt><trkpt lat="43.3792017" lon="11.952375"><ele>575.0</ele><time>2026-04-03T11:08:05.915Z</time></trkpt><trkpt lat="43.3792333" lon="11.952515"><ele>575.0</ele><time>2026-04-03T11:08:07.915Z</time></trkpt><trkpt lat="43.3792317" lon="11.9526633"><ele>575.0</ele><time>2026-04-03T11:08:09.916Z</time></trkpt><trkpt lat="43.3792233" lon="11.9528317"><ele>575.0</ele><time>2026-04-03T11:08:11.915Z</time></trkpt><trkpt lat="43.37921" lon="11.9529983"><ele>573.4</ele><time>2026-04-03T11:08:13.915Z</time></trkpt><trkpt lat="43.3792" lon="11.9530933"><ele>571.8</ele><time>2026-04-03T11:08:14.916Z</time></trkpt><trkpt lat="43.3791917" lon="11.95319"><ele>570.2</ele><time>2026-04-03T11:08:15.915Z</time></trkpt><trkpt lat="43.3791767" lon="11.9533483"><ele>568.6</ele><time>2026-04-03T11:08:17.915Z</time></trkpt><trkpt lat="43.3791683" lon="11.9535167"><ele>567.0</ele><time>2026-04-03T11:08:19.916Z</time></trkpt><trkpt lat="43.379205" lon="11.953655"><ele>566.0</ele><time>2026-04-03T11:08:21.916Z</time></trkpt><trkpt lat="43.3793017" lon="11.9537383"><ele>565.0</ele><time>2026-04-03T11:08:23.916Z</time></trkpt><trkpt lat="43.3794017" lon="11.9538117"><ele>564.0</ele><time>2026-04-03T11:08:25.916Z</time></trkpt><trkpt lat="43.3794417" lon="11.953885"><ele>563.0</ele><time>2026-04-03T11:08:26.916Z</time></trkpt><trkpt lat="43.37948" lon="11.95397"><ele>562.0</ele><time>2026-04-03T11:08:27.916Z</time></trkpt><trkpt lat="43.379525" lon="11.954075"><ele>562.0</ele><time>2026-04-03T11:08:28.915Z</time></trkpt><trkpt lat="43.3795567" lon="11.954175"><ele>562.0</ele><time>2026-04-03T11:08:29.916Z</time></trkpt><trkpt lat="43.379595" lon="11.9542817"><ele>562.0</ele><time>2026-04-03T11:08:30.916Z</time></trkpt><trkpt lat="43.37963" lon="11.954395"><ele>562.0</ele><time>2026-04-03T11:08:31.915Z</time></trkpt><trkpt lat="43.3796733" lon="11.9545"><ele>562.0</ele><time>2026-04-03T11:08:32.916Z</time></trkpt><trkpt lat="43.379715" lon="11.9546033"><ele>562.0</ele><time>2026-04-03T11:08:33.916Z</time></trkpt><trkpt lat="43.37976" lon="11.9547117"><ele>559.4</ele><time>2026-04-03T11:08:34.915Z</time></trkpt><trkpt lat="43.3798033" lon="11.9548017"><ele>556.8000000000001</ele><time>2026-04-03T11:08:35.916Z</time></trkpt><trkpt lat="43.3798533" lon="11.9549"><ele>554.2</ele><time>2026-04-03T11:08:36.916Z</time></trkpt><trkpt lat="43.379915" lon="11.9550133"><ele>551.6</ele><time>2026-04-03T11:08:37.915Z</time></trkpt><trkpt lat="43.3799783" lon="11.9551217"><ele>549.0</ele><time>2026-04-03T11:08:38.916Z</time></trkpt><trkpt lat="43.3800333" lon="11.9552333"><ele>547.6666666666666</ele><time>2026-04-03T11:08:39.916Z</time></trkpt><trkpt lat="43.38008" lon="11.9553367"><ele>546.3333333333334</ele><time>2026-04-03T11:08:40.916Z</time></trkpt><trkpt lat="43.3801233" lon="11.9554333"><ele>545.0</ele><time>2026-04-03T11:08:41.915Z</time></trkpt><trkpt lat="43.38016" lon="11.955515"><ele>543.6666666666667</ele><time>2026-04-03T11:08:42.916Z</time></trkpt><trkpt lat="43.3801983" lon="11.955595"><ele>542.3333333333334</ele><time>2026-04-03T11:08:43.916Z</time></trkpt><trkpt lat="43.3802367" lon="11.95567"><ele>541.0</ele><time>2026-04-03T11:08:44.915Z</time></trkpt><trkpt lat="43.380305" lon="11.9557967"><ele>538.8333333333334</ele><time>2026-04-03T11:08:46.916Z</time></trkpt><trkpt lat="43.3803633" lon="11.9559033"><ele>536.6666666666667</ele><time>2026-04-03T11:08:48.915Z</time></trkpt><trkpt lat="43.3803933" lon="11.9559917"><ele>534.5</ele><time>2026-04-03T11:08:52.915Z</time></trkpt><trkpt lat="43.3802917" lon="11.956045"><ele>532.3333333333334</ele><time>2026-04-03T11:09:18.916Z</time></trkpt><trkpt lat="43.3802217" lon="11.956045"><ele>530.1666666666666</ele><time>2026-04-03T11:09:19.915Z</time></trkpt><trkpt lat="43.380145" lon="11.9560417"><ele>528.0</ele><time>2026-04-03T11:09:20.916Z</time></trkpt><trkpt lat="43.380045" lon="11.9560367"><ele>528.0</ele><time>2026-04-03T11:09:21.916Z</time></trkpt><trkpt lat="43.3799333" lon="11.95602"><ele>528.0</ele><time>2026-04-03T11:09:22.915Z</time></trkpt><trkpt lat="43.379835" lon="11.956005"><ele>528.0</ele><time>2026-04-03T11:09:23.915Z</time></trkpt><trkpt lat="43.3797383" lon="11.9560017"><ele>528.0</ele><time>2026-04-03T11:09:24.916Z</time></trkpt><trkpt lat="43.379655" lon="11.9560117"><ele>528.0</ele><time>2026-04-03T11:09:25.916Z</time></trkpt><trkpt lat="43.3795617" lon="11.956085"><ele>526.1999999999999</ele><time>2026-04-03T11:09:27.915Z</time></trkpt><trkpt lat="43.3795333" lon="11.95624"><ele>524.4</ele><time>2026-04-03T11:09:29.916Z</time></trkpt><trkpt lat="43.379525" lon="11.9564067"><ele>522.5999999999999</ele><time>2026-04-03T11:09:31.915Z</time></trkpt><trkpt lat="43.3794717" lon="11.95651"><ele>520.8</ele><time>2026-04-03T11:09:33.916Z</time></trkpt><trkpt lat="43.3793917" lon="11.9565217"><ele>519.0</ele><time>2026-04-03T11:09:35.915Z</time></trkpt><trkpt lat="43.3792867" lon="11.9564417"><ele>519.0</ele><time>2026-04-03T11:09:37.915Z</time></trkpt><trkpt lat="43.379205" lon="11.9563683"><ele>519.0</ele><time>2026-04-03T11:09:38.915Z</time></trkpt><trkpt lat="43.3791067" lon="11.956285"><ele>519.0</ele><time>2026-04-03T11:09:39.916Z</time></trkpt><trkpt lat="43.3789983" lon="11.9562083"><ele>519.0</ele><time>2026-04-03T11:09:40.915Z</time></trkpt><trkpt lat="43.378875" lon="11.9561317"><ele>518.5</ele><time>2026-04-03T11:09:41.915Z</time></trkpt><trkpt lat="43.3787617" lon="11.9560383"><ele>518.0</ele><time>2026-04-03T11:09:42.915Z</time></trkpt><trkpt lat="43.3786467" lon="11.95591"><ele>517.5</ele><time>2026-04-03T11:09:43.915Z</time></trkpt><trkpt lat="43.3785567" lon="11.9557883"><ele>517.0</ele><time>2026-04-03T11:09:44.915Z</time></trkpt><trkpt lat="43.3784917" lon="11.9556667"><ele>517.0</ele><time>2026-04-03T11:09:45.916Z</time></trkpt><trkpt lat="43.3784417" lon="11.9555433"><ele>517.0</ele><time>2026-04-03T11:09:46.916Z</time></trkpt><trkpt lat="43.3784033" lon="11.95542"><ele>517.0</ele><time>2026-04-03T11:09:47.916Z</time></trkpt><trkpt lat="43.3783833" lon="11.9552983"><ele>517.0</ele><time>2026-04-03T11:09:48.916Z</time></trkpt><trkpt lat="43.3783717" lon="11.9551667"><ele>517.0</ele><time>2026-04-03T11:09:49.915Z</time></trkpt><trkpt lat="43.3783583" lon="11.9550467"><ele>519.6</ele><time>2026-04-03T11:09:50.916Z</time></trkpt><trkpt lat="43.3783383" lon="11.9549367"><ele>522.2</ele><time>2026-04-03T11:09:51.915Z</time></trkpt><trkpt lat="43.3783117" lon="11.95484"><ele>524.8</ele><time>2026-04-03T11:09:52.915Z</time></trkpt><trkpt lat="43.378235" lon="11.95469"><ele>527.4</ele><time>2026-04-03T11:09:54.915Z</time></trkpt><trkpt lat="43.3781733" lon="11.9546467"><ele>530.0</ele><time>2026-04-03T11:09:55.915Z</time></trkpt><trkpt lat="43.37806" lon="11.9546933"><ele>528.1666666666666</ele><time>2026-04-03T11:09:57.915Z</time></trkpt><trkpt lat="43.3780117" lon="11.95478"><ele>526.3333333333333</ele><time>2026-04-03T11:09:58.915Z</time></trkpt><trkpt lat="43.377995" lon="11.9548817"><ele>524.5</ele><time>2026-04-03T11:09:59.916Z</time></trkpt><trkpt lat="43.3779783" lon="11.95501"><ele>522.6666666666666</ele><time>2026-04-03T11:10:00.916Z</time></trkpt><trkpt lat="43.3779633" lon="11.9551417"><ele>520.8333333333334</ele><time>2026-04-03T11:10:01.915Z</time></trkpt><trkpt lat="43.3779633" lon="11.955265"><ele>519.0</ele><time>2026-04-03T11:10:02.916Z</time></trkpt><trkpt lat="43.3779967" lon="11.9553867"><ele>518.6666666666666</ele><time>2026-04-03T11:10:03.916Z</time></trkpt><trkpt lat="43.37802" lon="11.9554967"><ele>518.3333333333334</ele><time>2026-04-03T11:10:04.916Z</time></trkpt><trkpt lat="43.378045" lon="11.955595"><ele>518.0</ele><time>2026-04-03T11:10:05.915Z</time></trkpt><trkpt lat="43.37807" lon="11.9556817"><ele>517.6666666666667</ele><time>2026-04-03T11:10:06.916Z</time></trkpt><trkpt lat="43.3780683" lon="11.9558033"><ele>517.3333333333334</ele><time>2026-04-03T11:10:08.915Z</time></trkpt><trkpt lat="43.3780383" lon="11.9558833"><ele>517.0</ele><time>2026-04-03T11:10:10.915Z</time></trkpt><trkpt lat="43.378055" lon="11.9559883"><ele>515.6</ele><time>2026-04-03T11:10:17.916Z</time></trkpt><trkpt lat="43.3781517" lon="11.9560383"><ele>514.2</ele><time>2026-04-03T11:10:20.915Z</time></trkpt><trkpt lat="43.3782867" lon="11.9561083"><ele>512.8</ele><time>2026-04-03T11:10:22.915Z</time></trkpt><trkpt lat="43.3783683" lon="11.956175"><ele>511.4</ele><time>2026-04-03T11:10:23.916Z</time></trkpt><trkpt lat="43.3784517" lon="11.9562617"><ele>510.0</ele><time>2026-04-03T11:10:24.916Z</time></trkpt><trkpt lat="43.3785433" lon="11.9563533"><ele>510.0</ele><time>2026-04-03T11:10:25.916Z</time></trkpt><trkpt lat="43.3786433" lon="11.9564533"><ele>510.0</ele><time>2026-04-03T11:10:26.916Z</time></trkpt><trkpt lat="43.3787367" lon="11.9565667"><ele>510.0</ele><time>2026-04-03T11:10:27.916Z</time></trkpt><trkpt lat="43.3788183" lon="11.95667"><ele>510.0</ele><time>2026-04-03T11:10:28.915Z</time></trkpt><trkpt lat="43.3788833" lon="11.9567817"><ele>509.0</ele><time>2026-04-03T11:10:29.916Z</time></trkpt><trkpt lat="43.378935" lon="11.9569067"><ele>508.0</ele><time>2026-04-03T11:10:30.916Z</time></trkpt><trkpt lat="43.3789867" lon="11.9570467"><ele>507.0</ele><time>2026-04-03T11:10:31.915Z</time></trkpt><trkpt lat="43.3790233" lon="11.9571967"><ele>506.0</ele><time>2026-04-03T11:10:32.916Z</time></trkpt><trkpt lat="43.3790683" lon="11.9573267"><ele>505.0</ele><time>2026-04-03T11:10:33.915Z</time></trkpt><trkpt lat="43.3791267" lon="11.95745"><ele>504.2</ele><time>2026-04-03T11:10:34.916Z</time></trkpt><trkpt lat="43.3791983" lon="11.9575633"><ele>503.4</ele><time>2026-04-03T11:10:35.915Z</time></trkpt><trkpt lat="43.3792733" lon="11.9576667"><ele>502.6</ele><time>2026-04-03T11:10:36.916Z</time></trkpt><trkpt lat="43.3793533" lon="11.9577583"><ele>501.8</ele><time>2026-04-03T11:10:37.915Z</time></trkpt><trkpt lat="43.37943" lon="11.9578417"><ele>501.0</ele><time>2026-04-03T11:10:38.916Z</time></trkpt><trkpt lat="43.3795033" lon="11.9579133"><ele>501.0</ele><time>2026-04-03T11:10:39.915Z</time></trkpt><trkpt lat="43.37957" lon="11.9579767"><ele>501.0</ele><time>2026-04-03T11:10:40.915Z</time></trkpt><trkpt lat="43.37964" lon="11.9580333"><ele>501.0</ele><time>2026-04-03T11:10:41.916Z</time></trkpt><trkpt lat="43.3797083" lon="11.9580783"><ele>501.0</ele><time>2026-04-03T11:10:42.915Z</time></trkpt><trkpt lat="43.379785" lon="11.95811"><ele>501.0</ele><time>2026-04-03T11:10:43.916Z</time></trkpt><trkpt lat="43.3798667" lon="11.9581217"><ele>501.0</ele><time>2026-04-03T11:10:44.916Z</time></trkpt><trkpt lat="43.3799533" lon="11.9581133"><ele>499.8333333333333</ele><time>2026-04-03T11:10:45.916Z</time></trkpt><trkpt lat="43.3800367" lon="11.9580967"><ele>498.66666666666663</ele><time>2026-04-03T11:10:46.915Z</time></trkpt><trkpt lat="43.3801033" lon="11.95808"><ele>497.5</ele><time>2026-04-03T11:10:47.915Z</time></trkpt><trkpt lat="43.3801967" lon="11.958015"><ele>496.3333333333333</ele><time>2026-04-03T11:10:49.916Z</time></trkpt><trkpt lat="43.3802467" lon="11.9579467"><ele>495.16666666666663</ele><time>2026-04-03T11:10:51.915Z</time></trkpt><trkpt lat="43.3803067" lon="11.9578867"><ele>494.0</ele><time>2026-04-03T11:10:53.915Z</time></trkpt><trkpt lat="43.3803633" lon="11.9578367"><ele>493.99999999999994</ele><time>2026-04-03T11:10:55.916Z</time></trkpt><trkpt lat="43.3803533" lon="11.957935"><ele>494.0</ele><time>2026-04-03T11:11:11.916Z</time></trkpt><trkpt lat="43.3803167" lon="11.9580117"><ele>494.0</ele><time>2026-04-03T11:11:14.915Z</time></trkpt><trkpt lat="43.380275" lon="11.9581267"><ele>494.0</ele><time>2026-04-03T11:11:17.916Z</time></trkpt><trkpt lat="43.3802267" lon="11.9582167"><ele>493.99999999999994</ele><time>2026-04-03T11:11:19.916Z</time></trkpt><trkpt lat="43.3801817" lon="11.9583167"><ele>494.0</ele><time>2026-04-03T11:11:21.915Z</time></trkpt><trkpt lat="43.3801533" lon="11.9584"><ele>494.3333333333333</ele><time>2026-04-03T11:11:22.916Z</time></trkpt><trkpt lat="43.3801267" lon="11.9585017"><ele>494.66666666666663</ele><time>2026-04-03T11:11:23.915Z</time></trkpt><trkpt lat="43.380115" lon="11.9585983"><ele>495.0</ele><time>2026-04-03T11:11:24.915Z</time></trkpt><trkpt lat="43.38009" lon="11.9587383"><ele>495.33333333333337</ele><time>2026-04-03T11:11:26.915Z</time></trkpt><trkpt lat="43.38009" lon="11.9588283"><ele>495.6666666666667</ele><time>2026-04-03T11:11:28.915Z</time></trkpt><trkpt lat="43.38015" lon="11.9587617"><ele>496.0</ele><time>2026-04-03T11:11:49.916Z</time></trkpt><trkpt lat="43.3801817" lon="11.9586683"><ele>496.00000000000006</ele><time>2026-04-03T11:11:51.916Z</time></trkpt><trkpt lat="43.3801317" lon="11.9585733"><ele>496.0</ele><time>2026-04-03T11:12:01.915Z</time></trkpt><trkpt lat="43.3800533" lon="11.9586117"><ele>496.0</ele><time>2026-04-03T11:12:04.915Z</time></trkpt><trkpt lat="43.3799867" lon="11.9586183"><ele>496.0</ele><time>2026-04-03T11:12:06.916Z</time></trkpt><trkpt lat="43.3799233" lon="11.9585933"><ele>496.00000000000006</ele><time>2026-04-03T11:12:08.916Z</time></trkpt><trkpt lat="43.3798433" lon="11.958545"><ele>496.0</ele><time>2026-04-03T11:12:10.915Z</time></trkpt><trkpt lat="43.37974" lon="11.95846"><ele>496.83333333333337</ele><time>2026-04-03T11:12:12.916Z</time></trkpt><trkpt lat="43.3796833" lon="11.9584167"><ele>497.6666666666667</ele><time>2026-04-03T11:12:13.916Z</time></trkpt><trkpt lat="43.3796267" lon="11.9583783"><ele>498.5</ele><time>2026-04-03T11:12:14.916Z</time></trkpt><trkpt lat="43.3795283" lon="11.95832"><ele>499.33333333333337</ele><time>2026-04-03T11:12:16.915Z</time></trkpt><trkpt lat="43.3794433" lon="11.9583233"><ele>500.1666666666667</ele><time>2026-04-03T11:12:18.916Z</time></trkpt><trkpt lat="43.37937" lon="11.9583967"><ele>501.0</ele><time>2026-04-03T11:12:20.915Z</time></trkpt><trkpt lat="43.3793433" lon="11.9585083"><ele>503.3333333333333</ele><time>2026-04-03T11:12:22.916Z</time></trkpt><trkpt lat="43.3793717" lon="11.95864"><ele>505.66666666666663</ele><time>2026-04-03T11:12:24.916Z</time></trkpt><trkpt lat="43.3793933" lon="11.9587683"><ele>508.0</ele><time>2026-04-03T11:12:26.916Z</time></trkpt><trkpt lat="43.37941" lon="11.9588717"><ele>510.3333333333333</ele><time>2026-04-03T11:12:28.916Z</time></trkpt><trkpt lat="43.379405" lon="11.9589933"><ele>512.6666666666666</ele><time>2026-04-03T11:12:31.916Z</time></trkpt><trkpt lat="43.3793283" lon="11.95902"><ele>515.0</ele><time>2026-04-03T11:12:33.916Z</time></trkpt><trkpt lat="43.3792133" lon="11.9589583"><ele>515.0</ele><time>2026-04-03T11:12:35.916Z</time></trkpt><trkpt lat="43.379145" lon="11.958905"><ele>515.0</ele><time>2026-04-03T11:12:36.915Z</time></trkpt><trkpt lat="43.3790917" lon="11.9588583"><ele>515.0</ele><time>2026-04-03T11:12:37.916Z</time></trkpt><trkpt lat="43.3790017" lon="11.9588083"><ele>515.0</ele><time>2026-04-03T11:12:39.916Z</time></trkpt><trkpt lat="43.37891" lon="11.9587783"><ele>515.0</ele><time>2026-04-03T11:12:41.915Z</time></trkpt><trkpt lat="43.37882" lon="11.9586817"><ele>515.0</ele><time>2026-04-03T11:12:43.916Z</time></trkpt><trkpt lat="43.3787667" lon="11.9586333"><ele>518.1666666666666</ele><time>2026-04-03T11:12:44.915Z</time></trkpt><trkpt lat="43.378705" lon="11.9586017"><ele>521.3333333333333</ele><time>2026-04-03T11:12:45.915Z</time></trkpt><trkpt lat="43.3786283" lon="11.9585667"><ele>524.5</ele><time>2026-04-03T11:12:46.916Z</time></trkpt><trkpt lat="43.3785617" lon="11.95853"><ele>527.6666666666666</ele><time>2026-04-03T11:12:47.916Z</time></trkpt><trkpt lat="43.3784867" lon="11.958475"><ele>530.8333333333334</ele><time>2026-04-03T11:12:48.916Z</time></trkpt><trkpt lat="43.3784167" lon="11.9584283"><ele>534.0</ele><time>2026-04-03T11:12:49.915Z</time></trkpt><trkpt lat="43.3783417" lon="11.9584083"><ele>534.0</ele><time>2026-04-03T11:12:51.916Z</time></trkpt><trkpt lat="43.378275" lon="11.9585267"><ele>534.0</ele><time>2026-04-03T11:13:11.916Z</time></trkpt><trkpt lat="43.378245" lon="11.958615"><ele>534.0</ele><time>2026-04-03T11:13:12.916Z</time></trkpt><trkpt lat="43.378205" lon="11.9587017"><ele>534.0</ele><time>2026-04-03T11:13:13.915Z</time></trkpt><trkpt lat="43.378145" lon="11.9587783"><ele>534.0</ele><time>2026-04-03T11:13:14.915Z</time></trkpt><trkpt lat="43.3780933" lon="11.958835"><ele>534.0</ele><time>2026-04-03T11:13:15.915Z</time></trkpt><trkpt lat="43.37804" lon="11.9588967"><ele>534.0</ele><time>2026-04-03T11:13:16.915Z</time></trkpt><trkpt lat="43.3780133" lon="11.9590317"><ele>534.0</ele><time>2026-04-03T11:13:18.916Z</time></trkpt><trkpt lat="43.3780533" lon="11.95915"><ele>534.0</ele><time>2026-04-03T11:13:20.916Z</time></trkpt><trkpt lat="43.3780333" lon="11.95927"><ele>534.0</ele><time>2026-04-03T11:13:22.915Z</time></trkpt><trkpt lat="43.3779867" lon="11.959435"><ele>534.0</ele><time>2026-04-03T11:13:24.916Z</time></trkpt><trkpt lat="43.3779783" lon="11.9595333"><ele>536.8</ele><time>2026-04-03T11:13:25.915Z</time></trkpt><trkpt lat="43.3780567" lon="11.95963"><ele>539.5999999999999</ele><time>2026-04-03T11:13:27.916Z</time></trkpt><trkpt lat="43.378135" lon="11.9596467"><ele>542.4</ele><time>2026-04-03T11:13:28.916Z</time></trkpt><trkpt lat="43.3782317" lon="11.9596833"><ele>545.1999999999999</ele><time>2026-04-03T11:13:29.916Z</time></trkpt><trkpt lat="43.3783383" lon="11.95974"><ele>548.0</ele><time>2026-04-03T11:13:30.915Z</time></trkpt><trkpt lat="43.3784333" lon="11.9598117"><ele>548.0</ele><time>2026-04-03T11:13:31.915Z</time></trkpt><trkpt lat="43.3785167" lon="11.95987"><ele>548.0</ele><time>2026-04-03T11:13:32.916Z</time></trkpt><trkpt lat="43.3785767" lon="11.9599233"><ele>548.0</ele><time>2026-04-03T11:13:33.915Z</time></trkpt><trkpt lat="43.3786067" lon="11.9600333"><ele>548.0</ele><time>2026-04-03T11:13:35.916Z</time></trkpt><trkpt lat="43.3785633" lon="11.9601667"><ele>548.0</ele><time>2026-04-03T11:13:37.915Z</time></trkpt><trkpt lat="43.3785483" lon="11.96033"><ele>550.0</ele><time>2026-04-03T11:13:39.916Z</time></trkpt><trkpt lat="43.3785267" lon="11.960495"><ele>552.0</ele><time>2026-04-03T11:13:41.916Z</time></trkpt><trkpt lat="43.3785117" lon="11.9606717"><ele>554.0</ele><time>2026-04-03T11:13:43.916Z</time></trkpt><trkpt lat="43.3785" lon="11.960785"><ele>556.0</ele><time>2026-04-03T11:13:44.916Z</time></trkpt><trkpt lat="43.3784717" lon="11.9608883"><ele>558.0</ele><time>2026-04-03T11:13:45.915Z</time></trkpt><trkpt lat="43.37844" lon="11.9609883"><ele>558.8571428571428</ele><time>2026-04-03T11:13:46.916Z</time></trkpt><trkpt lat="43.3784083" lon="11.961085"><ele>559.7142857142857</ele><time>2026-04-03T11:13:47.916Z</time></trkpt><trkpt lat="43.3783717" lon="11.96118"><ele>560.5714285714286</ele><time>2026-04-03T11:13:48.916Z</time></trkpt><trkpt lat="43.378335" lon="11.9612683"><ele>561.4285714285713</ele><time>2026-04-03T11:13:49.915Z</time></trkpt><trkpt lat="43.3782967" lon="11.96135"><ele>562.2857142857142</ele><time>2026-04-03T11:13:50.916Z</time></trkpt><trkpt lat="43.3782467" lon="11.9614267"><ele>563.1428571428571</ele><time>2026-04-03T11:13:51.916Z</time></trkpt><trkpt lat="43.378205" lon="11.9615067"><ele>564.0</ele><time>2026-04-03T11:13:52.915Z</time></trkpt><trkpt lat="43.378165" lon="11.961595"><ele>564.0</ele><time>2026-04-03T11:13:53.915Z</time></trkpt><trkpt lat="43.378125" lon="11.9616917"><ele>564.0</ele><time>2026-04-03T11:13:54.915Z</time></trkpt><trkpt lat="43.3780933" lon="11.9618133"><ele>564.0</ele><time>2026-04-03T11:13:55.916Z</time></trkpt><trkpt lat="43.378065" lon="11.96194"><ele>564.0</ele><time>2026-04-03T11:13:56.916Z</time></trkpt><trkpt lat="43.378045" lon="11.9620417"><ele>564.0</ele><time>2026-04-03T11:13:57.915Z</time></trkpt><trkpt lat="43.3780333" lon="11.9621533"><ele>564.0</ele><time>2026-04-03T11:13:58.915Z</time></trkpt><trkpt lat="43.378035" lon="11.9622717"><ele>565.2</ele><time>2026-04-03T11:13:59.915Z</time></trkpt><trkpt lat="43.37804" lon="11.9624017"><ele>566.4</ele><time>2026-04-03T11:14:00.916Z</time></trkpt><trkpt lat="43.37804" lon="11.9625367"><ele>567.6</ele><time>2026-04-03T11:14:01.915Z</time></trkpt><trkpt lat="43.3780283" lon="11.962675"><ele>568.8</ele><time>2026-04-03T11:14:02.916Z</time></trkpt><trkpt lat="43.3780067" lon="11.9627983"><ele>570.0</ele><time>2026-04-03T11:14:03.915Z</time></trkpt><trkpt lat="43.37797" lon="11.9628867"><ele>574.8333333333334</ele><time>2026-04-03T11:14:04.916Z</time></trkpt><trkpt lat="43.3779167" lon="11.9629633"><ele>579.6666666666666</ele><time>2026-04-03T11:14:05.915Z</time></trkpt><trkpt lat="43.3778567" lon="11.9630467"><ele>584.5</ele><time>2026-04-03T11:14:06.916Z</time></trkpt><trkpt lat="43.377795" lon="11.96314"><ele>589.3333333333333</ele><time>2026-04-03T11:14:07.916Z</time></trkpt><trkpt lat="43.3777417" lon="11.963225"><ele>594.1666666666666</ele><time>2026-04-03T11:14:08.916Z</time></trkpt><trkpt lat="43.37769" lon="11.9632883"><ele>599.0</ele><time>2026-04-03T11:14:09.915Z</time></trkpt><trkpt lat="43.3775933" lon="11.9633"><ele>599.0</ele><time>2026-04-03T11:14:11.915Z</time></trkpt><trkpt lat="43.37753" lon="11.9633033"><ele>599.0</ele><time>2026-04-03T11:14:12.916Z</time></trkpt><trkpt lat="43.37742" lon="11.9633983"><ele>599.0</ele><time>2026-04-03T11:14:14.915Z</time></trkpt><trkpt lat="43.3773667" lon="11.9634517"><ele>599.0</ele><time>2026-04-03T11:14:15.916Z</time></trkpt><trkpt lat="43.3773033" lon="11.96349"><ele>599.0</ele><time>2026-04-03T11:14:16.915Z</time></trkpt><trkpt lat="43.3772433" lon="11.9635183"><ele>599.0</ele><time>2026-04-03T11:14:17.916Z</time></trkpt><trkpt lat="43.3771867" lon="11.9635783"><ele>602.5</ele><time>2026-04-03T11:14:19.915Z</time></trkpt><trkpt lat="43.377115" lon="11.963605"><ele>606.0</ele><time>2026-04-03T11:14:53.915Z</time></trkpt><trkpt lat="43.3770283" lon="11.9636267"><ele>609.5</ele><time>2026-04-03T11:14:55.915Z</time></trkpt><trkpt lat="43.3769517" lon="11.96371"><ele>613.0</ele><time>2026-04-03T11:14:57.916Z</time></trkpt><trkpt lat="43.3768983" lon="11.9637817"><ele>616.5</ele><time>2026-04-03T11:14:58.915Z</time></trkpt><trkpt lat="43.3768233" lon="11.9638433"><ele>620.0</ele><time>2026-04-03T11:14:59.916Z</time></trkpt><trkpt lat="43.3767467" lon="11.9639517"><ele>620.0</ele><time>2026-04-03T11:15:01.916Z</time></trkpt><trkpt lat="43.3767267" lon="11.9641333"><ele>620.0</ele><time>2026-04-03T11:15:03.915Z</time></trkpt><trkpt lat="43.3767133" lon="11.9642367"><ele>620.0</ele><time>2026-04-03T11:15:04.916Z</time></trkpt><trkpt lat="43.3766933" lon="11.96434"><ele>620.0</ele><time>2026-04-03T11:15:05.915Z</time></trkpt><trkpt lat="43.3766767" lon="11.964435"><ele>620.0</ele><time>2026-04-03T11:15:06.916Z</time></trkpt><trkpt lat="43.3766633" lon="11.96453"><ele>620.0</ele><time>2026-04-03T11:15:07.915Z</time></trkpt><trkpt lat="43.3766567" lon="11.964635"><ele>622.5</ele><time>2026-04-03T11:15:08.916Z</time></trkpt><trkpt lat="43.3766567" lon="11.9647367"><ele>625.0</ele><time>2026-04-03T11:15:09.915Z</time></trkpt><trkpt lat="43.3766567" lon="11.9648283"><ele>627.5</ele><time>2026-04-03T11:15:10.915Z</time></trkpt><trkpt lat="43.3766517" lon="11.9649333"><ele>630.0</ele><time>2026-04-03T11:15:11.915Z</time></trkpt><trkpt lat="43.37664" lon="11.9650467"><ele>632.5</ele><time>2026-04-03T11:15:12.915Z</time></trkpt><trkpt lat="43.3766217" lon="11.9651567"><ele>635.0</ele><time>2026-04-03T11:15:13.916Z</time></trkpt><trkpt lat="43.3766067" lon="11.9652633"><ele>634.5714285714286</ele><time>2026-04-03T11:15:14.916Z</time></trkpt><trkpt lat="43.3766" lon="11.965365"><ele>634.1428571428571</ele><time>2026-04-03T11:15:15.916Z</time></trkpt><trkpt lat="43.3766017" lon="11.965465"><ele>633.7142857142858</ele><time>2026-04-03T11:15:16.916Z</time></trkpt><trkpt lat="43.3766067" lon="11.9655667"><ele>633.2857142857142</ele><time>2026-04-03T11:15:17.915Z</time></trkpt><trkpt lat="43.37661" lon="11.9656717"><ele>632.8571428571429</ele><time>2026-04-03T11:15:18.916Z</time></trkpt><trkpt lat="43.3765933" lon="11.9657667"><ele>632.4285714285714</ele><time>2026-04-03T11:15:19.915Z</time></trkpt><trkpt lat="43.3765667" lon="11.9658533"><ele>632.0</ele><time>2026-04-03T11:15:20.916Z</time></trkpt><trkpt lat="43.37652" lon="11.96594"><ele>632.0</ele><time>2026-04-03T11:15:21.916Z</time></trkpt><trkpt lat="43.3764683" lon="11.9660183"><ele>632.0</ele><time>2026-04-03T11:15:22.915Z</time></trkpt><trkpt lat="43.376405" lon="11.9661033"><ele>632.0</ele><time>2026-04-03T11:15:23.916Z</time></trkpt><trkpt lat="43.3763233" lon="11.9661817"><ele>632.0</ele><time>2026-04-03T11:15:24.915Z</time></trkpt><trkpt lat="43.376215" lon="11.966275"><ele>632.0</ele><time>2026-04-03T11:15:25.915Z</time></trkpt><trkpt lat="43.3761117" lon="11.966365"><ele>636.0</ele><time>2026-04-03T11:15:26.915Z</time></trkpt><trkpt lat="43.3760217" lon="11.9664483"><ele>640.0</ele><time>2026-04-03T11:15:27.915Z</time></trkpt><trkpt lat="43.3759633" lon="11.9665283"><ele>644.0</ele><time>2026-04-03T11:15:28.916Z</time></trkpt><trkpt lat="43.3759333" lon="11.9666233"><ele>648.0</ele><time>2026-04-03T11:15:29.916Z</time></trkpt><trkpt lat="43.3758933" lon="11.9667117"><ele>652.0</ele><time>2026-04-03T11:15:30.916Z</time></trkpt><trkpt lat="43.3758367" lon="11.9667933"><ele>656.0</ele><time>2026-04-03T11:15:31.915Z</time></trkpt><trkpt lat="43.3757717" lon="11.9668633"><ele>656.1666666666666</ele><time>2026-04-03T11:15:32.915Z</time></trkpt><trkpt lat="43.3756967" lon="11.966935"><ele>656.3333333333333</ele><time>2026-04-03T11:15:33.916Z</time></trkpt><trkpt lat="43.3756267" lon="11.9670067"><ele>656.5</ele><time>2026-04-03T11:15:34.915Z</time></trkpt><trkpt lat="43.37558" lon="11.9670667"><ele>656.6666666666666</ele><time>2026-04-03T11:15:35.916Z</time></trkpt><trkpt lat="43.3755333" lon="11.96713"><ele>656.8333333333334</ele><time>2026-04-03T11:15:36.915Z</time></trkpt><trkpt lat="43.37547" lon="11.9672517"><ele>657.0</ele><time>2026-04-03T11:15:38.916Z</time></trkpt><trkpt lat="43.3754117" lon="11.9673433"><ele>657.0</ele><time>2026-04-03T11:15:40.915Z</time></trkpt><trkpt lat="43.3754483" lon="11.967415"><ele>657.0</ele><time>2026-04-03T11:16:25.915Z</time></trkpt><trkpt lat="43.375445" lon="11.9675167"><ele>657.0</ele><time>2026-04-03T11:16:27.915Z</time></trkpt><trkpt lat="43.37543" lon="11.9676117"><ele>657.0</ele><time>2026-04-03T11:16:29.916Z</time></trkpt><trkpt lat="43.3754183" lon="11.9677"><ele>657.0</ele><time>2026-04-03T11:16:31.916Z</time></trkpt><trkpt lat="43.3753883" lon="11.9677933"><ele>657.0</ele><time>2026-04-03T11:16:33.916Z</time></trkpt><trkpt lat="43.37535" lon="11.967895"><ele>657.0</ele><time>2026-04-03T11:16:35.915Z</time></trkpt><trkpt lat="43.375295" lon="11.9680267"><ele>656.8</ele><time>2026-04-03T11:16:37.915Z</time></trkpt><trkpt lat="43.3752817" lon="11.9681317"><ele>656.6</ele><time>2026-04-03T11:16:38.916Z</time></trkpt><trkpt lat="43.375275" lon="11.96824"><ele>656.4</ele><time>2026-04-03T11:16:39.916Z</time></trkpt><trkpt lat="43.3752767" lon="11.9683933"><ele>656.1999999999999</ele><time>2026-04-03T11:16:41.915Z</time></trkpt><trkpt lat="43.37533" lon="11.9685333"><ele>656.0</ele><time>2026-04-03T11:16:43.916Z</time></trkpt><trkpt lat="43.3754033" lon="11.9686617"><ele>655.8571428571428</ele><time>2026-04-03T11:16:45.916Z</time></trkpt><trkpt lat="43.37545" lon="11.9687283"><ele>655.7142857142857</ele><time>2026-04-03T11:16:46.916Z</time></trkpt><trkpt lat="43.3754983" lon="11.9688017"><ele>655.5714285714286</ele><time>2026-04-03T11:16:47.916Z</time></trkpt><trkpt lat="43.375535" lon="11.968875"><ele>655.4285714285713</ele><time>2026-04-03T11:16:48.915Z</time></trkpt><trkpt lat="43.3755583" lon="11.96896"><ele>655.2857142857142</ele><time>2026-04-03T11:16:49.915Z</time></trkpt><trkpt lat="43.375565" lon="11.9690583"><ele>655.1428571428571</ele><time>2026-04-03T11:16:50.916Z</time></trkpt><trkpt lat="43.37557" lon="11.9691683"><ele>655.0</ele><time>2026-04-03T11:16:51.915Z</time></trkpt><trkpt lat="43.3755533" lon="11.9692733"><ele>657.1666666666667</ele><time>2026-04-03T11:16:52.915Z</time></trkpt><trkpt lat="43.3755417" lon="11.9693633"><ele>659.3333333333334</ele><time>2026-04-03T11:16:53.915Z</time></trkpt><trkpt lat="43.3755483" lon="11.9695083"><ele>661.5</ele><time>2026-04-03T11:16:55.916Z</time></trkpt><trkpt lat="43.375585" lon="11.9696433"><ele>663.6666666666666</ele><time>2026-04-03T11:16:57.916Z</time></trkpt><trkpt lat="43.37561" lon="11.9697267"><ele>665.8333333333333</ele><time>2026-04-03T11:16:58.916Z</time></trkpt><trkpt lat="43.375635" lon="11.9698067"><ele>668.0</ele><time>2026-04-03T11:16:59.916Z</time></trkpt><trkpt lat="43.3756767" lon="11.969965"><ele>666.5999999999999</ele><time>2026-04-03T11:17:01.916Z</time></trkpt><trkpt lat="43.3757117" lon="11.9701033"><ele>665.1999999999999</ele><time>2026-04-03T11:17:03.915Z</time></trkpt><trkpt lat="43.3757033" lon="11.9702583"><ele>663.8</ele><time>2026-04-03T11:17:05.915Z</time></trkpt><trkpt lat="43.3757117" lon="11.970405"><ele>662.4</ele><time>2026-04-03T11:17:07.916Z</time></trkpt><trkpt lat="43.375735" lon="11.9705417"><ele>661.0</ele><time>2026-04-03T11:17:09.916Z</time></trkpt><trkpt lat="43.3757633" lon="11.9706767"><ele>661.0</ele><time>2026-04-03T11:17:11.916Z</time></trkpt><trkpt lat="43.3758033" lon="11.970825"><ele>661.0</ele><time>2026-04-03T11:17:13.916Z</time></trkpt><trkpt lat="43.375835" lon="11.97098"><ele>661.0</ele><time>2026-04-03T11:17:15.915Z</time></trkpt><trkpt lat="43.3758783" lon="11.9711283"><ele>661.0</ele><time>2026-04-03T11:17:17.915Z</time></trkpt><trkpt lat="43.375885" lon="11.9712167"><ele>661.0</ele><time>2026-04-03T11:17:18.915Z</time></trkpt><trkpt lat="43.3758867" lon="11.9713083"><ele>661.5</ele><time>2026-04-03T11:17:19.916Z</time></trkpt><trkpt lat="43.37589" lon="11.9714117"><ele>662.0</ele><time>2026-04-03T11:17:20.915Z</time></trkpt><trkpt lat="43.3758967" lon="11.97153"><ele>662.5</ele><time>2026-04-03T11:17:21.916Z</time></trkpt><trkpt lat="43.3758867" lon="11.9716367"><ele>663.0</ele><time>2026-04-03T11:17:22.915Z</time></trkpt><trkpt lat="43.3758817" lon="11.971745"><ele>663.5</ele><time>2026-04-03T11:17:23.916Z</time></trkpt><trkpt lat="43.3758783" lon="11.9718417"><ele>664.0</ele><time>2026-04-03T11:17:24.916Z</time></trkpt><trkpt lat="43.3758583" lon="11.9720067"><ele>664.6666666666667</ele><time>2026-04-03T11:17:26.916Z</time></trkpt><trkpt lat="43.37583" lon="11.9720933"><ele>665.3333333333334</ele><time>2026-04-03T11:17:27.916Z</time></trkpt><trkpt lat="43.37579" lon="11.9721983"><ele>666.0</ele><time>2026-04-03T11:17:28.916Z</time></trkpt><trkpt lat="43.375755" lon="11.97231"><ele>666.6666666666666</ele><time>2026-04-03T11:17:29.915Z</time></trkpt><trkpt lat="43.3757317" lon="11.9724183"><ele>667.3333333333333</ele><time>2026-04-03T11:17:30.916Z</time></trkpt><trkpt lat="43.3757133" lon="11.97252"><ele>668.0</ele><time>2026-04-03T11:17:31.915Z</time></trkpt><trkpt lat="43.3756983" lon="11.9726217"><ele>668.2857142857142</ele><time>2026-04-03T11:17:32.916Z</time></trkpt><trkpt lat="43.37569" lon="11.9727217"><ele>668.5714285714286</ele><time>2026-04-03T11:17:33.916Z</time></trkpt><trkpt lat="43.3756917" lon="11.972825"><ele>668.8571428571429</ele><time>2026-04-03T11:17:34.915Z</time></trkpt><trkpt lat="43.3756917" lon="11.9729233"><ele>669.1428571428571</ele><time>2026-04-03T11:17:35.915Z</time></trkpt><trkpt lat="43.3756983" lon="11.9730267"><ele>669.4285714285714</ele><time>2026-04-03T11:17:36.916Z</time></trkpt><trkpt lat="43.375705" lon="11.9731133"><ele>669.7142857142857</ele><time>2026-04-03T11:17:37.916Z</time></trkpt><trkpt lat="43.37571" lon="11.9732117"><ele>670.0</ele><time>2026-04-03T11:17:38.915Z</time></trkpt><trkpt lat="43.375715" lon="11.9733167"><ele>669.8333333333334</ele><time>2026-04-03T11:17:39.915Z</time></trkpt><trkpt lat="43.3757217" lon="11.97342"><ele>669.6666666666667</ele><time>2026-04-03T11:17:40.915Z</time></trkpt><trkpt lat="43.3757317" lon="11.9735733"><ele>669.5</ele><time>2026-04-03T11:17:42.916Z</time></trkpt><trkpt lat="43.3757367" lon="11.97368"><ele>669.3333333333334</ele><time>2026-04-03T11:17:44.915Z</time></trkpt><trkpt lat="43.37575" lon="11.9737883"><ele>669.1666666666666</ele><time>2026-04-03T11:17:47.915Z</time></trkpt><trkpt lat="43.3757267" lon="11.973905"><ele>669.0</ele><time>2026-04-03T11:17:50.915Z</time></trkpt><trkpt lat="43.375735" lon="11.9740767"><ele>669.1666666666666</ele><time>2026-04-03T11:17:52.916Z</time></trkpt><trkpt lat="43.3757433" lon="11.9741883"><ele>669.3333333333334</ele><time>2026-04-03T11:17:53.916Z</time></trkpt><trkpt lat="43.3757583" lon="11.9743017"><ele>669.5</ele><time>2026-04-03T11:17:54.915Z</time></trkpt><trkpt lat="43.3757733" lon="11.9744033"><ele>669.6666666666667</ele><time>2026-04-03T11:17:55.916Z</time></trkpt><trkpt lat="43.3757917" lon="11.9745417"><ele>669.8333333333334</ele><time>2026-04-03T11:17:57.915Z</time></trkpt><trkpt lat="43.37579" lon="11.9746867"><ele>670.0</ele><time>2026-04-03T11:17:59.916Z</time></trkpt><trkpt lat="43.3757817" lon="11.9748533"><ele>670.0</ele><time>2026-04-03T11:18:01.915Z</time></trkpt><trkpt lat="43.3757717" lon="11.9749617"><ele>670.0</ele><time>2026-04-03T11:18:02.915Z</time></trkpt><trkpt lat="43.3757317" lon="11.97509"><ele>670.0</ele><time>2026-04-03T11:18:03.916Z</time></trkpt><trkpt lat="43.3756683" lon="11.975225"><ele>670.0</ele><time>2026-04-03T11:18:04.915Z</time></trkpt><trkpt lat="43.37561" lon="11.9753317"><ele>670.0</ele><time>2026-04-03T11:18:05.916Z</time></trkpt><trkpt lat="43.3755617" lon="11.97543"><ele>669.5</ele><time>2026-04-03T11:18:06.916Z</time></trkpt><trkpt lat="43.37554" lon="11.9755233"><ele>669.0</ele><time>2026-04-03T11:18:07.915Z</time></trkpt><trkpt lat="43.3755283" lon="11.9756217"><ele>668.5</ele><time>2026-04-03T11:18:08.915Z</time></trkpt><trkpt lat="43.37552" lon="11.9757283"><ele>668.0</ele><time>2026-04-03T11:18:09.916Z</time></trkpt><trkpt lat="43.3755033" lon="11.9758367"><ele>667.5</ele><time>2026-04-03T11:18:10.916Z</time></trkpt><trkpt lat="43.3754833" lon="11.9759467"><ele>667.0</ele><time>2026-04-03T11:18:11.916Z</time></trkpt><trkpt lat="43.3754667" lon="11.9760533"><ele>667.0</ele><time>2026-04-03T11:18:12.915Z</time></trkpt><trkpt lat="43.3754683" lon="11.9761567"><ele>667.0</ele><time>2026-04-03T11:18:13.916Z</time></trkpt><trkpt lat="43.3754717" lon="11.9762667"><ele>667.0</ele><time>2026-04-03T11:18:14.916Z</time></trkpt><trkpt lat="43.3754667" lon="11.9763733"><ele>667.0</ele><time>2026-04-03T11:18:15.915Z</time></trkpt><trkpt lat="43.3754617" lon="11.9764867"><ele>667.0</ele><time>2026-04-03T11:18:16.915Z</time></trkpt><trkpt lat="43.3754617" lon="11.9765933"><ele>667.0</ele><time>2026-04-03T11:18:17.915Z</time></trkpt><trkpt lat="43.37547" lon="11.976695"><ele>668.0</ele><time>2026-04-03T11:18:18.915Z</time></trkpt><trkpt lat="43.3754767" lon="11.97679"><ele>669.0</ele><time>2026-04-03T11:18:19.916Z</time></trkpt><trkpt lat="43.3754883" lon="11.976955"><ele>670.0</ele><time>2026-04-03T11:18:21.915Z</time></trkpt><trkpt lat="43.3755" lon="11.9771417"><ele>671.0</ele><time>2026-04-03T11:18:23.915Z</time></trkpt><trkpt lat="43.3755083" lon="11.977265"><ele>672.0</ele><time>2026-04-03T11:18:24.916Z</time></trkpt><trkpt lat="43.3755167" lon="11.977385"><ele>675.0</ele><time>2026-04-03T11:18:25.915Z</time></trkpt><trkpt lat="43.3755267" lon="11.9775017"><ele>678.0</ele><time>2026-04-03T11:18:26.915Z</time></trkpt><trkpt lat="43.3755367" lon="11.9776117"><ele>681.0</ele><time>2026-04-03T11:18:27.916Z</time></trkpt><trkpt lat="43.3755367" lon="11.9777233"><ele>684.0</ele><time>2026-04-03T11:18:28.915Z</time></trkpt><trkpt lat="43.375535" lon="11.9778283"><ele>687.0</ele><time>2026-04-03T11:18:29.915Z</time></trkpt><trkpt lat="43.375535" lon="11.9779167"><ele>690.0</ele><time>2026-04-03T11:18:30.915Z</time></trkpt><trkpt lat="43.3755583" lon="11.9780567"><ele>690.0</ele><time>2026-04-03T11:18:32.915Z</time></trkpt><trkpt lat="43.3755883" lon="11.9781967"><ele>690.0</ele><time>2026-04-03T11:18:34.916Z</time></trkpt><trkpt lat="43.3756367" lon="11.9783583"><ele>690.0</ele><time>2026-04-03T11:18:36.915Z</time></trkpt><trkpt lat="43.3756667" lon="11.9784417"><ele>690.0</ele><time>2026-04-03T11:18:37.915Z</time></trkpt><trkpt lat="43.3757383" lon="11.9785817"><ele>690.0</ele><time>2026-04-03T11:18:39.916Z</time></trkpt><trkpt lat="43.3758217" lon="11.97871"><ele>688.1428571428571</ele><time>2026-04-03T11:18:41.916Z</time></trkpt><trkpt lat="43.3758733" lon="11.97877"><ele>686.2857142857142</ele><time>2026-04-03T11:18:42.916Z</time></trkpt><trkpt lat="43.37592" lon="11.9788317"><ele>684.4285714285713</ele><time>2026-04-03T11:18:43.916Z</time></trkpt><trkpt lat="43.3759683" lon="11.9788933"><ele>682.5714285714286</ele><time>2026-04-03T11:18:44.916Z</time></trkpt><trkpt lat="43.37602" lon="11.9789583"><ele>680.7142857142857</ele><time>2026-04-03T11:18:45.916Z</time></trkpt><trkpt lat="43.3760733" lon="11.979025"><ele>678.8571428571428</ele><time>2026-04-03T11:18:46.916Z</time></trkpt><trkpt lat="43.3761233" lon="11.9790833"><ele>677.0</ele><time>2026-04-03T11:18:47.916Z</time></trkpt><trkpt lat="43.376175" lon="11.979145"><ele>678.2</ele><time>2026-04-03T11:18:48.915Z</time></trkpt><trkpt lat="43.3762633" lon="11.9792467"><ele>679.4000000000001</ele><time>2026-04-03T11:18:50.916Z</time></trkpt><trkpt lat="43.3763317" lon="11.9793367"><ele>680.5999999999999</ele><time>2026-04-03T11:18:52.916Z</time></trkpt><trkpt lat="43.3763683" lon="11.9794433"><ele>681.8</ele><time>2026-04-03T11:18:54.916Z</time></trkpt><trkpt lat="43.3763933" lon="11.9795567"><ele>683.0</ele><time>2026-04-03T11:18:56.916Z</time></trkpt><trkpt lat="43.376445" lon="11.9797033"><ele>683.0</ele><time>2026-04-03T11:18:58.916Z</time></trkpt><trkpt lat="43.37648" lon="11.9798067"><ele>683.0</ele><time>2026-04-03T11:18:59.916Z</time></trkpt><trkpt lat="43.3765217" lon="11.9799067"><ele>683.0</ele><time>2026-04-03T11:19:00.915Z</time></trkpt><trkpt lat="43.3765667" lon="11.9800117"><ele>683.0</ele><time>2026-04-03T11:19:01.915Z</time></trkpt><trkpt lat="43.37662" lon="11.9801117"><ele>683.0</ele><time>2026-04-03T11:19:02.915Z</time></trkpt><trkpt lat="43.376665" lon="11.980205"><ele>683.0</ele><time>2026-04-03T11:19:03.915Z</time></trkpt><trkpt lat="43.376695" lon="11.9802917"><ele>685.3333333333333</ele><time>2026-04-03T11:19:04.915Z</time></trkpt><trkpt lat="43.3767083" lon="11.9803783"><ele>687.6666666666666</ele><time>2026-04-03T11:19:05.916Z</time></trkpt><trkpt lat="43.3767017" lon="11.9804667"><ele>690.0</ele><time>2026-04-03T11:19:06.915Z</time></trkpt><trkpt lat="43.3766517" lon="11.98063"><ele>692.3333333333334</ele><time>2026-04-03T11:19:08.916Z</time></trkpt><trkpt lat="43.3766117" lon="11.9807133"><ele>694.6666666666667</ele><time>2026-04-03T11:19:09.916Z</time></trkpt><trkpt lat="43.37656" lon="11.9808217"><ele>697.0</ele><time>2026-04-03T11:19:10.916Z</time></trkpt><trkpt lat="43.376505" lon="11.9809283"><ele>697.6</ele><time>2026-04-03T11:19:11.916Z</time></trkpt><trkpt lat="43.376455" lon="11.9810517"><ele>698.2</ele><time>2026-04-03T11:19:12.915Z</time></trkpt><trkpt lat="43.37641" lon="11.9811917"><ele>698.8</ele><time>2026-04-03T11:19:13.915Z</time></trkpt><trkpt lat="43.3763983" lon="11.981315"><ele>699.4</ele><time>2026-04-03T11:19:14.915Z</time></trkpt><trkpt lat="43.3763983" lon="11.9814167"><ele>700.0</ele><time>2026-04-03T11:19:15.916Z</time></trkpt><trkpt lat="43.37649" lon="11.9815017"><ele>700.0</ele><time>2026-04-03T11:19:17.916Z</time></trkpt><trkpt lat="43.3765683" lon="11.9814933"><ele>700.0</ele><time>2026-04-03T11:19:18.915Z</time></trkpt><trkpt lat="43.3766467" lon="11.981475"><ele>700.0</ele><time>2026-04-03T11:19:19.915Z</time></trkpt><trkpt lat="43.3767333" lon="11.98145"><ele>700.0</ele><time>2026-04-03T11:19:20.916Z</time></trkpt><trkpt lat="43.3768217" lon="11.981435"><ele>700.0</ele><time>2026-04-03T11:19:21.916Z</time></trkpt><trkpt lat="43.376925" lon="11.9814267"><ele>700.0</ele><time>2026-04-03T11:19:22.915Z</time></trkpt><trkpt lat="43.37704" lon="11.98142"><ele>700.0</ele><time>2026-04-03T11:19:23.916Z</time></trkpt><trkpt lat="43.37717" lon="11.981415"><ele>700.0</ele><time>2026-04-03T11:19:24.915Z</time></trkpt><trkpt lat="43.3773083" lon="11.9814033"><ele>700.0</ele><time>2026-04-03T11:19:25.916Z</time></trkpt><trkpt lat="43.3774467" lon="11.9813833"><ele>700.0</ele><time>2026-04-03T11:19:26.916Z</time></trkpt><trkpt lat="43.377575" lon="11.9813533"><ele>701.0</ele><time>2026-04-03T11:19:27.915Z</time></trkpt><trkpt lat="43.37769" lon="11.9813367"><ele>702.0</ele><time>2026-04-03T11:19:28.915Z</time></trkpt><trkpt lat="43.3778017" lon="11.9813333"><ele>703.0</ele><time>2026-04-03T11:19:29.915Z</time></trkpt><trkpt lat="43.3779033" lon="11.981315"><ele>704.0</ele><time>2026-04-03T11:19:30.915Z</time></trkpt><trkpt lat="43.3779933" lon="11.9813083"><ele>705.0</ele><time>2026-04-03T11:19:31.916Z</time></trkpt><trkpt lat="43.378065" lon="11.9813333"><ele>706.8</ele><time>2026-04-03T11:19:32.916Z</time></trkpt><trkpt lat="43.3781467" lon="11.9813867"><ele>708.6</ele><time>2026-04-03T11:19:33.916Z</time></trkpt><trkpt lat="43.3782417" lon="11.981455"><ele>710.4000000000001</ele><time>2026-04-03T11:19:34.916Z</time></trkpt><trkpt lat="43.3783133" lon="11.9815083"><ele>712.2</ele><time>2026-04-03T11:19:35.915Z</time></trkpt><trkpt lat="43.378385" lon="11.9815867"><ele>714.0</ele><time>2026-04-03T11:19:37.915Z</time></trkpt><trkpt lat="43.3784317" lon="11.9816783"><ele>710.8000000000001</ele><time>2026-04-03T11:22:03.916Z</time></trkpt><trkpt lat="43.3785367" lon="11.98178"><ele>707.6</ele><time>2026-04-03T11:22:05.916Z</time></trkpt><trkpt lat="43.3786017" lon="11.981865"><ele>704.4</ele><time>2026-04-03T11:22:06.915Z</time></trkpt><trkpt lat="43.37867" lon="11.9819533"><ele>701.2</ele><time>2026-04-03T11:22:07.915Z</time></trkpt><trkpt lat="43.3787233" lon="11.9820233"><ele>698.0</ele><time>2026-04-03T11:22:08.915Z</time></trkpt><trkpt lat="43.3787917" lon="11.9821233"><ele>698.0</ele><time>2026-04-03T11:22:10.916Z</time></trkpt><trkpt lat="43.3788467" lon="11.98223"><ele>698.0</ele><time>2026-04-03T11:22:12.916Z</time></trkpt><trkpt lat="43.378885" lon="11.9823067"><ele>698.0</ele><time>2026-04-03T11:22:13.916Z</time></trkpt><trkpt lat="43.3789317" lon="11.9823917"><ele>698.0</ele><time>2026-04-03T11:22:14.915Z</time></trkpt><trkpt lat="43.3789733" lon="11.982475"><ele>698.0</ele><time>2026-04-03T11:22:15.915Z</time></trkpt><trkpt lat="43.379015" lon="11.98255"><ele>698.0</ele><time>2026-04-03T11:22:16.916Z</time></trkpt><trkpt lat="43.3790417" lon="11.9826517"><ele>702.5</ele><time>2026-04-03T11:22:17.916Z</time></trkpt><trkpt lat="43.3790567" lon="11.982745"><ele>707.0</ele><time>2026-04-03T11:22:18.916Z</time></trkpt><trkpt lat="43.37906" lon="11.9828483"><ele>711.5</ele><time>2026-04-03T11:22:19.916Z</time></trkpt><trkpt lat="43.37905" lon="11.9829467"><ele>716.0</ele><time>2026-04-03T11:22:20.915Z</time></trkpt><trkpt lat="43.3790267" lon="11.9830733"><ele>720.5</ele><time>2026-04-03T11:22:22.915Z</time></trkpt><trkpt lat="43.3790167" lon="11.983185"><ele>725.0</ele><time>2026-04-03T11:22:45.915Z</time></trkpt><trkpt lat="43.3789883" lon="11.9833283"><ele>723.8</ele><time>2026-04-03T11:22:47.916Z</time></trkpt><trkpt lat="43.3789583" lon="11.9835017"><ele>722.6</ele><time>2026-04-03T11:22:49.915Z</time></trkpt><trkpt lat="43.37895" lon="11.9836517"><ele>721.4000000000001</ele><time>2026-04-03T11:22:51.916Z</time></trkpt><trkpt lat="43.3789717" lon="11.983775"><ele>720.2</ele><time>2026-04-03T11:22:53.916Z</time></trkpt><trkpt lat="43.3789983" lon="11.9839083"><ele>719.0</ele><time>2026-04-03T11:22:55.916Z</time></trkpt><trkpt lat="43.37904" lon="11.984065"><ele>717.0</ele><time>2026-04-03T11:22:57.916Z</time></trkpt><trkpt lat="43.379095" lon="11.9841833"><ele>715.0</ele><time>2026-04-03T11:22:59.916Z</time></trkpt><trkpt lat="43.3791517" lon="11.98432"><ele>713.0</ele><time>2026-04-03T11:23:01.916Z</time></trkpt><trkpt lat="43.37924" lon="11.9844567"><ele>711.0</ele><time>2026-04-03T11:23:03.916Z</time></trkpt><trkpt lat="43.379295" lon="11.9845517"><ele>709.0</ele><time>2026-04-03T11:23:05.916Z</time></trkpt><trkpt lat="43.3793017" lon="11.9846483"><ele>709.0</ele><time>2026-04-03T11:23:08.916Z</time></trkpt><trkpt lat="43.3792317" lon="11.98468"><ele>709.0</ele><time>2026-04-03T11:23:12.916Z</time></trkpt><trkpt lat="43.3791433" lon="11.9846683"><ele>709.0</ele><time>2026-04-03T11:23:27.915Z</time></trkpt><trkpt lat="43.3790633" lon="11.9846517"><ele>709.0</ele><time>2026-04-03T11:23:29.915Z</time></trkpt><trkpt lat="43.3789583" lon="11.9846767"><ele>709.0</ele><time>2026-04-03T11:23:31.915Z</time></trkpt><trkpt lat="43.378905" lon="11.984795"><ele>709.0000000000001</ele><time>2026-04-03T11:23:33.915Z</time></trkpt><trkpt lat="43.3788917" lon="11.9848817"><ele>709.0</ele><time>2026-04-03T11:23:34.915Z</time></trkpt><trkpt lat="43.3788733" lon="11.9849717"><ele>709.0</ele><time>2026-04-03T11:23:35.915Z</time></trkpt><trkpt lat="43.378865" lon="11.9850583"><ele>709.0</ele><time>2026-04-03T11:23:36.916Z</time></trkpt><trkpt lat="43.378865" lon="11.9851467"><ele>709.0</ele><time>2026-04-03T11:23:37.915Z</time></trkpt><trkpt lat="43.3788767" lon="11.985235"><ele>709.0000000000001</ele><time>2026-04-03T11:23:38.916Z</time></trkpt><trkpt lat="43.3788867" lon="11.9853733"><ele>709.0</ele><time>2026-04-03T11:23:40.916Z</time></trkpt><trkpt lat="43.378865" lon="11.985505"><ele>703.6</ele><time>2026-04-03T11:23:42.915Z</time></trkpt><trkpt lat="43.37883" lon="11.9856367"><ele>698.2</ele><time>2026-04-03T11:23:44.915Z</time></trkpt><trkpt lat="43.378825" lon="11.9857617"><ele>692.8000000000001</ele><time>2026-04-03T11:23:46.916Z</time></trkpt><trkpt lat="43.3788233" lon="11.9859033"><ele>687.4000000000001</ele><time>2026-04-03T11:23:48.915Z</time></trkpt><trkpt lat="43.3787883" lon="11.98605"><ele>682.0</ele><time>2026-04-03T11:23:50.916Z</time></trkpt><trkpt lat="43.37875" lon="11.9861517"><ele>682.0</ele><time>2026-04-03T11:23:52.915Z</time></trkpt><trkpt lat="43.3787233" lon="11.9862683"><ele>682.0</ele><time>2026-04-03T11:23:54.916Z</time></trkpt><trkpt lat="43.37869" lon="11.9864233"><ele>682.0</ele><time>2026-04-03T11:23:56.915Z</time></trkpt><trkpt lat="43.3786667" lon="11.9865067"><ele>682.0</ele><time>2026-04-03T11:23:57.916Z</time></trkpt><trkpt lat="43.3786333" lon="11.9865883"><ele>682.0</ele><time>2026-04-03T11:23:58.916Z</time></trkpt><trkpt lat="43.3786067" lon="11.986675"><ele>682.0</ele><time>2026-04-03T11:23:59.916Z</time></trkpt><trkpt lat="43.3785817" lon="11.9867733"><ele>682.1666666666667</ele><time>2026-04-03T11:24:00.915Z</time></trkpt><trkpt lat="43.3785633" lon="11.986885"><ele>682.3333333333334</ele><time>2026-04-03T11:24:01.916Z</time></trkpt><trkpt lat="43.378555" lon="11.9870017"><ele>682.5</ele><time>2026-04-03T11:24:02.915Z</time></trkpt><trkpt lat="43.3785417" lon="11.98713"><ele>682.6666666666666</ele><time>2026-04-03T11:24:03.916Z</time></trkpt><trkpt lat="43.37853" lon="11.9872533"><ele>682.8333333333333</ele><time>2026-04-03T11:24:04.915Z</time></trkpt><trkpt lat="43.3785017" lon="11.9873617"><ele>683.0</ele><time>2026-04-03T11:24:05.916Z</time></trkpt><trkpt lat="43.3784633" lon="11.987475"><ele>682.3333333333333</ele><time>2026-04-03T11:24:06.915Z</time></trkpt><trkpt lat="43.3784267" lon="11.987575"><ele>681.6666666666666</ele><time>2026-04-03T11:24:07.915Z</time></trkpt><trkpt lat="43.37838" lon="11.9876733"><ele>681.0</ele><time>2026-04-03T11:24:08.915Z</time></trkpt><trkpt lat="43.378335" lon="11.9877633"><ele>680.3333333333334</ele><time>2026-04-03T11:24:09.916Z</time></trkpt><trkpt lat="43.3782933" lon="11.987855"><ele>679.6666666666667</ele><time>2026-04-03T11:24:10.915Z</time></trkpt><trkpt lat="43.3782533" lon="11.9879483"><ele>679.0</ele><time>2026-04-03T11:24:11.916Z</time></trkpt><trkpt lat="43.3782217" lon="11.9880383"><ele>679.0</ele><time>2026-04-03T11:24:12.916Z</time></trkpt><trkpt lat="43.3781883" lon="11.9881217"><ele>679.0</ele><time>2026-04-03T11:24:13.915Z</time></trkpt><trkpt lat="43.3781483" lon="11.9882833"><ele>679.0</ele><time>2026-04-03T11:24:15.915Z</time></trkpt><trkpt lat="43.3781417" lon="11.988435"><ele>679.0</ele><time>2026-04-03T11:24:17.915Z</time></trkpt><trkpt lat="43.3781933" lon="11.9885317"><ele>679.0</ele><time>2026-04-03T11:24:19.916Z</time></trkpt><trkpt lat="43.378245" lon="11.988645"><ele>677.5714285714286</ele><time>2026-04-03T11:24:21.915Z</time></trkpt><trkpt lat="43.3782033" lon="11.9887183"><ele>676.1428571428571</ele><time>2026-04-03T11:24:23.916Z</time></trkpt><trkpt lat="43.3781333" lon="11.9887117"><ele>674.7142857142858</ele><time>2026-04-03T11:24:26.915Z</time></trkpt><trkpt lat="43.3780567" lon="11.9886817"><ele>673.2857142857142</ele><time>2026-04-03T11:24:32.916Z</time></trkpt><trkpt lat="43.3779933" lon="11.988675"><ele>671.8571428571429</ele><time>2026-04-03T11:24:35.916Z</time></trkpt><trkpt lat="43.377925" lon="11.9887433"><ele>670.4285714285714</ele><time>2026-04-03T11:24:38.916Z</time></trkpt><trkpt lat="43.37788" lon="11.98883"><ele>669.0</ele><time>2026-04-03T11:24:42.915Z</time></trkpt><trkpt lat="43.3778633" lon="11.9889233"><ele>666.1428571428571</ele><time>2026-04-03T11:24:47.915Z</time></trkpt><trkpt lat="43.3778533" lon="11.98901"><ele>663.2857142857142</ele><time>2026-04-03T11:24:51.916Z</time></trkpt><trkpt lat="43.37779" lon="11.9890767"><ele>660.4285714285713</ele><time>2026-04-03T11:24:55.916Z</time></trkpt><trkpt lat="43.3777567" lon="11.9891733"><ele>657.5714285714286</ele><time>2026-04-03T11:24:58.916Z</time></trkpt><trkpt lat="43.37775" lon="11.9892767"><ele>654.7142857142857</ele><time>2026-04-03T11:25:01.915Z</time></trkpt><trkpt lat="43.3777133" lon="11.989365"><ele>651.8571428571428</ele><time>2026-04-03T11:25:11.916Z</time></trkpt><trkpt lat="43.3776617" lon="11.9894217"><ele>649.0</ele><time>2026-04-03T11:25:14.915Z</time></trkpt><trkpt lat="43.3776083" lon="11.9894783"><ele>647.8333333333334</ele><time>2026-04-03T11:25:17.916Z</time></trkpt><trkpt lat="43.3775517" lon="11.9895333"><ele>646.6666666666667</ele><time>2026-04-03T11:25:22.915Z</time></trkpt><trkpt lat="43.37748" lon="11.9896617"><ele>645.5</ele><time>2026-04-03T11:25:43.915Z</time></trkpt><trkpt lat="43.377425" lon="11.9897367"><ele>644.3333333333334</ele><time>2026-04-03T11:25:50.915Z</time></trkpt><trkpt lat="43.37736" lon="11.9898183"><ele>643.1666666666666</ele><time>2026-04-03T11:25:54.916Z</time></trkpt><trkpt lat="43.3772917" lon="11.9899017"><ele>642.0</ele><time>2026-04-03T11:25:57.915Z</time></trkpt><trkpt lat="43.3772267" lon="11.9899517"><ele>637.0</ele><time>2026-04-03T11:26:00.915Z</time></trkpt><trkpt lat="43.3771667" lon="11.9900117"><ele>632.0</ele><time>2026-04-03T11:26:03.915Z</time></trkpt><trkpt lat="43.3771083" lon="11.9900683"><ele>627.0</ele><time>2026-04-03T11:26:05.916Z</time></trkpt><trkpt lat="43.377055" lon="11.990125"><ele>622.0</ele><time>2026-04-03T11:26:07.916Z</time></trkpt><trkpt lat="43.3769983" lon="11.99021"><ele>617.0</ele><time>2026-04-03T11:26:09.915Z</time></trkpt><trkpt lat="43.3769467" lon="11.9902933"><ele>612.0</ele><time>2026-04-03T11:26:11.916Z</time></trkpt><trkpt lat="43.37698" lon="11.990405"><ele>612.0</ele><time>2026-04-03T11:26:14.915Z</time></trkpt><trkpt lat="43.377035" lon="11.9904617"><ele>612.0</ele><time>2026-04-03T11:26:16.916Z</time></trkpt><trkpt lat="43.3771067" lon="11.9905067"><ele>612.0</ele><time>2026-04-03T11:37:51.915Z</time></trkpt><trkpt lat="43.3771967" lon="11.9905117"><ele>612.0</ele><time>2026-04-03T11:37:54.915Z</time></trkpt><trkpt lat="43.3772583" lon="11.9904617"><ele>612.0</ele><time>2026-04-03T11:37:57.915Z</time></trkpt><trkpt lat="43.3773167" lon="11.99039"><ele>612.0</ele><time>2026-04-03T11:38:00.914Z</time></trkpt><trkpt lat="43.377375" lon="11.990425"><ele>614.1666666666666</ele><time>2026-04-03T11:38:02.914Z</time></trkpt><trkpt lat="43.37742" lon="11.99054"><ele>616.3333333333334</ele><time>2026-04-03T11:38:04.915Z</time></trkpt><trkpt lat="43.3774383" lon="11.9906733"><ele>618.5</ele><time>2026-04-03T11:38:06.914Z</time></trkpt><trkpt lat="43.3774533" lon="11.9907817"><ele>620.6666666666667</ele><time>2026-04-03T11:38:08.915Z</time></trkpt><trkpt lat="43.3774517" lon="11.9908783"><ele>622.8333333333334</ele><time>2026-04-03T11:38:10.914Z</time></trkpt><trkpt lat="43.3774317" lon="11.9909633"><ele>625.0</ele><time>2026-04-03T11:38:12.915Z</time></trkpt><trkpt lat="43.3773933" lon="11.99108"><ele>625.0</ele><time>2026-04-03T11:38:15.915Z</time></trkpt><trkpt lat="43.3773667" lon="11.9911617"><ele>625.0</ele><time>2026-04-03T11:38:17.914Z</time></trkpt><trkpt lat="43.37734" lon="11.9912817"><ele>625.0</ele><time>2026-04-03T11:38:20.915Z</time></trkpt><trkpt lat="43.3772983" lon="11.9913817"><ele>625.0</ele><time>2026-04-03T11:38:23.914Z</time></trkpt><trkpt lat="43.377265" lon="11.9914833"><ele>625.0</ele><time>2026-04-03T11:38:25.915Z</time></trkpt><trkpt lat="43.3772167" lon="11.9915683"><ele>625.0</ele><time>2026-04-03T11:38:27.915Z</time></trkpt><trkpt lat="43.3771633" lon="11.9916417"><ele>620.6666666666667</ele><time>2026-04-03T11:38:29.915Z</time></trkpt><trkpt lat="43.3771017" lon="11.9917133"><ele>616.3333333333334</ele><time>2026-04-03T11:38:31.915Z</time></trkpt><trkpt lat="43.3770767" lon="11.991815"><ele>612.0</ele><time>2026-04-03T11:38:34.914Z</time></trkpt><trkpt lat="43.3770483" lon="11.99191"><ele>607.6666666666666</ele><time>2026-04-03T11:38:37.915Z</time></trkpt><trkpt lat="43.37702" lon="11.9919883"><ele>603.3333333333333</ele><time>2026-04-03T11:38:40.915Z</time></trkpt><trkpt lat="43.3770067" lon="11.9920933"><ele>599.0</ele><time>2026-04-03T11:38:43.914Z</time></trkpt><trkpt lat="43.3769867" lon="11.9921933"><ele>599.0</ele><time>2026-04-03T11:38:48.914Z</time></trkpt><trkpt lat="43.37697" lon="11.9923083"><ele>599.0</ele><time>2026-04-03T11:38:52.914Z</time></trkpt><trkpt lat="43.3769583" lon="11.9924367"><ele>599.0</ele><time>2026-04-03T11:38:55.914Z</time></trkpt><trkpt lat="43.3769483" lon="11.9925433"><ele>599.0</ele><time>2026-04-03T11:38:57.915Z</time></trkpt><trkpt lat="43.3769367" lon="11.9926517"><ele>599.0</ele><time>2026-04-03T11:38:59.915Z</time></trkpt><trkpt lat="43.3769317" lon="11.9927467"><ele>599.0</ele><time>2026-04-03T11:39:01.914Z</time></trkpt><trkpt lat="43.3769133" lon="11.9928367"><ele>598.6</ele><time>2026-04-03T11:39:03.914Z</time></trkpt><trkpt lat="43.3769067" lon="11.99297"><ele>598.2</ele><time>2026-04-03T11:39:05.915Z</time></trkpt><trkpt lat="43.37688" lon="11.9931083"><ele>597.8000000000001</ele><time>2026-04-03T11:39:07.914Z</time></trkpt><trkpt lat="43.3768717" lon="11.9932417"><ele>597.4</ele><time>2026-04-03T11:39:09.915Z</time></trkpt><trkpt lat="43.3768433" lon="11.9933433"><ele>597.0</ele><time>2026-04-03T11:39:12.915Z</time></trkpt><trkpt lat="43.3768267" lon="11.9934833"><ele>597.8000000000001</ele><time>2026-04-03T11:39:20.915Z</time></trkpt><trkpt lat="43.3768183" lon="11.9935917"><ele>598.6</ele><time>2026-04-03T11:39:22.915Z</time></trkpt><trkpt lat="43.3768133" lon="11.99371"><ele>599.4000000000001</ele><time>2026-04-03T11:39:24.914Z</time></trkpt><trkpt lat="43.376825" lon="11.993825"><ele>600.2</ele><time>2026-04-03T11:39:26.914Z</time></trkpt><trkpt lat="43.3768083" lon="11.9939583"><ele>601.0</ele><time>2026-04-03T11:39:28.914Z</time></trkpt><trkpt lat="43.376745" lon="11.994075"><ele>601.0</ele><time>2026-04-03T11:39:30.915Z</time></trkpt><trkpt lat="43.3766833" lon="11.9941267"><ele>601.0</ele><time>2026-04-03T11:39:31.914Z</time></trkpt><trkpt lat="43.3766133" lon="11.9942033"><ele>601.0</ele><time>2026-04-03T11:39:32.914Z</time></trkpt><trkpt lat="43.3765617" lon="11.9943017"><ele>601.0</ele><time>2026-04-03T11:39:33.914Z</time></trkpt><trkpt lat="43.37652" lon="11.9944017"><ele>601.0</ele><time>2026-04-03T11:39:34.915Z</time></trkpt><trkpt lat="43.3764767" lon="11.994495"><ele>601.0</ele><time>2026-04-03T11:39:35.915Z</time></trkpt><trkpt lat="43.376435" lon="11.9945817"><ele>600.1666666666667</ele><time>2026-04-03T11:39:36.915Z</time></trkpt><trkpt lat="43.3763967" lon="11.9946533"><ele>599.3333333333334</ele><time>2026-04-03T11:39:37.915Z</time></trkpt><trkpt lat="43.3763567" lon="11.99474"><ele>598.5</ele><time>2026-04-03T11:39:38.914Z</time></trkpt><trkpt lat="43.3763133" lon="11.994835"><ele>597.6666666666666</ele><time>2026-04-03T11:39:39.914Z</time></trkpt><trkpt lat="43.3762833" lon="11.9949533"><ele>596.8333333333333</ele><time>2026-04-03T11:39:40.914Z</time></trkpt><trkpt lat="43.3762567" lon="11.9950633"><ele>596.0</ele><time>2026-04-03T11:39:41.914Z</time></trkpt><trkpt lat="43.3762433" lon="11.995175"><ele>596.0</ele><time>2026-04-03T11:39:42.914Z</time></trkpt><trkpt lat="43.3762467" lon="11.9952767"><ele>596.0</ele><time>2026-04-03T11:39:43.915Z</time></trkpt><trkpt lat="43.3762383" lon="11.9953833"><ele>596.0</ele><time>2026-04-03T11:39:44.914Z</time></trkpt><trkpt lat="43.3761967" lon="11.99552"><ele>596.0</ele><time>2026-04-03T11:39:45.915Z</time></trkpt><trkpt lat="43.3761367" lon="11.9956517"><ele>596.0</ele><time>2026-04-03T11:39:46.915Z</time></trkpt><trkpt lat="43.376065" lon="11.9957783"><ele>597.1666666666666</ele><time>2026-04-03T11:39:47.914Z</time></trkpt><trkpt lat="43.375995" lon="11.9958833"><ele>598.3333333333333</ele><time>2026-04-03T11:39:48.915Z</time></trkpt><trkpt lat="43.3759383" lon="11.995955"><ele>599.5</ele><time>2026-04-03T11:39:49.915Z</time></trkpt><trkpt lat="43.37587" lon="11.9960117"><ele>600.6666666666666</ele><time>2026-04-03T11:39:50.915Z</time></trkpt><trkpt lat="43.3758017" lon="11.9960483"><ele>601.8333333333334</ele><time>2026-04-03T11:39:51.915Z</time></trkpt><trkpt lat="43.375705" lon="11.996055"><ele>603.0</ele><time>2026-04-03T11:39:53.914Z</time></trkpt><trkpt lat="43.37563" lon="11.9960317"><ele>603.0</ele><time>2026-04-03T11:39:55.915Z</time></trkpt><trkpt lat="43.3755717" lon="11.995995"><ele>603.0</ele><time>2026-04-03T11:39:57.915Z</time></trkpt><trkpt lat="43.3755017" lon="11.9959383"><ele>603.0</ele><time>2026-04-03T11:40:25.915Z</time></trkpt><trkpt lat="43.3754233" lon="11.995895"><ele>603.0</ele><time>2026-04-03T11:40:27.914Z</time></trkpt><trkpt lat="43.3753583" lon="11.9958733"><ele>603.0</ele><time>2026-04-03T11:40:28.914Z</time></trkpt><trkpt lat="43.3752767" lon="11.9958517"><ele>603.0</ele><time>2026-04-03T11:40:29.915Z</time></trkpt><trkpt lat="43.3751917" lon="11.9958333"><ele>601.0</ele><time>2026-04-03T11:40:30.914Z</time></trkpt><trkpt lat="43.375105" lon="11.9958233"><ele>599.0</ele><time>2026-04-03T11:40:31.915Z</time></trkpt><trkpt lat="43.37502" lon="11.9958117"><ele>597.0</ele><time>2026-04-03T11:40:32.914Z</time></trkpt><trkpt lat="43.37494" lon="11.9958017"><ele>595.0</ele><time>2026-04-03T11:40:33.915Z</time></trkpt><trkpt lat="43.3748733" lon="11.9957967"><ele>593.0</ele><time>2026-04-03T11:40:34.914Z</time></trkpt><trkpt lat="43.3748083" lon="11.9957967"><ele>591.0</ele><time>2026-04-03T11:40:35.914Z</time></trkpt><trkpt lat="43.37474" lon="11.9958017"><ele>589.5</ele><time>2026-04-03T11:40:36.914Z</time></trkpt><trkpt lat="43.3746667" lon="11.9957983"><ele>588.0</ele><time>2026-04-03T11:40:37.915Z</time></trkpt><trkpt lat="43.3745467" lon="11.995765"><ele>586.5</ele><time>2026-04-03T11:40:39.915Z</time></trkpt><trkpt lat="43.3744867" lon="11.9957217"><ele>585.0</ele><time>2026-04-03T11:40:40.914Z</time></trkpt><trkpt lat="43.3744167" lon="11.9956583"><ele>583.5</ele><time>2026-04-03T11:40:41.915Z</time></trkpt><trkpt lat="43.3743417" lon="11.995595"><ele>582.0</ele><time>2026-04-03T11:40:42.914Z</time></trkpt><trkpt lat="43.3742583" lon="11.9955517"><ele>582.0</ele><time>2026-04-03T11:40:43.914Z</time></trkpt><trkpt lat="43.3741717" lon="11.995525"><ele>582.0</ele><time>2026-04-03T11:40:44.915Z</time></trkpt><trkpt lat="43.3740667" lon="11.995505"><ele>582.0</ele><time>2026-04-03T11:40:45.914Z</time></trkpt><trkpt lat="43.373965" lon="11.9955067"><ele>582.0</ele><time>2026-04-03T11:40:46.915Z</time></trkpt><trkpt lat="43.3738667" lon="11.9955083"><ele>582.0</ele><time>2026-04-03T11:40:47.914Z</time></trkpt><trkpt lat="43.3737767" lon="11.9954933"><ele>580.6</ele><time>2026-04-03T11:40:48.914Z</time></trkpt><trkpt lat="43.373695" lon="11.9954967"><ele>579.2</ele><time>2026-04-03T11:40:49.915Z</time></trkpt><trkpt lat="43.3736167" lon="11.9955183"><ele>577.8</ele><time>2026-04-03T11:40:50.915Z</time></trkpt><trkpt lat="43.3735333" lon="11.9955517"><ele>576.4</ele><time>2026-04-03T11:40:51.914Z</time></trkpt><trkpt lat="43.3734433" lon="11.9956017"><ele>575.0</ele><time>2026-04-03T11:40:52.915Z</time></trkpt><trkpt lat="43.37334" lon="11.9956933"><ele>575.0</ele><time>2026-04-03T11:40:53.914Z</time></trkpt><trkpt lat="43.3732417" lon="11.9958017"><ele>575.0</ele><time>2026-04-03T11:40:54.914Z</time></trkpt><trkpt lat="43.3731633" lon="11.9959117"><ele>575.0</ele><time>2026-04-03T11:40:55.915Z</time></trkpt><trkpt lat="43.3730917" lon="11.9960133"><ele>575.0</ele><time>2026-04-03T11:40:56.914Z</time></trkpt><trkpt lat="43.37303" lon="11.9961133"><ele>575.0</ele><time>2026-04-03T11:40:57.915Z</time></trkpt><trkpt lat="43.3729617" lon="11.9962083"><ele>573.6</ele><time>2026-04-03T11:40:58.914Z</time></trkpt><trkpt lat="43.3729" lon="11.9963117"><ele>572.2</ele><time>2026-04-03T11:40:59.914Z</time></trkpt><trkpt lat="43.3728433" lon="11.9964183"><ele>570.8</ele><time>2026-04-03T11:41:00.914Z</time></trkpt><trkpt lat="43.3727817" lon="11.9965233"><ele>569.4</ele><time>2026-04-03T11:41:01.915Z</time></trkpt><trkpt lat="43.372715" lon="11.9966133"><ele>568.0</ele><time>2026-04-03T11:41:02.915Z</time></trkpt><trkpt lat="43.372655" lon="11.9966733"><ele>568.0</ele><time>2026-04-03T11:41:03.914Z</time></trkpt><trkpt lat="43.37259" lon="11.9967267"><ele>568.0</ele><time>2026-04-03T11:41:04.915Z</time></trkpt><trkpt lat="43.372515" lon="11.9967833"><ele>568.0</ele><time>2026-04-03T11:41:05.914Z</time></trkpt><trkpt lat="43.372445" lon="11.99685"><ele>568.0</ele><time>2026-04-03T11:41:06.914Z</time></trkpt><trkpt lat="43.3723833" lon="11.9969317"><ele>568.0</ele><time>2026-04-03T11:41:07.915Z</time></trkpt><trkpt lat="43.3723333" lon="11.9970133"><ele>568.0</ele><time>2026-04-03T11:41:08.914Z</time></trkpt><trkpt lat="43.3722817" lon="11.9970867"><ele>568.0</ele><time>2026-04-03T11:41:09.914Z</time></trkpt><trkpt lat="43.3722067" lon="11.9971567"><ele>568.0</ele><time>2026-04-03T11:41:11.914Z</time></trkpt><trkpt lat="43.37212" lon="11.9971433"><ele>568.0</ele><time>2026-04-03T11:41:14.914Z</time></trkpt><trkpt lat="43.3720433" lon="11.997135"><ele>568.0</ele><time>2026-04-03T11:41:16.915Z</time></trkpt><trkpt lat="43.3719583" lon="11.997105"><ele>568.0</ele><time>2026-04-03T11:41:18.915Z</time></trkpt><trkpt lat="43.3718583" lon="11.9970267"><ele>563.1999999999999</ele><time>2026-04-03T11:41:20.914Z</time></trkpt><trkpt lat="43.371745" lon="11.9970233"><ele>558.4</ele><time>2026-04-03T11:41:22.914Z</time></trkpt><trkpt lat="43.3716567" lon="11.9971283"><ele>553.5999999999999</ele><time>2026-04-03T11:41:24.914Z</time></trkpt><trkpt lat="43.3716167" lon="11.997205"><ele>548.8</ele><time>2026-04-03T11:41:25.915Z</time></trkpt><trkpt lat="43.3715317" lon="11.99732"><ele>544.0</ele><time>2026-04-03T11:41:27.915Z</time></trkpt><trkpt lat="43.3714433" lon="11.99736"><ele>539.3333333333334</ele><time>2026-04-03T11:41:29.914Z</time></trkpt><trkpt lat="43.3713367" lon="11.99729"><ele>534.6666666666667</ele><time>2026-04-03T11:41:31.914Z</time></trkpt><trkpt lat="43.3712883" lon="11.9972183"><ele>530.0</ele><time>2026-04-03T11:41:32.915Z</time></trkpt><trkpt lat="43.3712483" lon="11.9971183"><ele>525.3333333333334</ele><time>2026-04-03T11:41:33.915Z</time></trkpt><trkpt lat="43.3712133" lon="11.9970067"><ele>520.6666666666666</ele><time>2026-04-03T11:41:34.915Z</time></trkpt><trkpt lat="43.3711683" lon="11.9969083"><ele>516.0</ele><time>2026-04-03T11:41:35.915Z</time></trkpt><trkpt lat="43.3711183" lon="11.9968183"><ele>516.0</ele><time>2026-04-03T11:41:36.915Z</time></trkpt><trkpt lat="43.371065" lon="11.9966833"><ele>516.0</ele><time>2026-04-03T11:41:38.914Z</time></trkpt><trkpt lat="43.3710683" lon="11.99657"><ele>516.0</ele><time>2026-04-03T11:41:43.915Z</time></trkpt><trkpt lat="43.3710767" lon="11.9964617"><ele>516.0</ele><time>2026-04-03T11:41:45.914Z</time></trkpt><trkpt lat="43.3711067" lon="11.996315"><ele>516.0</ele><time>2026-04-03T11:41:47.915Z</time></trkpt><trkpt lat="43.37114" lon="11.9961467"><ele>517.2</ele><time>2026-04-03T11:41:49.914Z</time></trkpt><trkpt lat="43.3711633" lon="11.9960633"><ele>518.4000000000001</ele><time>2026-04-03T11:41:50.914Z</time></trkpt><trkpt lat="43.37121" lon="11.9959133"><ele>519.6</ele><time>2026-04-03T11:41:52.914Z</time></trkpt><trkpt lat="43.3712233" lon="11.9957867"><ele>520.8000000000001</ele><time>2026-04-03T11:41:54.915Z</time></trkpt><trkpt lat="43.3711467" lon="11.9956783"><ele>522.0</ele><time>2026-04-03T11:41:57.914Z</time></trkpt><trkpt lat="43.3710917" lon="11.9956283"><ele>522.0</ele><time>2026-04-03T11:41:58.915Z</time></trkpt><trkpt lat="43.3710367" lon="11.9955633"><ele>522.0</ele><time>2026-04-03T11:41:59.914Z</time></trkpt><trkpt lat="43.3709867" lon="11.995495"><ele>522.0</ele><time>2026-04-03T11:42:00.914Z</time></trkpt><trkpt lat="43.3709417" lon="11.9954233"><ele>522.0</ele><time>2026-04-03T11:42:01.914Z</time></trkpt><trkpt lat="43.3708867" lon="11.9953667"><ele>522.0</ele><time>2026-04-03T11:42:02.915Z</time></trkpt><trkpt lat="43.3708167" lon="11.99532"><ele>522.0</ele><time>2026-04-03T11:42:03.914Z</time></trkpt><trkpt lat="43.3707383" lon="11.995295"><ele>522.0</ele><time>2026-04-03T11:42:04.914Z</time></trkpt><trkpt lat="43.3706567" lon="11.995295"><ele>522.0</ele><time>2026-04-03T11:42:05.914Z</time></trkpt><trkpt lat="43.37057" lon="11.9953083"><ele>522.0</ele><time>2026-04-03T11:42:06.915Z</time></trkpt><trkpt lat="43.3704983" lon="11.995305"><ele>522.0</ele><time>2026-04-03T11:42:07.915Z</time></trkpt><trkpt lat="43.3704267" lon="11.9952733"><ele>522.0</ele><time>2026-04-03T11:42:08.915Z</time></trkpt><trkpt lat="43.3703717" lon="11.9952033"><ele>522.0</ele><time>2026-04-03T11:42:09.914Z</time></trkpt><trkpt lat="43.3702867" lon="11.9951067"><ele>522.0</ele><time>2026-04-03T11:42:10.914Z</time></trkpt><trkpt lat="43.3701683" lon="11.9950167"><ele>518.6666666666666</ele><time>2026-04-03T11:42:11.914Z</time></trkpt><trkpt lat="43.3700583" lon="11.9949533"><ele>515.3333333333334</ele><time>2026-04-03T11:42:12.915Z</time></trkpt><trkpt lat="43.369975" lon="11.9949117"><ele>512.0</ele><time>2026-04-03T11:42:13.914Z</time></trkpt><trkpt lat="43.369905" lon="11.9948833"><ele>508.6666666666667</ele><time>2026-04-03T11:42:15.915Z</time></trkpt><trkpt lat="43.369835" lon="11.9948717"><ele>505.33333333333337</ele><time>2026-04-03T11:42:19.915Z</time></trkpt><trkpt lat="43.3697467" lon="11.994855"><ele>502.0</ele><time>2026-04-03T11:42:22.914Z</time></trkpt><trkpt lat="43.3696467" lon="11.9948217"><ele>501.33333333333337</ele><time>2026-04-03T11:42:24.915Z</time></trkpt><trkpt lat="43.3695783" lon="11.9947983"><ele>500.6666666666667</ele><time>2026-04-03T11:42:25.915Z</time></trkpt><trkpt lat="43.3695033" lon="11.9947583"><ele>500.0</ele><time>2026-04-03T11:42:26.915Z</time></trkpt><trkpt lat="43.3694283" lon="11.994725"><ele>499.33333333333337</ele><time>2026-04-03T11:42:27.915Z</time></trkpt><trkpt lat="43.3693533" lon="11.994695"><ele>498.6666666666667</ele><time>2026-04-03T11:42:28.915Z</time></trkpt><trkpt lat="43.3692733" lon="11.9946783"><ele>498.0</ele><time>2026-04-03T11:42:29.915Z</time></trkpt><trkpt lat="43.3691967" lon="11.9946667"><ele>498.0</ele><time>2026-04-03T11:42:30.915Z</time></trkpt><trkpt lat="43.36912" lon="11.9946317"><ele>498.0</ele><time>2026-04-03T11:42:31.914Z</time></trkpt><trkpt lat="43.369045" lon="11.99458"><ele>498.0</ele><time>2026-04-03T11:42:32.915Z</time></trkpt><trkpt lat="43.3689733" lon="11.9945333"><ele>498.0</ele><time>2026-04-03T11:42:33.914Z</time></trkpt><trkpt lat="43.3689017" lon="11.9944817"><ele>498.0</ele><time>2026-04-03T11:42:34.915Z</time></trkpt><trkpt lat="43.3688367" lon="11.99442"><ele>498.0</ele><time>2026-04-03T11:42:35.914Z</time></trkpt><trkpt lat="43.3687717" lon="11.9943683"><ele>494.6666666666667</ele><time>2026-04-03T11:42:36.914Z</time></trkpt><trkpt lat="43.3687033" lon="11.994325"><ele>491.33333333333337</ele><time>2026-04-03T11:42:37.915Z</time></trkpt><trkpt lat="43.3686133" lon="11.994285"><ele>488.0</ele><time>2026-04-03T11:42:38.914Z</time></trkpt><trkpt lat="43.3685367" lon="11.9942467"><ele>484.6666666666667</ele><time>2026-04-03T11:42:39.915Z</time></trkpt><trkpt lat="43.36847" lon="11.9942183"><ele>481.33333333333337</ele><time>2026-04-03T11:42:40.914Z</time></trkpt><trkpt lat="43.368365" lon="11.99421"><ele>478.0</ele><time>2026-04-03T11:42:42.914Z</time></trkpt><trkpt lat="43.368255" lon="11.9942417"><ele>478.00000000000006</ele><time>2026-04-03T11:42:44.915Z</time></trkpt><trkpt lat="43.3681833" lon="11.9942267"><ele>478.0</ele><time>2026-04-03T11:42:46.915Z</time></trkpt><trkpt lat="43.3681767" lon="11.9940967"><ele>478.0</ele><time>2026-04-03T11:42:48.914Z</time></trkpt><trkpt lat="43.3681883" lon="11.9940017"><ele>478.0</ele><time>2026-04-03T11:42:49.914Z</time></trkpt><trkpt lat="43.3682133" lon="11.9938967"><ele>478.00000000000006</ele><time>2026-04-03T11:42:50.915Z</time></trkpt><trkpt lat="43.3682483" lon="11.9938083"><ele>478.0</ele><time>2026-04-03T11:42:51.915Z</time></trkpt><trkpt lat="43.36828" lon="11.99369"><ele>477.59999999999997</ele><time>2026-04-03T11:42:53.915Z</time></trkpt><trkpt lat="43.3681767" lon="11.9936417"><ele>477.19999999999993</ele><time>2026-04-03T11:42:56.915Z</time></trkpt><trkpt lat="43.3680983" lon="11.9936617"><ele>476.8</ele><time>2026-04-03T11:42:57.914Z</time></trkpt><trkpt lat="43.3680117" lon="11.993685"><ele>476.4</ele><time>2026-04-03T11:42:58.915Z</time></trkpt><trkpt lat="43.3679233" lon="11.993705"><ele>476.0</ele><time>2026-04-03T11:42:59.914Z</time></trkpt><trkpt lat="43.36784" lon="11.993715"><ele>471.66666666666663</ele><time>2026-04-03T11:43:00.914Z</time></trkpt><trkpt lat="43.36773" lon="11.9936767"><ele>467.3333333333333</ele><time>2026-04-03T11:43:02.915Z</time></trkpt><trkpt lat="43.3676683" lon="11.9936183"><ele>463.0</ele><time>2026-04-03T11:43:03.915Z</time></trkpt><trkpt lat="43.3676117" lon="11.99355"><ele>458.66666666666663</ele><time>2026-04-03T11:43:04.914Z</time></trkpt><trkpt lat="43.3675617" lon="11.9934617"><ele>454.3333333333333</ele><time>2026-04-03T11:43:05.914Z</time></trkpt><trkpt lat="43.3675183" lon="11.9933983"><ele>450.0</ele><time>2026-04-03T11:43:06.915Z</time></trkpt><trkpt lat="43.367405" lon="11.9933383"><ele>450.0</ele><time>2026-04-03T11:43:08.914Z</time></trkpt><trkpt lat="43.3673" lon="11.9933767"><ele>450.0</ele><time>2026-04-03T11:43:10.914Z</time></trkpt><trkpt lat="43.3672233" lon="11.9934983"><ele>450.0</ele><time>2026-04-03T11:43:12.914Z</time></trkpt><trkpt lat="43.367205" lon="11.9936033"><ele>450.0</ele><time>2026-04-03T11:43:13.915Z</time></trkpt><trkpt lat="43.3671867" lon="11.9937167"><ele>450.0</ele><time>2026-04-03T11:43:14.915Z</time></trkpt><trkpt lat="43.3671683" lon="11.9938133"><ele>445.3333333333333</ele><time>2026-04-03T11:43:15.915Z</time></trkpt><trkpt lat="43.36714" lon="11.9939"><ele>440.66666666666663</ele><time>2026-04-03T11:43:16.915Z</time></trkpt><trkpt lat="43.3671117" lon="11.993985"><ele>436.0</ele><time>2026-04-03T11:43:17.915Z</time></trkpt><trkpt lat="43.367085" lon="11.994075"><ele>431.3333333333333</ele><time>2026-04-03T11:43:18.914Z</time></trkpt><trkpt lat="43.367055" lon="11.994165"><ele>426.66666666666663</ele><time>2026-04-03T11:43:19.914Z</time></trkpt><trkpt lat="43.36701" lon="11.9942917"><ele>422.0</ele><time>2026-04-03T11:43:21.915Z</time></trkpt><trkpt lat="43.36693" lon="11.9943483"><ele>422.0</ele><time>2026-04-03T11:43:24.914Z</time></trkpt><trkpt lat="43.366845" lon="11.9942917"><ele>422.0</ele><time>2026-04-03T11:43:26.914Z</time></trkpt><trkpt lat="43.3667517" lon="11.9941767"><ele>422.0</ele><time>2026-04-03T11:43:28.914Z</time></trkpt><trkpt lat="43.3666667" lon="11.9940767"><ele>422.0</ele><time>2026-04-03T11:43:30.914Z</time></trkpt><trkpt lat="43.366585" lon="11.9939583"><ele>422.0</ele><time>2026-04-03T11:43:32.914Z</time></trkpt><trkpt lat="43.3665283" lon="11.99382"><ele>422.0</ele><time>2026-04-03T11:43:34.915Z</time></trkpt><trkpt lat="43.36643" lon="11.993715"><ele>422.0</ele><time>2026-04-03T11:43:36.914Z</time></trkpt><trkpt lat="43.366365" lon="11.9936567"><ele>422.0</ele><time>2026-04-03T11:43:37.915Z</time></trkpt><trkpt lat="43.3663067" lon="11.9936"><ele>422.0</ele><time>2026-04-03T11:43:38.914Z</time></trkpt><trkpt lat="43.36622" lon="11.993475"><ele>417.8333333333333</ele><time>2026-04-03T11:43:40.914Z</time></trkpt><trkpt lat="43.366175" lon="11.9933933"><ele>413.66666666666663</ele><time>2026-04-03T11:43:41.914Z</time></trkpt><trkpt lat="43.366125" lon="11.9933117"><ele>409.5</ele><time>2026-04-03T11:43:42.914Z</time></trkpt><trkpt lat="43.366075" lon="11.9932417"><ele>405.33333333333337</ele><time>2026-04-03T11:43:43.915Z</time></trkpt><trkpt lat="43.3660267" lon="11.993185"><ele>401.1666666666667</ele><time>2026-04-03T11:43:44.914Z</time></trkpt><trkpt lat="43.3659167" lon="11.9930917"><ele>397.0</ele><time>2026-04-03T11:43:46.915Z</time></trkpt><trkpt lat="43.3658517" lon="11.99306"><ele>397.00000000000006</ele><time>2026-04-03T11:43:47.915Z</time></trkpt><trkpt lat="43.3657817" lon="11.993035"><ele>397.0</ele><time>2026-04-03T11:43:48.915Z</time></trkpt><trkpt lat="43.3657033" lon="11.9930017"><ele>397.0</ele><time>2026-04-03T11:43:49.914Z</time></trkpt><trkpt lat="43.3656333" lon="11.9929517"><ele>397.0</ele><time>2026-04-03T11:43:50.915Z</time></trkpt><trkpt lat="43.3655667" lon="11.9928817"><ele>397.00000000000006</ele><time>2026-04-03T11:43:51.914Z</time></trkpt><trkpt lat="43.3655117" lon="11.992795"><ele>397.0</ele><time>2026-04-03T11:43:52.915Z</time></trkpt><trkpt lat="43.365475" lon="11.9927067"><ele>393.33333333333337</ele><time>2026-04-03T11:43:53.915Z</time></trkpt><trkpt lat="43.36543" lon="11.9926133"><ele>389.6666666666667</ele><time>2026-04-03T11:43:54.914Z</time></trkpt><trkpt lat="43.3653917" lon="11.99252"><ele>386.0</ele><time>2026-04-03T11:43:55.914Z</time></trkpt><trkpt lat="43.36537" lon="11.9924283"><ele>382.33333333333337</ele><time>2026-04-03T11:43:56.914Z</time></trkpt><trkpt lat="43.365355" lon="11.9923367"><ele>378.6666666666667</ele><time>2026-04-03T11:43:57.915Z</time></trkpt><trkpt lat="43.3653317" lon="11.9922433"><ele>375.0</ele><time>2026-04-03T11:43:58.914Z</time></trkpt><trkpt lat="43.365325" lon="11.9920867"><ele>375.0</ele><time>2026-04-03T11:44:00.914Z</time></trkpt><trkpt lat="43.365315" lon="11.9919033"><ele>375.0</ele><time>2026-04-03T11:44:02.915Z</time></trkpt><trkpt lat="43.365305" lon="11.9918017"><ele>375.0</ele><time>2026-04-03T11:44:03.914Z</time></trkpt><trkpt lat="43.3652983" lon="11.9917017"><ele>375.0</ele><time>2026-04-03T11:44:04.914Z</time></trkpt><trkpt lat="43.3652883" lon="11.9916117"><ele>375.0</ele><time>2026-04-03T11:44:05.915Z</time></trkpt><trkpt lat="43.3652583" lon="11.9914617"><ele>374.6</ele><time>2026-04-03T11:44:07.914Z</time></trkpt><trkpt lat="43.36518" lon="11.9913367"><ele>374.2</ele><time>2026-04-03T11:44:09.915Z</time></trkpt><trkpt lat="43.3650617" lon="11.9912633"><ele>373.79999999999995</ele><time>2026-04-03T11:44:11.915Z</time></trkpt><trkpt lat="43.3649817" lon="11.9912583"><ele>373.4</ele><time>2026-04-03T11:44:12.914Z</time></trkpt><trkpt lat="43.3649067" lon="11.9912633"><ele>373.0</ele><time>2026-04-03T11:44:13.914Z</time></trkpt><trkpt lat="43.364825" lon="11.9912717"><ele>373.0</ele><time>2026-04-03T11:44:14.914Z</time></trkpt><trkpt lat="43.3647467" lon="11.9912783"><ele>373.0</ele><time>2026-04-03T11:44:15.914Z</time></trkpt><trkpt lat="43.3646783" lon="11.991265"><ele>373.0</ele><time>2026-04-03T11:44:16.915Z</time></trkpt><trkpt lat="43.3646133" lon="11.991235"><ele>373.0</ele><time>2026-04-03T11:44:17.915Z</time></trkpt><trkpt lat="43.3645517" lon="11.9911817"><ele>373.0</ele><time>2026-04-03T11:44:18.914Z</time></trkpt><trkpt lat="43.3644817" lon="11.991125"><ele>373.0</ele><time>2026-04-03T11:44:19.914Z</time></trkpt><trkpt lat="43.3644183" lon="11.9910667"><ele>373.0</ele><time>2026-04-03T11:44:20.915Z</time></trkpt><trkpt lat="43.36435" lon="11.9910067"><ele>370.0</ele><time>2026-04-03T11:44:21.914Z</time></trkpt><trkpt lat="43.36429" lon="11.9909467"><ele>367.0</ele><time>2026-04-03T11:44:22.914Z</time></trkpt><trkpt lat="43.3642367" lon="11.9908867"><ele>364.0</ele><time>2026-04-03T11:44:23.914Z</time></trkpt><trkpt lat="43.36418" lon="11.990825"><ele>361.0</ele><time>2026-04-03T11:44:24.914Z</time></trkpt><trkpt lat="43.3641317" lon="11.9907533"><ele>358.0</ele><time>2026-04-03T11:44:25.914Z</time></trkpt><trkpt lat="43.3640883" lon="11.9906767"><ele>355.0</ele><time>2026-04-03T11:44:26.915Z</time></trkpt><trkpt lat="43.364045" lon="11.9906"><ele>352.0</ele><time>2026-04-03T11:44:27.915Z</time></trkpt><trkpt lat="43.3639983" lon="11.990535"><ele>352.0</ele><time>2026-04-03T11:44:28.914Z</time></trkpt><trkpt lat="43.3639417" lon="11.99047"><ele>352.0</ele><time>2026-04-03T11:44:29.915Z</time></trkpt><trkpt lat="43.36388" lon="11.9904017"><ele>352.0</ele><time>2026-04-03T11:44:30.914Z</time></trkpt><trkpt lat="43.3638117" lon="11.9902383"><ele>352.0</ele><time>2026-04-03T11:44:32.915Z</time></trkpt><trkpt lat="43.36377" lon="11.990145"><ele>352.0</ele><time>2026-04-03T11:44:33.914Z</time></trkpt><trkpt lat="43.3636967" lon="11.9900117"><ele>351.0</ele><time>2026-04-03T11:44:35.915Z</time></trkpt><trkpt lat="43.363635" lon="11.989935"><ele>350.0</ele><time>2026-04-03T11:44:36.915Z</time></trkpt><trkpt lat="43.3635567" lon="11.9898667"><ele>349.0</ele><time>2026-04-03T11:44:37.914Z</time></trkpt><trkpt lat="43.3634667" lon="11.9898067"><ele>348.0</ele><time>2026-04-03T11:44:38.915Z</time></trkpt><trkpt lat="43.3633717" lon="11.9897417"><ele>347.0</ele><time>2026-04-03T11:44:39.915Z</time></trkpt><trkpt lat="43.363285" lon="11.989685"><ele>347.0</ele><time>2026-04-03T11:44:40.914Z</time></trkpt><trkpt lat="43.363195" lon="11.9896183"><ele>347.0</ele><time>2026-04-03T11:44:41.915Z</time></trkpt><trkpt lat="43.3631017" lon="11.98957"><ele>347.0</ele><time>2026-04-03T11:44:42.914Z</time></trkpt><trkpt lat="43.3629983" lon="11.9895167"><ele>347.0</ele><time>2026-04-03T11:44:43.914Z</time></trkpt><trkpt lat="43.3629" lon="11.9894767"><ele>347.0</ele><time>2026-04-03T11:44:44.914Z</time></trkpt><trkpt lat="43.3628" lon="11.9894283"><ele>344.40000000000003</ele><time>2026-04-03T11:44:45.914Z</time></trkpt><trkpt lat="43.3626967" lon="11.9893617"><ele>341.8</ele><time>2026-04-03T11:44:46.915Z</time></trkpt><trkpt lat="43.3626" lon="11.9892967"><ele>339.2</ele><time>2026-04-03T11:44:47.914Z</time></trkpt><trkpt lat="43.3625217" lon="11.989235"><ele>336.6</ele><time>2026-04-03T11:44:48.914Z</time></trkpt><trkpt lat="43.362445" lon="11.9891733"><ele>334.0</ele><time>2026-04-03T11:44:49.915Z</time></trkpt><trkpt lat="43.3623667" lon="11.9891217"><ele>333.8333333333333</ele><time>2026-04-03T11:44:50.915Z</time></trkpt><trkpt lat="43.3622983" lon="11.9890833"><ele>333.66666666666663</ele><time>2026-04-03T11:44:51.915Z</time></trkpt><trkpt lat="43.3622333" lon="11.98903"><ele>333.5</ele><time>2026-04-03T11:44:52.914Z</time></trkpt><trkpt lat="43.3621633" lon="11.98896"><ele>333.3333333333333</ele><time>2026-04-03T11:44:53.914Z</time></trkpt><trkpt lat="43.3620867" lon="11.988875"><ele>333.1666666666667</ele><time>2026-04-03T11:44:54.915Z</time></trkpt><trkpt lat="43.3620017" lon="11.9887917"><ele>333.0</ele><time>2026-04-03T11:44:55.915Z</time></trkpt><trkpt lat="43.3619067" lon="11.9887183"><ele>331.0</ele><time>2026-04-03T11:44:56.915Z</time></trkpt><trkpt lat="43.361815" lon="11.98864"><ele>329.0</ele><time>2026-04-03T11:44:57.915Z</time></trkpt><trkpt lat="43.3617233" lon="11.9885717"><ele>327.0</ele><time>2026-04-03T11:44:58.915Z</time></trkpt><trkpt lat="43.361635" lon="11.9885083"><ele>325.0</ele><time>2026-04-03T11:44:59.915Z</time></trkpt><trkpt lat="43.361545" lon="11.98846"><ele>323.0</ele><time>2026-04-03T11:45:00.914Z</time></trkpt><trkpt lat="43.361455" lon="11.98839"><ele>322.2</ele><time>2026-04-03T11:45:01.914Z</time></trkpt><trkpt lat="43.3613617" lon="11.988325"><ele>321.4</ele><time>2026-04-03T11:45:02.915Z</time></trkpt><trkpt lat="43.3612617" lon="11.988265"><ele>320.59999999999997</ele><time>2026-04-03T11:45:03.915Z</time></trkpt><trkpt lat="43.3611783" lon="11.98822"><ele>319.79999999999995</ele><time>2026-04-03T11:45:04.914Z</time></trkpt><trkpt lat="43.3610983" lon="11.9881967"><ele>319.0</ele><time>2026-04-03T11:45:05.915Z</time></trkpt><trkpt lat="43.361025" lon="11.9881833"><ele>319.0</ele><time>2026-04-03T11:45:06.915Z</time></trkpt><trkpt lat="43.36092" lon="11.9881583"><ele>319.0</ele><time>2026-04-03T11:45:08.915Z</time></trkpt><trkpt lat="43.3608617" lon="11.9881183"><ele>319.0</ele><time>2026-04-03T11:45:09.914Z</time></trkpt><trkpt lat="43.3608017" lon="11.9880733"><ele>319.0</ele><time>2026-04-03T11:45:10.915Z</time></trkpt><trkpt lat="43.3607317" lon="11.9880283"><ele>319.0</ele><time>2026-04-03T11:45:11.914Z</time></trkpt><trkpt lat="43.3606383" lon="11.9879767"><ele>319.0</ele><time>2026-04-03T11:45:13.915Z</time></trkpt><trkpt lat="43.3605633" lon="11.9879733"><ele>317.8</ele><time>2026-04-03T11:45:16.914Z</time></trkpt><trkpt lat="43.3605133" lon="11.98785"><ele>316.59999999999997</ele><time>2026-04-03T11:46:27.914Z</time></trkpt><trkpt lat="43.3604733" lon="11.987765"><ele>315.4</ele><time>2026-04-03T11:46:28.915Z</time></trkpt><trkpt lat="43.360415" lon="11.987645"><ele>314.2</ele><time>2026-04-03T11:46:29.915Z</time></trkpt><trkpt lat="43.360335" lon="11.9875117"><ele>313.0</ele><time>2026-04-03T11:46:30.915Z</time></trkpt><trkpt lat="43.36024" lon="11.987385"><ele>313.0</ele><time>2026-04-03T11:46:31.914Z</time></trkpt><trkpt lat="43.3601483" lon="11.987245"><ele>313.0</ele><time>2026-04-03T11:46:32.915Z</time></trkpt><trkpt lat="43.360085" lon="11.9871217"><ele>313.0</ele><time>2026-04-03T11:46:33.915Z</time></trkpt><trkpt lat="43.3600367" lon="11.9869867"><ele>313.0</ele><time>2026-04-03T11:46:34.914Z</time></trkpt><trkpt lat="43.3599833" lon="11.98684"><ele>311.75</ele><time>2026-04-03T11:46:35.915Z</time></trkpt><trkpt lat="43.35993" lon="11.986675"><ele>310.5</ele><time>2026-04-03T11:46:36.914Z</time></trkpt><trkpt lat="43.35987" lon="11.9864917"><ele>309.25</ele><time>2026-04-03T11:46:37.915Z</time></trkpt><trkpt lat="43.3598217" lon="11.9863333"><ele>308.0</ele><time>2026-04-03T11:46:38.914Z</time></trkpt><trkpt lat="43.3597733" lon="11.986205"><ele>308.0</ele><time>2026-04-03T11:46:39.915Z</time></trkpt><trkpt lat="43.3597083" lon="11.9860983"><ele>308.0</ele><time>2026-04-03T11:46:40.915Z</time></trkpt><trkpt lat="43.3596283" lon="11.98603"><ele>308.0</ele><time>2026-04-03T11:46:41.914Z</time></trkpt><trkpt lat="43.3595283" lon="11.985965"><ele>308.0</ele><time>2026-04-03T11:46:42.914Z</time></trkpt><trkpt lat="43.3594083" lon="11.9858867"><ele>308.0</ele><time>2026-04-03T11:46:43.914Z</time></trkpt><trkpt lat="43.3592967" lon="11.9857817"><ele>306.6666666666667</ele><time>2026-04-03T11:46:44.914Z</time></trkpt><trkpt lat="43.3591883" lon="11.98563"><ele>305.3333333333333</ele><time>2026-04-03T11:46:45.915Z</time></trkpt><trkpt lat="43.3590867" lon="11.98542"><ele>304.0</ele><time>2026-04-03T11:46:46.914Z</time></trkpt><trkpt lat="43.3589917" lon="11.9852067"><ele>304.0</ele><time>2026-04-03T11:46:47.915Z</time></trkpt><trkpt lat="43.3589167" lon="11.98503"><ele>304.0</ele><time>2026-04-03T11:46:48.915Z</time></trkpt><trkpt lat="43.3588517" lon="11.9848933"><ele>304.0</ele><time>2026-04-03T11:46:49.915Z</time></trkpt><trkpt lat="43.358795" lon="11.98476"><ele>304.0</ele><time>2026-04-03T11:46:50.915Z</time></trkpt><trkpt lat="43.3587233" lon="11.9846583"><ele>303.66666666666663</ele><time>2026-04-03T11:46:51.915Z</time></trkpt><trkpt lat="43.3586533" lon="11.9846"><ele>303.3333333333333</ele><time>2026-04-03T11:46:52.915Z</time></trkpt><trkpt lat="43.3585817" lon="11.9845633"><ele>303.0</ele><time>2026-04-03T11:46:53.915Z</time></trkpt><trkpt lat="43.358505" lon="11.9845267"><ele>302.6666666666667</ele><time>2026-04-03T11:46:55.915Z</time></trkpt><trkpt lat="43.35842" lon="11.98446"><ele>302.33333333333337</ele><time>2026-04-03T11:47:13.915Z</time></trkpt><trkpt lat="43.3583567" lon="11.9843967"><ele>302.0</ele><time>2026-04-03T11:47:15.915Z</time></trkpt><trkpt lat="43.3582867" lon="11.9843283"><ele>302.0</ele><time>2026-04-03T11:47:17.915Z</time></trkpt><trkpt lat="43.3581983" lon="11.9842667"><ele>302.0</ele><time>2026-04-03T11:47:19.915Z</time></trkpt><trkpt lat="43.3581117" lon="11.9841617"><ele>302.0</ele><time>2026-04-03T11:47:21.914Z</time></trkpt><trkpt lat="43.3580783" lon="11.9840883"><ele>302.0</ele><time>2026-04-03T11:47:22.914Z</time></trkpt><trkpt lat="43.3580467" lon="11.9839967"><ele>302.0</ele><time>2026-04-03T11:47:23.914Z</time></trkpt><trkpt lat="43.3580283" lon="11.9838767"><ele>302.0</ele><time>2026-04-03T11:47:24.914Z</time></trkpt><trkpt lat="43.35803" lon="11.9837117"><ele>301.8</ele><time>2026-04-03T11:47:25.915Z</time></trkpt><trkpt lat="43.3580483" lon="11.983535"><ele>301.6</ele><time>2026-04-03T11:47:26.915Z</time></trkpt><trkpt lat="43.3580667" lon="11.9833733"><ele>301.40000000000003</ele><time>2026-04-03T11:47:27.914Z</time></trkpt><trkpt lat="43.35807" lon="11.9832283"><ele>301.2</ele><time>2026-04-03T11:47:28.914Z</time></trkpt><trkpt lat="43.35806" lon="11.983115"><ele>301.0</ele><time>2026-04-03T11:47:29.914Z</time></trkpt><trkpt lat="43.3580533" lon="11.9829817"><ele>301.0</ele><time>2026-04-03T11:47:31.914Z</time></trkpt><trkpt lat="43.3580833" lon="11.982885"><ele>301.0</ele><time>2026-04-03T11:47:33.914Z</time></trkpt><trkpt lat="43.358145" lon="11.9827233"><ele>301.0</ele><time>2026-04-03T11:47:35.914Z</time></trkpt><trkpt lat="43.3581967" lon="11.9826167"><ele>301.0</ele><time>2026-04-03T11:47:36.914Z</time></trkpt><trkpt lat="43.35826" lon="11.9825033"><ele>301.0</ele><time>2026-04-03T11:47:37.915Z</time></trkpt><trkpt lat="43.3583233" lon="11.9823667"><ele>301.0</ele><time>2026-04-03T11:47:38.914Z</time></trkpt><trkpt lat="43.35837" lon="11.9822133"><ele>301.0</ele><time>2026-04-03T11:47:39.915Z</time></trkpt><trkpt lat="43.35841" lon="11.98205"><ele>301.0</ele><time>2026-04-03T11:47:40.915Z</time></trkpt><trkpt lat="43.358445" lon="11.9818683"><ele>301.0</ele><time>2026-04-03T11:47:41.914Z</time></trkpt><trkpt lat="43.3584683" lon="11.9816783"><ele>301.0</ele><time>2026-04-03T11:47:42.914Z</time></trkpt><trkpt lat="43.3584833" lon="11.981485"><ele>301.0</ele><time>2026-04-03T11:47:43.914Z</time></trkpt><trkpt lat="43.35851" lon="11.9813183"><ele>301.0</ele><time>2026-04-03T11:47:44.914Z</time></trkpt><trkpt lat="43.35855" lon="11.9811833"><ele>301.0</ele><time>2026-04-03T11:47:45.915Z</time></trkpt><trkpt lat="43.3586083" lon="11.9810833"><ele>301.0</ele><time>2026-04-03T11:47:46.914Z</time></trkpt><trkpt lat="43.3586683" lon="11.980995"><ele>301.0</ele><time>2026-04-03T11:47:47.914Z</time></trkpt><trkpt lat="43.3587183" lon="11.9809067"><ele>301.0</ele><time>2026-04-03T11:47:48.915Z</time></trkpt><trkpt lat="43.3587567" lon="11.9808233"><ele>301.0</ele><time>2026-04-03T11:47:49.914Z</time></trkpt><trkpt lat="43.358775" lon="11.980725"><ele>301.0</ele><time>2026-04-03T11:47:50.914Z</time></trkpt><trkpt lat="43.35879" lon="11.9806317"><ele>301.0</ele><time>2026-04-03T11:47:51.915Z</time></trkpt><trkpt lat="43.3588367" lon="11.9804933"><ele>301.8333333333333</ele><time>2026-04-03T11:47:53.915Z</time></trkpt><trkpt lat="43.3588283" lon="11.9803733"><ele>302.66666666666663</ele><time>2026-04-03T11:47:56.915Z</time></trkpt><trkpt lat="43.3587417" lon="11.9802833"><ele>303.5</ele><time>2026-04-03T11:47:58.915Z</time></trkpt><trkpt lat="43.3586883" lon="11.9802033"><ele>304.3333333333333</ele><time>2026-04-03T11:47:59.915Z</time></trkpt><trkpt lat="43.35864" lon="11.9801133"><ele>305.1666666666667</ele><time>2026-04-03T11:48:00.914Z</time></trkpt><trkpt lat="43.3585983" lon="11.9800133"><ele>306.0</ele><time>2026-04-03T11:48:01.915Z</time></trkpt><trkpt lat="43.3585517" lon="11.9799133"><ele>306.0</ele><time>2026-04-03T11:48:02.914Z</time></trkpt><trkpt lat="43.3584883" lon="11.9798233"><ele>306.0</ele><time>2026-04-03T11:48:03.915Z</time></trkpt><trkpt lat="43.3584033" lon="11.9797433"><ele>306.0</ele><time>2026-04-03T11:48:04.915Z</time></trkpt><trkpt lat="43.3582833" lon="11.97966"><ele>306.0</ele><time>2026-04-03T11:48:05.915Z</time></trkpt><trkpt lat="43.358165" lon="11.9795867"><ele>306.0</ele><time>2026-04-03T11:48:06.914Z</time></trkpt><trkpt lat="43.3580433" lon="11.9795267"><ele>306.0</ele><time>2026-04-03T11:48:07.914Z</time></trkpt><trkpt lat="43.3578933" lon="11.9794983"><ele>306.0</ele><time>2026-04-03T11:48:08.914Z</time></trkpt><trkpt lat="43.3577467" lon="11.97949"><ele>306.0</ele><time>2026-04-03T11:48:09.914Z</time></trkpt><trkpt lat="43.3576017" lon="11.9794883"><ele>304.6</ele><time>2026-04-03T11:48:10.915Z</time></trkpt><trkpt lat="43.3574733" lon="11.979495"><ele>303.20000000000005</ele><time>2026-04-03T11:48:11.914Z</time></trkpt><trkpt lat="43.3573617" lon="11.9794867"><ele>301.79999999999995</ele><time>2026-04-03T11:48:12.915Z</time></trkpt><trkpt lat="43.3572567" lon="11.9794683"><ele>300.4</ele><time>2026-04-03T11:48:13.914Z</time></trkpt><trkpt lat="43.3571583" lon="11.9794633"><ele>299.0</ele><time>2026-04-03T11:48:14.915Z</time></trkpt><trkpt lat="43.35707" lon="11.97948"><ele>298.1666666666667</ele><time>2026-04-03T11:48:15.914Z</time></trkpt><trkpt lat="43.35699" lon="11.9795467"><ele>297.33333333333337</ele><time>2026-04-03T11:48:16.915Z</time></trkpt><trkpt lat="43.356925" lon="11.9796283"><ele>296.5</ele><time>2026-04-03T11:48:17.915Z</time></trkpt><trkpt lat="43.356865" lon="11.9796967"><ele>295.6666666666667</ele><time>2026-04-03T11:48:18.915Z</time></trkpt><trkpt lat="43.3568017" lon="11.9797533"><ele>294.8333333333333</ele><time>2026-04-03T11:48:20.914Z</time></trkpt><trkpt lat="43.35675" lon="11.9798617"><ele>294.0</ele><time>2026-04-03T11:48:57.914Z</time></trkpt><trkpt lat="43.3566783" lon="11.980005"><ele>294.0</ele><time>2026-04-03T11:48:59.915Z</time></trkpt><trkpt lat="43.3566233" lon="11.9800867"><ele>294.0</ele><time>2026-04-03T11:49:00.915Z</time></trkpt><trkpt lat="43.35657" lon="11.9801867"><ele>294.0</ele><time>2026-04-03T11:49:01.915Z</time></trkpt><trkpt lat="43.3565317" lon="11.9802917"><ele>294.0</ele><time>2026-04-03T11:49:02.914Z</time></trkpt><trkpt lat="43.3564967" lon="11.9803967"><ele>294.0</ele><time>2026-04-03T11:49:03.915Z</time></trkpt><trkpt lat="43.35646" lon="11.9804867"><ele>294.0</ele><time>2026-04-03T11:49:04.915Z</time></trkpt><trkpt lat="43.356405" lon="11.9805533"><ele>293.8333333333333</ele><time>2026-04-03T11:49:05.915Z</time></trkpt><trkpt lat="43.35634" lon="11.98059"><ele>293.6666666666667</ele><time>2026-04-03T11:49:06.915Z</time></trkpt><trkpt lat="43.3562717" lon="11.980585"><ele>293.5</ele><time>2026-04-03T11:49:07.915Z</time></trkpt><trkpt lat="43.3562017" lon="11.980545"><ele>293.33333333333337</ele><time>2026-04-03T11:49:08.915Z</time></trkpt><trkpt lat="43.3561267" lon="11.9804617"><ele>293.1666666666667</ele><time>2026-04-03T11:49:09.914Z</time></trkpt><trkpt lat="43.356045" lon="11.9803667"><ele>293.0</ele><time>2026-04-03T11:49:10.914Z</time></trkpt><trkpt lat="43.3559467" lon="11.9802567"><ele>293.0</ele><time>2026-04-03T11:49:11.915Z</time></trkpt><trkpt lat="43.3558517" lon="11.9801317"><ele>293.0</ele><time>2026-04-03T11:49:12.915Z</time></trkpt><trkpt lat="43.3557333" lon="11.9800117"><ele>293.0</ele><time>2026-04-03T11:49:13.914Z</time></trkpt><trkpt lat="43.3555983" lon="11.9798983"><ele>293.0</ele><time>2026-04-03T11:49:14.914Z</time></trkpt><trkpt lat="43.3554467" lon="11.9798167"><ele>292.75</ele><time>2026-04-03T11:49:15.914Z</time></trkpt><trkpt lat="43.35532" lon="11.97976"><ele>292.5</ele><time>2026-04-03T11:49:16.915Z</time></trkpt><trkpt lat="43.3552" lon="11.9796917"><ele>292.25</ele><time>2026-04-03T11:49:17.914Z</time></trkpt><trkpt lat="43.3550967" lon="11.9796033"><ele>292.0</ele><time>2026-04-03T11:49:18.914Z</time></trkpt><trkpt lat="43.3550217" lon="11.9794983"><ele>292.0</ele><time>2026-04-03T11:49:19.915Z</time></trkpt><trkpt lat="43.354945" lon="11.9794233"><ele>292.0</ele><time>2026-04-03T11:49:20.914Z</time></trkpt><trkpt lat="43.354875" lon="11.9793883"><ele>292.0</ele><time>2026-04-03T11:49:21.914Z</time></trkpt><trkpt lat="43.3547917" lon="11.9794"><ele>292.0</ele><time>2026-04-03T11:49:22.915Z</time></trkpt><trkpt lat="43.354705" lon="11.97944"><ele>292.0</ele><time>2026-04-03T11:49:23.915Z</time></trkpt><trkpt lat="43.3546333" lon="11.9795033"><ele>292.0</ele><time>2026-04-03T11:49:24.914Z</time></trkpt><trkpt lat="43.3545833" lon="11.97961"><ele>291.66666666666663</ele><time>2026-04-03T11:49:25.914Z</time></trkpt><trkpt lat="43.3545667" lon="11.979715"><ele>291.3333333333333</ele><time>2026-04-03T11:49:26.915Z</time></trkpt><trkpt lat="43.3545317" lon="11.9798417"><ele>291.0</ele><time>2026-04-03T11:49:28.914Z</time></trkpt><trkpt lat="43.3544767" lon="11.9799033"><ele>290.6666666666667</ele><time>2026-04-03T11:49:30.915Z</time></trkpt><trkpt lat="43.35441" lon="11.979785"><ele>290.33333333333337</ele><time>2026-04-03T11:49:33.915Z</time></trkpt><trkpt lat="43.3543667" lon="11.979705"><ele>290.0</ele><time>2026-04-03T11:49:34.915Z</time></trkpt><trkpt lat="43.35431" lon="11.9796117"><ele>290.0</ele><time>2026-04-03T11:49:35.915Z</time></trkpt><trkpt lat="43.3542317" lon="11.979525"><ele>290.0</ele><time>2026-04-03T11:49:36.914Z</time></trkpt><trkpt lat="43.354145" lon="11.9794483"><ele>290.0</ele><time>2026-04-03T11:49:37.914Z</time></trkpt><trkpt lat="43.3540583" lon="11.9793833"><ele>290.0</ele><time>2026-04-03T11:49:38.915Z</time></trkpt><trkpt lat="43.3539683" lon="11.979305"><ele>290.0</ele><time>2026-04-03T11:49:39.915Z</time></trkpt><trkpt lat="43.3538833" lon="11.9792033"><ele>289.8</ele><time>2026-04-03T11:49:40.914Z</time></trkpt><trkpt lat="43.3538117" lon="11.9790917"><ele>289.6</ele><time>2026-04-03T11:49:41.915Z</time></trkpt><trkpt lat="43.35375" lon="11.9789767"><ele>289.4</ele><time>2026-04-03T11:49:42.915Z</time></trkpt><trkpt lat="43.3537067" lon="11.9788367"><ele>289.2</ele><time>2026-04-03T11:49:43.914Z</time></trkpt><trkpt lat="43.35366" lon="11.9786983"><ele>289.0</ele><time>2026-04-03T11:49:44.915Z</time></trkpt><trkpt lat="43.3536133" lon="11.97857"><ele>289.0</ele><time>2026-04-03T11:49:45.914Z</time></trkpt><trkpt lat="43.35357" lon="11.9784283"><ele>289.0</ele><time>2026-04-03T11:49:46.915Z</time></trkpt><trkpt lat="43.3535283" lon="11.9782967"><ele>289.0</ele><time>2026-04-03T11:49:47.914Z</time></trkpt><trkpt lat="43.3534933" lon="11.9781633"><ele>289.0</ele><time>2026-04-03T11:49:48.914Z</time></trkpt><trkpt lat="43.3534533" lon="11.9780283"><ele>289.0</ele><time>2026-04-03T11:49:49.914Z</time></trkpt><trkpt lat="43.3534167" lon="11.9778933"><ele>289.2</ele><time>2026-04-03T11:49:50.915Z</time></trkpt><trkpt lat="43.3533883" lon="11.9777583"><ele>289.4</ele><time>2026-04-03T11:49:51.915Z</time></trkpt><trkpt lat="43.35336" lon="11.97763"><ele>289.6</ele><time>2026-04-03T11:49:52.915Z</time></trkpt><trkpt lat="43.3533333" lon="11.9774967"><ele>289.8</ele><time>2026-04-03T11:49:53.915Z</time></trkpt><trkpt lat="43.353315" lon="11.977365"><ele>290.0</ele><time>2026-04-03T11:49:54.915Z</time></trkpt><trkpt lat="43.3532983" lon="11.977235"><ele>290.0</ele><time>2026-04-03T11:49:55.914Z</time></trkpt><trkpt lat="43.3532817" lon="11.9770917"><ele>290.0</ele><time>2026-04-03T11:49:56.915Z</time></trkpt><trkpt lat="43.3532767" lon="11.9769483"><ele>290.0</ele><time>2026-04-03T11:49:57.915Z</time></trkpt><trkpt lat="43.35327" lon="11.976795"><ele>290.0</ele><time>2026-04-03T11:49:58.914Z</time></trkpt><trkpt lat="43.3532567" lon="11.97664"><ele>290.0</ele><time>2026-04-03T11:49:59.914Z</time></trkpt><trkpt lat="43.3532383" lon="11.97648"><ele>290.0</ele><time>2026-04-03T11:50:00.914Z</time></trkpt><trkpt lat="43.3532183" lon="11.9763033"><ele>290.0</ele><time>2026-04-03T11:50:01.914Z</time></trkpt><trkpt lat="43.3531983" lon="11.9761117"><ele>290.0</ele><time>2026-04-03T11:50:02.914Z</time></trkpt><trkpt lat="43.35318" lon="11.9759217"><ele>290.0</ele><time>2026-04-03T11:50:03.914Z</time></trkpt><trkpt lat="43.3531467" lon="11.9757417"><ele>289.0</ele><time>2026-04-03T11:50:04.915Z</time></trkpt><trkpt lat="43.3531017" lon="11.975565"><ele>288.0</ele><time>2026-04-03T11:50:05.915Z</time></trkpt><trkpt lat="43.3530567" lon="11.975405"><ele>287.0</ele><time>2026-04-03T11:50:06.914Z</time></trkpt><trkpt lat="43.3529983" lon="11.9752467"><ele>286.0</ele><time>2026-04-03T11:50:07.914Z</time></trkpt><trkpt lat="43.352945" lon="11.9750917"><ele>285.25</ele><time>2026-04-03T11:50:08.914Z</time></trkpt><trkpt lat="43.3528917" lon="11.9749267"><ele>284.5</ele><time>2026-04-03T11:50:09.915Z</time></trkpt><trkpt lat="43.3528467" lon="11.9747567"><ele>283.75</ele><time>2026-04-03T11:50:10.915Z</time></trkpt><trkpt lat="43.3527917" lon="11.97459"><ele>283.0</ele><time>2026-04-03T11:50:11.915Z</time></trkpt><trkpt lat="43.3527483" lon="11.9744117"><ele>283.0</ele><time>2026-04-03T11:50:12.914Z</time></trkpt><trkpt lat="43.3527167" lon="11.9742333"><ele>283.0</ele><time>2026-04-03T11:50:13.914Z</time></trkpt><trkpt lat="43.35271" lon="11.97404"><ele>283.0</ele><time>2026-04-03T11:50:14.914Z</time></trkpt><trkpt lat="43.3527167" lon="11.9738433"><ele>283.0</ele><time>2026-04-03T11:50:15.915Z</time></trkpt><trkpt lat="43.35272" lon="11.9736667"><ele>282.5</ele><time>2026-04-03T11:50:16.914Z</time></trkpt><trkpt lat="43.3527167" lon="11.97349"><ele>282.0</ele><time>2026-04-03T11:50:17.914Z</time></trkpt><trkpt lat="43.3527067" lon="11.9733167"><ele>281.5</ele><time>2026-04-03T11:50:18.914Z</time></trkpt><trkpt lat="43.3527" lon="11.9731483"><ele>281.0</ele><time>2026-04-03T11:50:19.915Z</time></trkpt><trkpt lat="43.3526917" lon="11.9729717"><ele>281.0</ele><time>2026-04-03T11:50:20.914Z</time></trkpt><trkpt lat="43.352685" lon="11.9727967"><ele>281.0</ele><time>2026-04-03T11:50:21.914Z</time></trkpt><trkpt lat="43.35268" lon="11.9726167"><ele>281.0</ele><time>2026-04-03T11:50:22.915Z</time></trkpt><trkpt lat="43.3526733" lon="11.9724417"><ele>281.0</ele><time>2026-04-03T11:50:23.914Z</time></trkpt><trkpt lat="43.352675" lon="11.9722667"><ele>281.0</ele><time>2026-04-03T11:50:24.915Z</time></trkpt><trkpt lat="43.3526717" lon="11.9720867"><ele>281.0</ele><time>2026-04-03T11:50:25.914Z</time></trkpt><trkpt lat="43.35266" lon="11.97191"><ele>281.0</ele><time>2026-04-03T11:50:26.914Z</time></trkpt><trkpt lat="43.3526467" lon="11.9717383"><ele>281.0</ele><time>2026-04-03T11:50:27.915Z</time></trkpt><trkpt lat="43.35263" lon="11.971565"><ele>281.0</ele><time>2026-04-03T11:50:28.914Z</time></trkpt><trkpt lat="43.352605" lon="11.971405"><ele>281.0</ele><time>2026-04-03T11:50:29.915Z</time></trkpt><trkpt lat="43.3525617" lon="11.9712683"><ele>281.0</ele><time>2026-04-03T11:50:30.915Z</time></trkpt><trkpt lat="43.3525133" lon="11.9711283"><ele>281.0</ele><time>2026-04-03T11:50:31.915Z</time></trkpt><trkpt lat="43.352465" lon="11.9709917"><ele>281.0</ele><time>2026-04-03T11:50:32.915Z</time></trkpt><trkpt lat="43.3524233" lon="11.9708683"><ele>281.0</ele><time>2026-04-03T11:50:33.915Z</time></trkpt><trkpt lat="43.35239" lon="11.970775"><ele>281.0</ele><time>2026-04-03T11:50:34.915Z</time></trkpt><trkpt lat="43.3523617" lon="11.9706817"><ele>281.0</ele><time>2026-04-03T11:50:35.915Z</time></trkpt><trkpt lat="43.35233" lon="11.9705983"><ele>281.0</ele><time>2026-04-03T11:50:36.915Z</time></trkpt><trkpt lat="43.3523033" lon="11.9705117"><ele>281.0</ele><time>2026-04-03T11:50:37.914Z</time></trkpt><trkpt lat="43.35227" lon="11.9704283"><ele>281.0</ele><time>2026-04-03T11:50:38.914Z</time></trkpt><trkpt lat="43.3522367" lon="11.9703417"><ele>281.0</ele><time>2026-04-03T11:50:39.914Z</time></trkpt><trkpt lat="43.3521983" lon="11.9702483"><ele>281.0</ele><time>2026-04-03T11:50:40.915Z</time></trkpt><trkpt lat="43.35216" lon="11.9701383"><ele>281.0</ele><time>2026-04-03T11:50:41.915Z</time></trkpt><trkpt lat="43.35212" lon="11.9700233"><ele>281.0</ele><time>2026-04-03T11:50:42.914Z</time></trkpt><trkpt lat="43.3520967" lon="11.9699067"><ele>281.0</ele><time>2026-04-03T11:50:43.915Z</time></trkpt><trkpt lat="43.3520583" lon="11.9697783"><ele>280.75</ele><time>2026-04-03T11:50:44.915Z</time></trkpt><trkpt lat="43.3519933" lon="11.9696283"><ele>280.5</ele><time>2026-04-03T11:50:45.915Z</time></trkpt><trkpt lat="43.3519383" lon="11.9694417"><ele>280.25</ele><time>2026-04-03T11:50:46.914Z</time></trkpt><trkpt lat="43.3518683" lon="11.9692383"><ele>280.0</ele><time>2026-04-03T11:50:47.914Z</time></trkpt><trkpt lat="43.351785" lon="11.96902"><ele>280.0</ele><time>2026-04-03T11:50:48.915Z</time></trkpt><trkpt lat="43.351705" lon="11.9687967"><ele>280.0</ele><time>2026-04-03T11:50:49.915Z</time></trkpt><trkpt lat="43.351625" lon="11.968565"><ele>280.0</ele><time>2026-04-03T11:50:50.914Z</time></trkpt><trkpt lat="43.3515483" lon="11.9683333"><ele>280.0</ele><time>2026-04-03T11:50:51.914Z</time></trkpt><trkpt lat="43.3514583" lon="11.9681"><ele>280.0</ele><time>2026-04-03T11:50:52.914Z</time></trkpt><trkpt lat="43.3513717" lon="11.967875"><ele>280.0</ele><time>2026-04-03T11:50:53.914Z</time></trkpt><trkpt lat="43.3512917" lon="11.9676617"><ele>279.3333333333333</ele><time>2026-04-03T11:50:54.915Z</time></trkpt><trkpt lat="43.351225" lon="11.9674617"><ele>278.6666666666667</ele><time>2026-04-03T11:50:55.915Z</time></trkpt><trkpt lat="43.35117" lon="11.967255"><ele>278.0</ele><time>2026-04-03T11:50:56.915Z</time></trkpt><trkpt lat="43.3511417" lon="11.967045"><ele>278.0</ele><time>2026-04-03T11:50:57.915Z</time></trkpt><trkpt lat="43.35113" lon="11.9668367"><ele>278.0</ele><time>2026-04-03T11:50:58.915Z</time></trkpt><trkpt lat="43.3511267" lon="11.9666233"><ele>278.0</ele><time>2026-04-03T11:50:59.915Z</time></trkpt><trkpt lat="43.35113" lon="11.966415"><ele>278.0</ele><time>2026-04-03T11:51:00.914Z</time></trkpt><trkpt lat="43.35115" lon="11.9662183"><ele>278.0</ele><time>2026-04-03T11:51:01.915Z</time></trkpt><trkpt lat="43.351175" lon="11.9660383"><ele>278.0</ele><time>2026-04-03T11:51:02.914Z</time></trkpt><trkpt lat="43.3512017" lon="11.9658517"><ele>278.0</ele><time>2026-04-03T11:51:03.914Z</time></trkpt><trkpt lat="43.3512667" lon="11.9656383"><ele>278.33333333333337</ele><time>2026-04-03T11:51:04.915Z</time></trkpt><trkpt lat="43.3513367" lon="11.9654467"><ele>278.6666666666667</ele><time>2026-04-03T11:51:05.915Z</time></trkpt><trkpt lat="43.3514067" lon="11.9652417"><ele>279.0</ele><time>2026-04-03T11:51:06.914Z</time></trkpt><trkpt lat="43.35145" lon="11.9650267"><ele>280.3333333333333</ele><time>2026-04-03T11:51:07.915Z</time></trkpt><trkpt lat="43.3514917" lon="11.9647933"><ele>281.66666666666663</ele><time>2026-04-03T11:51:08.915Z</time></trkpt><trkpt lat="43.3514933" lon="11.9645733"><ele>283.0</ele><time>2026-04-03T11:51:09.915Z</time></trkpt><trkpt lat="43.35148" lon="11.964365"><ele>282.75</ele><time>2026-04-03T11:51:10.914Z</time></trkpt><trkpt lat="43.3514583" lon="11.9641667"><ele>282.5</ele><time>2026-04-03T11:51:11.914Z</time></trkpt><trkpt lat="43.3514367" lon="11.9639767"><ele>282.25</ele><time>2026-04-03T11:51:12.915Z</time></trkpt><trkpt lat="43.3514183" lon="11.963795"><ele>282.0</ele><time>2026-04-03T11:51:13.915Z</time></trkpt><trkpt lat="43.3513983" lon="11.963615"><ele>281.75</ele><time>2026-04-03T11:51:14.915Z</time></trkpt><trkpt lat="43.35136" lon="11.9634517"><ele>281.5</ele><time>2026-04-03T11:51:15.914Z</time></trkpt><trkpt lat="43.3513067" lon="11.963295"><ele>281.25</ele><time>2026-04-03T11:51:16.915Z</time></trkpt><trkpt lat="43.3512533" lon="11.9631317"><ele>281.0</ele><time>2026-04-03T11:51:17.914Z</time></trkpt><trkpt lat="43.3512067" lon="11.9629717"><ele>281.0</ele><time>2026-04-03T11:51:18.915Z</time></trkpt><trkpt lat="43.3511583" lon="11.962815"><ele>281.0</ele><time>2026-04-03T11:51:19.915Z</time></trkpt><trkpt lat="43.35111" lon="11.9626517"><ele>281.0</ele><time>2026-04-03T11:51:20.915Z</time></trkpt><trkpt lat="43.351065" lon="11.962475"><ele>281.0</ele><time>2026-04-03T11:51:21.914Z</time></trkpt><trkpt lat="43.3510267" lon="11.9622867"><ele>281.0</ele><time>2026-04-03T11:51:22.914Z</time></trkpt><trkpt lat="43.3509867" lon="11.9621017"><ele>281.0</ele><time>2026-04-03T11:51:23.915Z</time></trkpt><trkpt lat="43.3509533" lon="11.9619233"><ele>281.0</ele><time>2026-04-03T11:51:24.915Z</time></trkpt><trkpt lat="43.350905" lon="11.9617583"><ele>281.0</ele><time>2026-04-03T11:51:25.915Z</time></trkpt><trkpt lat="43.3508717" lon="11.9615867"><ele>281.5</ele><time>2026-04-03T11:51:26.915Z</time></trkpt><trkpt lat="43.35084" lon="11.9614283"><ele>282.0</ele><time>2026-04-03T11:51:27.914Z</time></trkpt><trkpt lat="43.3507933" lon="11.9612733"><ele>282.5</ele><time>2026-04-03T11:51:28.915Z</time></trkpt><trkpt lat="43.3507567" lon="11.9611217"><ele>283.0</ele><time>2026-04-03T11:51:29.915Z</time></trkpt><trkpt lat="43.3507083" lon="11.9609733"><ele>283.0</ele><time>2026-04-03T11:51:30.914Z</time></trkpt><trkpt lat="43.350655" lon="11.960825"><ele>283.0</ele><time>2026-04-03T11:51:31.915Z</time></trkpt><trkpt lat="43.350575" lon="11.96069"><ele>283.0</ele><time>2026-04-03T11:51:32.914Z</time></trkpt><trkpt lat="43.3504867" lon="11.9605567"><ele>283.0</ele><time>2026-04-03T11:51:33.914Z</time></trkpt><trkpt lat="43.35038" lon="11.9604267"><ele>282.5</ele><time>2026-04-03T11:51:34.914Z</time></trkpt><trkpt lat="43.35027" lon="11.9603017"><ele>282.0</ele><time>2026-04-03T11:51:35.914Z</time></trkpt><trkpt lat="43.3501667" lon="11.9601767"><ele>281.5</ele><time>2026-04-03T11:51:36.915Z</time></trkpt><trkpt lat="43.3500633" lon="11.9600467"><ele>281.0</ele><time>2026-04-03T11:51:37.914Z</time></trkpt><trkpt lat="43.3499583" lon="11.9599067"><ele>281.0</ele><time>2026-04-03T11:51:38.914Z</time></trkpt><trkpt lat="43.3498533" lon="11.959765"><ele>281.0</ele><time>2026-04-03T11:51:39.915Z</time></trkpt><trkpt lat="43.3497483" lon="11.9596133"><ele>281.0</ele><time>2026-04-03T11:51:40.914Z</time></trkpt><trkpt lat="43.349645" lon="11.959455"><ele>280.5</ele><time>2026-04-03T11:51:41.915Z</time></trkpt><trkpt lat="43.3495517" lon="11.9592917"><ele>280.0</ele><time>2026-04-03T11:51:42.915Z</time></trkpt><trkpt lat="43.3494617" lon="11.9591233"><ele>279.5</ele><time>2026-04-03T11:51:43.914Z</time></trkpt><trkpt lat="43.3493833" lon="11.9589533"><ele>279.0</ele><time>2026-04-03T11:51:44.915Z</time></trkpt><trkpt lat="43.3493167" lon="11.9587767"><ele>277.5</ele><time>2026-04-03T11:51:45.914Z</time></trkpt><trkpt lat="43.349245" lon="11.9585967"><ele>276.0</ele><time>2026-04-03T11:51:46.915Z</time></trkpt><trkpt lat="43.349175" lon="11.958405"><ele>274.5</ele><time>2026-04-03T11:51:47.915Z</time></trkpt><trkpt lat="43.3491133" lon="11.9582333"><ele>273.0</ele><time>2026-04-03T11:51:48.914Z</time></trkpt><trkpt lat="43.3490483" lon="11.958035"><ele>273.0</ele><time>2026-04-03T11:51:49.914Z</time></trkpt><trkpt lat="43.3489817" lon="11.9578383"><ele>273.0</ele><time>2026-04-03T11:51:50.915Z</time></trkpt><trkpt lat="43.3489133" lon="11.9576433"><ele>273.0</ele><time>2026-04-03T11:51:51.914Z</time></trkpt><trkpt lat="43.3488333" lon="11.9574433"><ele>272.3333333333333</ele><time>2026-04-03T11:51:52.914Z</time></trkpt><trkpt lat="43.3487567" lon="11.9572667"><ele>271.66666666666663</ele><time>2026-04-03T11:51:53.914Z</time></trkpt><trkpt lat="43.348675" lon="11.95708"><ele>271.0</ele><time>2026-04-03T11:51:54.915Z</time></trkpt><trkpt lat="43.3485833" lon="11.9568767"><ele>270.66666666666663</ele><time>2026-04-03T11:51:55.914Z</time></trkpt><trkpt lat="43.3485017" lon="11.956675"><ele>270.3333333333333</ele><time>2026-04-03T11:51:56.914Z</time></trkpt><trkpt lat="43.3484133" lon="11.9564867"><ele>270.0</ele><time>2026-04-03T11:51:57.914Z</time></trkpt><trkpt lat="43.3483183" lon="11.9563217"><ele>270.0</ele><time>2026-04-03T11:51:58.915Z</time></trkpt><trkpt lat="43.3482267" lon="11.9561583"><ele>270.0</ele><time>2026-04-03T11:51:59.915Z</time></trkpt><trkpt lat="43.348145" lon="11.9559867"><ele>270.0</ele><time>2026-04-03T11:52:00.914Z</time></trkpt><trkpt lat="43.3480667" lon="11.9558167"><ele>270.0</ele><time>2026-04-03T11:52:01.914Z</time></trkpt><trkpt lat="43.3479817" lon="11.9556417"><ele>270.0</ele><time>2026-04-03T11:52:02.915Z</time></trkpt><trkpt lat="43.3478883" lon="11.95547"><ele>270.0</ele><time>2026-04-03T11:52:03.914Z</time></trkpt><trkpt lat="43.3477967" lon="11.9552933"><ele>270.0</ele><time>2026-04-03T11:52:04.914Z</time></trkpt><trkpt lat="43.347695" lon="11.9551233"><ele>270.3333333333333</ele><time>2026-04-03T11:52:05.915Z</time></trkpt><trkpt lat="43.3476033" lon="11.9549433"><ele>270.66666666666663</ele><time>2026-04-03T11:52:06.914Z</time></trkpt><trkpt lat="43.34751" lon="11.9547617"><ele>271.0</ele><time>2026-04-03T11:52:07.915Z</time></trkpt><trkpt lat="43.34743" lon="11.9545667"><ele>271.0</ele><time>2026-04-03T11:52:08.915Z</time></trkpt><trkpt lat="43.3473367" lon="11.9543867"><ele>271.0</ele><time>2026-04-03T11:52:09.915Z</time></trkpt><trkpt lat="43.3472533" lon="11.9541883"><ele>271.0</ele><time>2026-04-03T11:52:10.915Z</time></trkpt><trkpt lat="43.34717" lon="11.95399"><ele>269.66666666666663</ele><time>2026-04-03T11:52:11.915Z</time></trkpt><trkpt lat="43.3470883" lon="11.9537667"><ele>268.3333333333333</ele><time>2026-04-03T11:52:12.914Z</time></trkpt><trkpt lat="43.347015" lon="11.9535483"><ele>267.0</ele><time>2026-04-03T11:52:13.914Z</time></trkpt><trkpt lat="43.34696" lon="11.9533383"><ele>266.75</ele><time>2026-04-03T11:52:14.914Z</time></trkpt><trkpt lat="43.3469083" lon="11.95314"><ele>266.5</ele><time>2026-04-03T11:52:15.914Z</time></trkpt><trkpt lat="43.3468667" lon="11.9529517"><ele>266.25</ele><time>2026-04-03T11:52:16.914Z</time></trkpt><trkpt lat="43.346825" lon="11.9527767"><ele>266.0</ele><time>2026-04-03T11:52:17.915Z</time></trkpt><trkpt lat="43.3467933" lon="11.952595"><ele>266.5</ele><time>2026-04-03T11:52:18.914Z</time></trkpt><trkpt lat="43.34677" lon="11.9524283"><ele>267.0</ele><time>2026-04-03T11:52:19.914Z</time></trkpt><trkpt lat="43.34675" lon="11.95227"><ele>267.5</ele><time>2026-04-03T11:52:20.914Z</time></trkpt><trkpt lat="43.346735" lon="11.9521133"><ele>268.0</ele><time>2026-04-03T11:52:21.914Z</time></trkpt><trkpt lat="43.34672" lon="11.9519517"><ele>268.0</ele><time>2026-04-03T11:52:22.914Z</time></trkpt><trkpt lat="43.34671" lon="11.951785"><ele>268.0</ele><time>2026-04-03T11:52:23.915Z</time></trkpt><trkpt lat="43.3467" lon="11.9516067"><ele>268.0</ele><time>2026-04-03T11:52:24.915Z</time></trkpt><trkpt lat="43.3466933" lon="11.9514267"><ele>268.0</ele><time>2026-04-03T11:52:25.914Z</time></trkpt><trkpt lat="43.3466983" lon="11.9512433"><ele>268.75</ele><time>2026-04-03T11:52:26.915Z</time></trkpt><trkpt lat="43.3467133" lon="11.9510567"><ele>269.5</ele><time>2026-04-03T11:52:27.915Z</time></trkpt><trkpt lat="43.3467433" lon="11.9508483"><ele>270.25</ele><time>2026-04-03T11:52:28.914Z</time></trkpt><trkpt lat="43.34677" lon="11.9506417"><ele>271.0</ele><time>2026-04-03T11:52:29.915Z</time></trkpt><trkpt lat="43.3467917" lon="11.9504233"><ele>271.0</ele><time>2026-04-03T11:52:30.915Z</time></trkpt><trkpt lat="43.34681" lon="11.9501967"><ele>271.0</ele><time>2026-04-03T11:52:31.914Z</time></trkpt><trkpt lat="43.3468283" lon="11.9499717"><ele>271.0</ele><time>2026-04-03T11:52:32.914Z</time></trkpt><trkpt lat="43.34684" lon="11.9497417"><ele>271.0</ele><time>2026-04-03T11:52:33.915Z</time></trkpt><trkpt lat="43.346855" lon="11.9495083"><ele>271.0</ele><time>2026-04-03T11:52:34.914Z</time></trkpt><trkpt lat="43.34687" lon="11.9492767"><ele>271.0</ele><time>2026-04-03T11:52:35.915Z</time></trkpt><trkpt lat="43.3468783" lon="11.9490517"><ele>270.3333333333333</ele><time>2026-04-03T11:52:36.914Z</time></trkpt><trkpt lat="43.346875" lon="11.94883"><ele>269.6666666666667</ele><time>2026-04-03T11:52:37.915Z</time></trkpt><trkpt lat="43.3468683" lon="11.94861"><ele>269.0</ele><time>2026-04-03T11:52:38.915Z</time></trkpt><trkpt lat="43.3468483" lon="11.9483917"><ele>269.0</ele><time>2026-04-03T11:52:39.915Z</time></trkpt><trkpt lat="43.3468233" lon="11.948185"><ele>269.0</ele><time>2026-04-03T11:52:40.915Z</time></trkpt><trkpt lat="43.3467967" lon="11.947965"><ele>269.0</ele><time>2026-04-03T11:52:41.915Z</time></trkpt><trkpt lat="43.34677" lon="11.94775"><ele>269.0</ele><time>2026-04-03T11:52:42.914Z</time></trkpt><trkpt lat="43.3467483" lon="11.9475617"><ele>269.0</ele><time>2026-04-03T11:52:43.914Z</time></trkpt><trkpt lat="43.3467233" lon="11.9473717"><ele>269.0</ele><time>2026-04-03T11:52:44.914Z</time></trkpt><trkpt lat="43.3467067" lon="11.947195"><ele>269.0</ele><time>2026-04-03T11:52:45.914Z</time></trkpt><trkpt lat="43.3466833" lon="11.94701"><ele>269.5</ele><time>2026-04-03T11:52:46.914Z</time></trkpt><trkpt lat="43.3466517" lon="11.946825"><ele>270.0</ele><time>2026-04-03T11:52:47.914Z</time></trkpt><trkpt lat="43.346625" lon="11.9466433"><ele>270.5</ele><time>2026-04-03T11:52:48.915Z</time></trkpt><trkpt lat="43.3465917" lon="11.946455"><ele>271.0</ele><time>2026-04-03T11:52:49.914Z</time></trkpt><trkpt lat="43.34656" lon="11.946285"><ele>271.0</ele><time>2026-04-03T11:52:50.915Z</time></trkpt><trkpt lat="43.3465183" lon="11.9461183"><ele>271.0</ele><time>2026-04-03T11:52:51.915Z</time></trkpt><trkpt lat="43.3464683" lon="11.9459683"><ele>271.0</ele><time>2026-04-03T11:52:52.915Z</time></trkpt><trkpt lat="43.3464133" lon="11.94583"><ele>271.0</ele><time>2026-04-03T11:52:53.915Z</time></trkpt><trkpt lat="43.3463483" lon="11.9456867"><ele>270.75</ele><time>2026-04-03T11:52:54.914Z</time></trkpt><trkpt lat="43.34629" lon="11.9455467"><ele>270.5</ele><time>2026-04-03T11:52:55.915Z</time></trkpt><trkpt lat="43.3462317" lon="11.9454067"><ele>270.25</ele><time>2026-04-03T11:52:56.915Z</time></trkpt><trkpt lat="43.3461717" lon="11.9452717"><ele>270.0</ele><time>2026-04-03T11:52:57.915Z</time></trkpt><trkpt lat="43.346105" lon="11.94514"><ele>270.75</ele><time>2026-04-03T11:52:58.915Z</time></trkpt><trkpt lat="43.34604" lon="11.94501"><ele>271.5</ele><time>2026-04-03T11:52:59.914Z</time></trkpt><trkpt lat="43.345985" lon="11.9448767"><ele>272.25</ele><time>2026-04-03T11:53:00.915Z</time></trkpt><trkpt lat="43.3459217" lon="11.9447433"><ele>273.0</ele><time>2026-04-03T11:53:01.914Z</time></trkpt><trkpt lat="43.3458667" lon="11.944595"><ele>273.0</ele><time>2026-04-03T11:53:02.914Z</time></trkpt><trkpt lat="43.34581" lon="11.9444483"><ele>273.0</ele><time>2026-04-03T11:53:03.915Z</time></trkpt><trkpt lat="43.345765" lon="11.944285"><ele>273.0</ele><time>2026-04-03T11:53:04.914Z</time></trkpt><trkpt lat="43.34574" lon="11.9441133"><ele>273.0</ele><time>2026-04-03T11:53:05.914Z</time></trkpt><trkpt lat="43.345725" lon="11.943935"><ele>273.25</ele><time>2026-04-03T11:53:06.914Z</time></trkpt><trkpt lat="43.3457183" lon="11.94376"><ele>273.5</ele><time>2026-04-03T11:53:07.915Z</time></trkpt><trkpt lat="43.3457083" lon="11.94357"><ele>273.75</ele><time>2026-04-03T11:53:08.914Z</time></trkpt><trkpt lat="43.3457167" lon="11.9433683"><ele>274.0</ele><time>2026-04-03T11:53:09.915Z</time></trkpt><trkpt lat="43.3457167" lon="11.9431717"><ele>274.25</ele><time>2026-04-03T11:53:10.915Z</time></trkpt><trkpt lat="43.3457167" lon="11.9429867"><ele>274.5</ele><time>2026-04-03T11:53:11.914Z</time></trkpt><trkpt lat="43.3457217" lon="11.9428117"><ele>274.75</ele><time>2026-04-03T11:53:12.914Z</time></trkpt><trkpt lat="43.3457267" lon="11.942625"><ele>275.0</ele><time>2026-04-03T11:53:13.914Z</time></trkpt><trkpt lat="43.3457217" lon="11.942435"><ele>275.6666666666667</ele><time>2026-04-03T11:53:14.915Z</time></trkpt><trkpt lat="43.3457083" lon="11.9422317"><ele>276.3333333333333</ele><time>2026-04-03T11:53:15.914Z</time></trkpt><trkpt lat="43.34567" lon="11.94202"><ele>277.0</ele><time>2026-04-03T11:53:16.915Z</time></trkpt><trkpt lat="43.3456083" lon="11.9418217"><ele>275.66666666666663</ele><time>2026-04-03T11:53:17.915Z</time></trkpt><trkpt lat="43.3455383" lon="11.9416367"><ele>274.3333333333333</ele><time>2026-04-03T11:53:18.914Z</time></trkpt><trkpt lat="43.3454767" lon="11.9414417"><ele>273.0</ele><time>2026-04-03T11:53:19.914Z</time></trkpt><trkpt lat="43.3454067" lon="11.9412517"><ele>273.0</ele><time>2026-04-03T11:53:20.914Z</time></trkpt><trkpt lat="43.3453417" lon="11.9410767"><ele>273.0</ele><time>2026-04-03T11:53:21.914Z</time></trkpt><trkpt lat="43.3452783" lon="11.9408983"><ele>273.0</ele><time>2026-04-03T11:53:22.914Z</time></trkpt><trkpt lat="43.3452183" lon="11.9407217"><ele>273.0</ele><time>2026-04-03T11:53:23.915Z</time></trkpt><trkpt lat="43.34516" lon="11.940545"><ele>273.0</ele><time>2026-04-03T11:53:24.915Z</time></trkpt><trkpt lat="43.3451033" lon="11.9403917"><ele>273.0</ele><time>2026-04-03T11:53:25.915Z</time></trkpt><trkpt lat="43.3450583" lon="11.9402417"><ele>273.0</ele><time>2026-04-03T11:53:26.914Z</time></trkpt><trkpt lat="43.3450133" lon="11.940075"><ele>273.0</ele><time>2026-04-03T11:53:27.915Z</time></trkpt><trkpt lat="43.344975" lon="11.9399217"><ele>273.0</ele><time>2026-04-03T11:53:28.914Z</time></trkpt><trkpt lat="43.3449417" lon="11.93976"><ele>273.0</ele><time>2026-04-03T11:53:29.914Z</time></trkpt><trkpt lat="43.3449067" lon="11.93959"><ele>273.0</ele><time>2026-04-03T11:53:30.914Z</time></trkpt><trkpt lat="43.34486" lon="11.9394283"><ele>273.0</ele><time>2026-04-03T11:53:31.915Z</time></trkpt><trkpt lat="43.3448183" lon="11.9392567"><ele>273.25</ele><time>2026-04-03T11:53:32.915Z</time></trkpt><trkpt lat="43.3447733" lon="11.9390833"><ele>273.5</ele><time>2026-04-03T11:53:33.915Z</time></trkpt><trkpt lat="43.3447167" lon="11.9389183"><ele>273.75</ele><time>2026-04-03T11:53:34.915Z</time></trkpt><trkpt lat="43.3446583" lon="11.938765"><ele>274.0</ele><time>2026-04-03T11:53:35.914Z</time></trkpt><trkpt lat="43.34459" lon="11.9386067"><ele>273.5</ele><time>2026-04-03T11:53:36.915Z</time></trkpt><trkpt lat="43.3445117" lon="11.9384417"><ele>273.0</ele><time>2026-04-03T11:53:37.914Z</time></trkpt><trkpt lat="43.3444317" lon="11.9382567"><ele>272.5</ele><time>2026-04-03T11:53:38.915Z</time></trkpt><trkpt lat="43.344365" lon="11.938075"><ele>272.0</ele><time>2026-04-03T11:53:39.915Z</time></trkpt><trkpt lat="43.3442967" lon="11.9378933"><ele>272.0</ele><time>2026-04-03T11:53:40.915Z</time></trkpt><trkpt lat="43.34424" lon="11.9377117"><ele>272.0</ele><time>2026-04-03T11:53:41.914Z</time></trkpt><trkpt lat="43.3441867" lon="11.937515"><ele>272.0</ele><time>2026-04-03T11:53:42.914Z</time></trkpt><trkpt lat="43.3441283" lon="11.9373233"><ele>272.0</ele><time>2026-04-03T11:53:43.914Z</time></trkpt><trkpt lat="43.344075" lon="11.9371433"><ele>272.0</ele><time>2026-04-03T11:53:44.914Z</time></trkpt><trkpt lat="43.3440183" lon="11.93697"><ele>272.0</ele><time>2026-04-03T11:53:45.914Z</time></trkpt><trkpt lat="43.3439633" lon="11.93679"><ele>272.0</ele><time>2026-04-03T11:53:46.914Z</time></trkpt><trkpt lat="43.34391" lon="11.936615"><ele>272.0</ele><time>2026-04-03T11:53:47.914Z</time></trkpt><trkpt lat="43.3438667" lon="11.9364483"><ele>272.0</ele><time>2026-04-03T11:53:48.914Z</time></trkpt><trkpt lat="43.3438317" lon="11.93629"><ele>272.0</ele><time>2026-04-03T11:53:49.914Z</time></trkpt><trkpt lat="43.3437933" lon="11.93614"><ele>272.0</ele><time>2026-04-03T11:53:50.915Z</time></trkpt><trkpt lat="43.34376" lon="11.9360017"><ele>272.0</ele><time>2026-04-03T11:53:51.915Z</time></trkpt><trkpt lat="43.343735" lon="11.9358817"><ele>272.0</ele><time>2026-04-03T11:53:52.914Z</time></trkpt><trkpt lat="43.3437133" lon="11.9357867"><ele>271.6666666666667</ele><time>2026-04-03T11:53:53.915Z</time></trkpt><trkpt lat="43.3436883" lon="11.9356967"><ele>271.33333333333337</ele><time>2026-04-03T11:53:54.915Z</time></trkpt><trkpt lat="43.3436617" lon="11.9355817"><ele>271.0</ele><time>2026-04-03T11:53:56.915Z</time></trkpt><trkpt lat="43.3435717" lon="11.9355683"><ele>270.6666666666667</ele><time>2026-04-03T11:53:59.914Z</time></trkpt><trkpt lat="43.3435167" lon="11.9356133"><ele>270.3333333333333</ele><time>2026-04-03T11:54:00.915Z</time></trkpt><trkpt lat="43.343435" lon="11.9356683"><ele>270.0</ele><time>2026-04-03T11:54:01.914Z</time></trkpt><trkpt lat="43.343325" lon="11.9357333"><ele>270.0</ele><time>2026-04-03T11:54:02.914Z</time></trkpt><trkpt lat="43.3431883" lon="11.9357817"><ele>270.0</ele><time>2026-04-03T11:54:03.914Z</time></trkpt><trkpt lat="43.343055" lon="11.9358083"><ele>270.0</ele><time>2026-04-03T11:54:04.915Z</time></trkpt><trkpt lat="43.342955" lon="11.9358133"><ele>270.0</ele><time>2026-04-03T11:54:05.914Z</time></trkpt><trkpt lat="43.342865" lon="11.9357717"><ele>269.2</ele><time>2026-04-03T11:54:06.915Z</time></trkpt><trkpt lat="43.3427983" lon="11.9356917"><ele>268.4</ele><time>2026-04-03T11:54:07.914Z</time></trkpt><trkpt lat="43.342745" lon="11.9355667"><ele>267.6</ele><time>2026-04-03T11:54:08.914Z</time></trkpt><trkpt lat="43.34271" lon="11.9354"><ele>266.8</ele><time>2026-04-03T11:54:09.914Z</time></trkpt><trkpt lat="43.3426667" lon="11.9352333"><ele>266.0</ele><time>2026-04-03T11:54:10.915Z</time></trkpt><trkpt lat="43.34261" lon="11.9350617"><ele>265.5</ele><time>2026-04-03T11:54:11.914Z</time></trkpt><trkpt lat="43.3425317" lon="11.93492"><ele>265.0</ele><time>2026-04-03T11:54:12.915Z</time></trkpt><trkpt lat="43.342445" lon="11.9347883"><ele>264.5</ele><time>2026-04-03T11:54:13.914Z</time></trkpt><trkpt lat="43.3423383" lon="11.9346567"><ele>264.0</ele><time>2026-04-03T11:54:14.914Z</time></trkpt><trkpt lat="43.34224" lon="11.9345233"><ele>263.5</ele><time>2026-04-03T11:54:15.914Z</time></trkpt><trkpt lat="43.3421367" lon="11.9343967"><ele>263.0</ele><time>2026-04-03T11:54:16.915Z</time></trkpt><trkpt lat="43.3420267" lon="11.9342617"><ele>262.5</ele><time>2026-04-03T11:54:17.914Z</time></trkpt><trkpt lat="43.34193" lon="11.9341217"><ele>262.0</ele><time>2026-04-03T11:54:18.914Z</time></trkpt><trkpt lat="43.3418383" lon="11.93397"><ele>262.0</ele><time>2026-04-03T11:54:19.915Z</time></trkpt><trkpt lat="43.3417433" lon="11.9338"><ele>262.0</ele><time>2026-04-03T11:54:20.914Z</time></trkpt><trkpt lat="43.34165" lon="11.933625"><ele>262.0</ele><time>2026-04-03T11:54:21.915Z</time></trkpt><trkpt lat="43.34156" lon="11.9334517"><ele>262.0</ele><time>2026-04-03T11:54:22.914Z</time></trkpt><trkpt lat="43.34148" lon="11.9332967"><ele>262.0</ele><time>2026-04-03T11:54:23.915Z</time></trkpt><trkpt lat="43.3414" lon="11.933155"><ele>262.0</ele><time>2026-04-03T11:54:24.915Z</time></trkpt><trkpt lat="43.341315" lon="11.93301"><ele>262.0</ele><time>2026-04-03T11:54:25.914Z</time></trkpt><trkpt lat="43.341235" lon="11.93285"><ele>262.0</ele><time>2026-04-03T11:54:26.915Z</time></trkpt><trkpt lat="43.3411717" lon="11.932675"><ele>262.0</ele><time>2026-04-03T11:54:27.914Z</time></trkpt><trkpt lat="43.3411233" lon="11.9324833"><ele>262.0</ele><time>2026-04-03T11:54:28.914Z</time></trkpt><trkpt lat="43.3410917" lon="11.9323017"><ele>262.0</ele><time>2026-04-03T11:54:29.915Z</time></trkpt><trkpt lat="43.3410683" lon="11.9321167"><ele>262.0</ele><time>2026-04-03T11:54:30.914Z</time></trkpt><trkpt lat="43.3410383" lon="11.9319433"><ele>262.0</ele><time>2026-04-03T11:54:31.914Z</time></trkpt><trkpt lat="43.3410033" lon="11.931775"><ele>262.0</ele><time>2026-04-03T11:54:32.914Z</time></trkpt><trkpt lat="43.340965" lon="11.931615"><ele>262.0</ele><time>2026-04-03T11:54:33.915Z</time></trkpt><trkpt lat="43.340925" lon="11.9314517"><ele>262.4</ele><time>2026-04-03T11:54:34.915Z</time></trkpt><trkpt lat="43.3408867" lon="11.9313"><ele>262.79999999999995</ele><time>2026-04-03T11:54:35.915Z</time></trkpt><trkpt lat="43.34085" lon="11.9311367"><ele>263.2</ele><time>2026-04-03T11:54:36.914Z</time></trkpt><trkpt lat="43.3408133" lon="11.930995"><ele>263.59999999999997</ele><time>2026-04-03T11:54:37.915Z</time></trkpt><trkpt lat="43.3407733" lon="11.9308733"><ele>264.0</ele><time>2026-04-03T11:54:38.914Z</time></trkpt><trkpt lat="43.340725" lon="11.9307433"><ele>264.0</ele><time>2026-04-03T11:54:39.915Z</time></trkpt><trkpt lat="43.3406633" lon="11.930605"><ele>264.0</ele><time>2026-04-03T11:54:40.914Z</time></trkpt><trkpt lat="43.3405967" lon="11.9304717"><ele>264.0</ele><time>2026-04-03T11:54:41.914Z</time></trkpt><trkpt lat="43.3405283" lon="11.930365"><ele>264.0</ele><time>2026-04-03T11:54:42.915Z</time></trkpt><trkpt lat="43.3404583" lon="11.9302867"><ele>264.0</ele><time>2026-04-03T11:54:43.915Z</time></trkpt><trkpt lat="43.340375" lon="11.9302017"><ele>264.0</ele><time>2026-04-03T11:54:45.915Z</time></trkpt><trkpt lat="43.3404167" lon="11.9301183"><ele>264.0</ele><time>2026-04-03T11:54:49.915Z</time></trkpt><trkpt lat="43.3405017" lon="11.9300817"><ele>264.0</ele><time>2026-04-03T11:54:51.914Z</time></trkpt><trkpt lat="43.3405683" lon="11.93007"><ele>264.0</ele><time>2026-04-03T11:54:53.914Z</time></trkpt><trkpt lat="43.3405983" lon="11.9299633"><ele>264.0</ele><time>2026-04-03T11:54:57.914Z</time></trkpt><trkpt lat="43.34055" lon="11.9297917"><ele>264.0</ele><time>2026-04-03T11:54:59.914Z</time></trkpt><trkpt lat="43.340515" lon="11.929675"><ele>263.59999999999997</ele><time>2026-04-03T11:55:00.915Z</time></trkpt><trkpt lat="43.3404617" lon="11.929555"><ele>263.2</ele><time>2026-04-03T11:55:01.914Z</time></trkpt><trkpt lat="43.3404117" lon="11.9294333"><ele>262.79999999999995</ele><time>2026-04-03T11:55:02.914Z</time></trkpt><trkpt lat="43.340365" lon="11.9293"><ele>262.4</ele><time>2026-04-03T11:55:03.915Z</time></trkpt><trkpt lat="43.3403217" lon="11.92916"><ele>262.0</ele><time>2026-04-03T11:55:04.915Z</time></trkpt><trkpt lat="43.340285" lon="11.9290133"><ele>261.5</ele><time>2026-04-03T11:55:05.915Z</time></trkpt><trkpt lat="43.3402483" lon="11.9288533"><ele>261.0</ele><time>2026-04-03T11:55:06.914Z</time></trkpt><trkpt lat="43.340215" lon="11.9286817"><ele>260.5</ele><time>2026-04-03T11:55:07.914Z</time></trkpt><trkpt lat="43.3401817" lon="11.9284933"><ele>260.0</ele><time>2026-04-03T11:55:08.914Z</time></trkpt><trkpt lat="43.34015" lon="11.928305"><ele>260.0</ele><time>2026-04-03T11:55:09.914Z</time></trkpt><trkpt lat="43.3401167" lon="11.928105"><ele>260.0</ele><time>2026-04-03T11:55:10.914Z</time></trkpt><trkpt lat="43.34008" lon="11.9279217"><ele>260.0</ele><time>2026-04-03T11:55:11.915Z</time></trkpt><trkpt lat="43.3400383" lon="11.927735"><ele>260.0</ele><time>2026-04-03T11:55:12.914Z</time></trkpt><trkpt lat="43.339995" lon="11.92756"><ele>260.0</ele><time>2026-04-03T11:55:13.914Z</time></trkpt><trkpt lat="43.3399317" lon="11.92738"><ele>260.0</ele><time>2026-04-03T11:55:14.914Z</time></trkpt><trkpt lat="43.33986" lon="11.9272083"><ele>260.0</ele><time>2026-04-03T11:55:15.914Z</time></trkpt><trkpt lat="43.339785" lon="11.9270467"><ele>260.0</ele><time>2026-04-03T11:55:16.914Z</time></trkpt><trkpt lat="43.339705" lon="11.9269"><ele>260.0</ele><time>2026-04-03T11:55:17.915Z</time></trkpt><trkpt lat="43.33963" lon="11.9267517"><ele>260.0</ele><time>2026-04-03T11:55:18.915Z</time></trkpt><trkpt lat="43.33957" lon="11.9266117"><ele>260.0</ele><time>2026-04-03T11:55:19.915Z</time></trkpt><trkpt lat="43.33952" lon="11.92646"><ele>260.0</ele><time>2026-04-03T11:55:20.914Z</time></trkpt><trkpt lat="43.3394783" lon="11.9263083"><ele>260.75</ele><time>2026-04-03T11:55:21.914Z</time></trkpt><trkpt lat="43.3394483" lon="11.92613"><ele>261.5</ele><time>2026-04-03T11:55:22.915Z</time></trkpt><trkpt lat="43.33942" lon="11.9259567"><ele>262.25</ele><time>2026-04-03T11:55:23.915Z</time></trkpt><trkpt lat="43.3394" lon="11.9257933"><ele>263.0</ele><time>2026-04-03T11:55:24.915Z</time></trkpt><trkpt lat="43.3393617" lon="11.9256667"><ele>264.0</ele><time>2026-04-03T11:55:25.915Z</time></trkpt><trkpt lat="43.3393017" lon="11.925525"><ele>265.0</ele><time>2026-04-03T11:55:26.915Z</time></trkpt><trkpt lat="43.3392417" lon="11.9253733"><ele>266.0</ele><time>2026-04-03T11:55:27.915Z</time></trkpt><trkpt lat="43.33918" lon="11.925225"><ele>267.0</ele><time>2026-04-03T11:55:28.914Z</time></trkpt><trkpt lat="43.3391217" lon="11.9250783"><ele>266.6666666666667</ele><time>2026-04-03T11:55:29.915Z</time></trkpt><trkpt lat="43.3390667" lon="11.92495"><ele>266.3333333333333</ele><time>2026-04-03T11:55:30.915Z</time></trkpt><trkpt lat="43.3390183" lon="11.9248583"><ele>266.0</ele><time>2026-04-03T11:55:31.914Z</time></trkpt><trkpt lat="43.3389683" lon="11.9247817"><ele>265.66666666666663</ele><time>2026-04-03T11:55:32.914Z</time></trkpt><trkpt lat="43.3389117" lon="11.9246967"><ele>265.3333333333333</ele><time>2026-04-03T11:55:34.914Z</time></trkpt><trkpt lat="43.3388383" lon="11.9246067"><ele>265.0</ele><time>2026-04-03T11:55:38.915Z</time></trkpt><trkpt lat="43.3388" lon="11.9245317"><ele>265.0</ele><time>2026-04-03T11:55:39.914Z</time></trkpt><trkpt lat="43.3387417" lon="11.9244133"><ele>265.0</ele><time>2026-04-03T11:55:40.914Z</time></trkpt><trkpt lat="43.3386983" lon="11.9242783"><ele>265.0</ele><time>2026-04-03T11:55:41.915Z</time></trkpt><trkpt lat="43.338655" lon="11.9241367"><ele>265.0</ele><time>2026-04-03T11:55:42.915Z</time></trkpt><trkpt lat="43.3386267" lon="11.92397"><ele>265.0</ele><time>2026-04-03T11:55:43.914Z</time></trkpt><trkpt lat="43.338605" lon="11.9237917"><ele>265.4</ele><time>2026-04-03T11:55:44.914Z</time></trkpt><trkpt lat="43.3385783" lon="11.923635"><ele>265.8</ele><time>2026-04-03T11:55:45.915Z</time></trkpt><trkpt lat="43.3385533" lon="11.92349"><ele>266.2</ele><time>2026-04-03T11:55:46.915Z</time></trkpt><trkpt lat="43.3385333" lon="11.923355"><ele>266.6</ele><time>2026-04-03T11:55:47.915Z</time></trkpt><trkpt lat="43.3385167" lon="11.9232317"><ele>267.0</ele><time>2026-04-03T11:55:48.914Z</time></trkpt><trkpt lat="43.3385083" lon="11.9231183"><ele>267.5</ele><time>2026-04-03T11:55:49.915Z</time></trkpt><trkpt lat="43.33851" lon="11.9230167"><ele>268.0</ele><time>2026-04-03T11:55:50.914Z</time></trkpt><trkpt lat="43.3385067" lon="11.9228817"><ele>268.5</ele><time>2026-04-03T11:55:52.915Z</time></trkpt><trkpt lat="43.3384767" lon="11.9227783"><ele>269.0</ele><time>2026-04-03T11:55:56.914Z</time></trkpt><trkpt lat="43.338485" lon="11.922675"><ele>269.5</ele><time>2026-04-03T11:55:58.914Z</time></trkpt><trkpt lat="43.3385" lon="11.922515"><ele>270.0</ele><time>2026-04-03T11:56:00.915Z</time></trkpt><trkpt lat="43.3385017" lon="11.922405"><ele>270.0</ele><time>2026-04-03T11:56:01.914Z</time></trkpt><trkpt lat="43.3385033" lon="11.9222783"><ele>270.0</ele><time>2026-04-03T11:56:02.915Z</time></trkpt><trkpt lat="43.33851" lon="11.9221517"><ele>270.0</ele><time>2026-04-03T11:56:03.915Z</time></trkpt><trkpt lat="43.3385033" lon="11.9220367"><ele>270.0</ele><time>2026-04-03T11:56:04.915Z</time></trkpt><trkpt lat="43.3384933" lon="11.9219133"><ele>270.0</ele><time>2026-04-03T11:56:05.914Z</time></trkpt><trkpt lat="43.3384883" lon="11.9217717"><ele>269.3333333333333</ele><time>2026-04-03T11:56:06.914Z</time></trkpt><trkpt lat="43.33849" lon="11.9216683"><ele>268.6666666666667</ele><time>2026-04-03T11:56:07.915Z</time></trkpt><trkpt lat="43.3385" lon="11.92156"><ele>268.0</ele><time>2026-04-03T11:56:08.915Z</time></trkpt><trkpt lat="43.338515" lon="11.9214733"><ele>267.33333333333337</ele><time>2026-04-03T11:56:09.915Z</time></trkpt><trkpt lat="43.3385533" lon="11.921365"><ele>266.6666666666667</ele><time>2026-04-03T11:56:11.914Z</time></trkpt><trkpt lat="43.3386217" lon="11.92123"><ele>266.0</ele><time>2026-04-03T11:56:13.914Z</time></trkpt><trkpt lat="43.3386633" lon="11.9211417"><ele>266.0</ele><time>2026-04-03T11:56:14.914Z</time></trkpt><trkpt lat="43.338725" lon="11.9210417"><ele>266.0</ele><time>2026-04-03T11:56:15.914Z</time></trkpt><trkpt lat="43.3387867" lon="11.9209517"><ele>266.0</ele><time>2026-04-03T11:56:16.914Z</time></trkpt><trkpt lat="43.3388667" lon="11.9208333"><ele>266.0</ele><time>2026-04-03T11:56:17.914Z</time></trkpt><trkpt lat="43.33895" lon="11.9206983"><ele>266.0</ele><time>2026-04-03T11:56:18.915Z</time></trkpt><trkpt lat="43.33903" lon="11.9205417"><ele>267.0</ele><time>2026-04-03T11:56:19.915Z</time></trkpt><trkpt lat="43.339125" lon="11.9204"><ele>268.0</ele><time>2026-04-03T11:56:20.914Z</time></trkpt><trkpt lat="43.3392117" lon="11.9202533"><ele>269.0</ele><time>2026-04-03T11:56:21.915Z</time></trkpt><trkpt lat="43.3393117" lon="11.9201017"><ele>270.0</ele><time>2026-04-03T11:56:22.914Z</time></trkpt><trkpt lat="43.339415" lon="11.9199483"><ele>269.75</ele><time>2026-04-03T11:56:23.914Z</time></trkpt><trkpt lat="43.3395133" lon="11.9197967"><ele>269.5</ele><time>2026-04-03T11:56:24.914Z</time></trkpt><trkpt lat="43.33961" lon="11.9196533"><ele>269.25</ele><time>2026-04-03T11:56:25.914Z</time></trkpt><trkpt lat="43.3397033" lon="11.9195133"><ele>269.0</ele><time>2026-04-03T11:56:26.914Z</time></trkpt><trkpt lat="43.339795" lon="11.919385"><ele>269.0</ele><time>2026-04-03T11:56:27.915Z</time></trkpt><trkpt lat="43.3398767" lon="11.9192583"><ele>269.0</ele><time>2026-04-03T11:56:28.914Z</time></trkpt><trkpt lat="43.3399617" lon="11.9191217"><ele>269.0</ele><time>2026-04-03T11:56:29.915Z</time></trkpt><trkpt lat="43.3400483" lon="11.918995"><ele>269.0</ele><time>2026-04-03T11:56:30.915Z</time></trkpt><trkpt lat="43.3401317" lon="11.9188733"><ele>267.5</ele><time>2026-04-03T11:56:31.914Z</time></trkpt><trkpt lat="43.34021" lon="11.9187383"><ele>266.0</ele><time>2026-04-03T11:56:32.914Z</time></trkpt><trkpt lat="43.340295" lon="11.9186017"><ele>264.5</ele><time>2026-04-03T11:56:33.915Z</time></trkpt><trkpt lat="43.34038" lon="11.9184783"><ele>263.0</ele><time>2026-04-03T11:56:34.915Z</time></trkpt><trkpt lat="43.3404583" lon="11.9183483"><ele>262.5</ele><time>2026-04-03T11:56:35.914Z</time></trkpt><trkpt lat="43.3405333" lon="11.9182117"><ele>262.0</ele><time>2026-04-03T11:56:36.915Z</time></trkpt><trkpt lat="43.3406167" lon="11.91807"><ele>261.5</ele><time>2026-04-03T11:56:37.915Z</time></trkpt><trkpt lat="43.3407167" lon="11.9179333"><ele>261.0</ele><time>2026-04-03T11:56:38.914Z</time></trkpt><trkpt lat="43.340815" lon="11.9177883"><ele>261.0</ele><time>2026-04-03T11:56:39.914Z</time></trkpt><trkpt lat="43.3409083" lon="11.91765"><ele>261.0</ele><time>2026-04-03T11:56:40.915Z</time></trkpt><trkpt lat="43.3410083" lon="11.917515"><ele>261.0</ele><time>2026-04-03T11:56:41.914Z</time></trkpt><trkpt lat="43.341095" lon="11.9173817"><ele>261.0</ele><time>2026-04-03T11:56:42.914Z</time></trkpt><trkpt lat="43.34118" lon="11.91725"><ele>261.0</ele><time>2026-04-03T11:56:43.915Z</time></trkpt><trkpt lat="43.3412533" lon="11.9171183"><ele>261.0</ele><time>2026-04-03T11:56:44.915Z</time></trkpt><trkpt lat="43.341335" lon="11.9169967"><ele>261.0</ele><time>2026-04-03T11:56:45.915Z</time></trkpt><trkpt lat="43.3414217" lon="11.916875"><ele>261.0</ele><time>2026-04-03T11:56:46.915Z</time></trkpt><trkpt lat="43.3414967" lon="11.91675"><ele>261.8</ele><time>2026-04-03T11:56:47.915Z</time></trkpt><trkpt lat="43.341575" lon="11.9166333"><ele>262.6</ele><time>2026-04-03T11:56:48.915Z</time></trkpt><trkpt lat="43.34165" lon="11.9165283"><ele>263.4</ele><time>2026-04-03T11:56:49.914Z</time></trkpt><trkpt lat="43.3417217" lon="11.9164133"><ele>264.2</ele><time>2026-04-03T11:56:50.915Z</time></trkpt><trkpt lat="43.3418" lon="11.9163067"><ele>265.0</ele><time>2026-04-03T11:56:51.914Z</time></trkpt><trkpt lat="43.341875" lon="11.9161883"><ele>265.0</ele><time>2026-04-03T11:56:52.915Z</time></trkpt><trkpt lat="43.3419533" lon="11.9160583"><ele>265.0</ele><time>2026-04-03T11:56:53.914Z</time></trkpt><trkpt lat="43.3420283" lon="11.91594"><ele>265.0</ele><time>2026-04-03T11:56:54.914Z</time></trkpt><trkpt lat="43.3421017" lon="11.915835"><ele>265.0</ele><time>2026-04-03T11:56:55.915Z</time></trkpt><trkpt lat="43.3421633" lon="11.9157533"><ele>265.0</ele><time>2026-04-03T11:56:56.915Z</time></trkpt><trkpt lat="43.3422383" lon="11.9156817"><ele>265.16666666666663</ele><time>2026-04-03T11:56:57.914Z</time></trkpt><trkpt lat="43.3423017" lon="11.9156117"><ele>265.3333333333333</ele><time>2026-04-03T11:56:58.914Z</time></trkpt><trkpt lat="43.3423683" lon="11.9155433"><ele>265.5</ele><time>2026-04-03T11:56:59.914Z</time></trkpt><trkpt lat="43.3424283" lon="11.9154583"><ele>265.6666666666667</ele><time>2026-04-03T11:57:00.915Z</time></trkpt><trkpt lat="43.3424733" lon="11.9153483"><ele>265.83333333333337</ele><time>2026-04-03T11:57:01.914Z</time></trkpt><trkpt lat="43.34252" lon="11.9152183"><ele>266.0</ele><time>2026-04-03T11:57:02.914Z</time></trkpt><trkpt lat="43.3425867" lon="11.91507"><ele>266.0</ele><time>2026-04-03T11:57:03.915Z</time></trkpt><trkpt lat="43.3426583" lon="11.91494"><ele>266.0</ele><time>2026-04-03T11:57:04.915Z</time></trkpt><trkpt lat="43.342735" lon="11.914835"><ele>266.0</ele><time>2026-04-03T11:57:05.914Z</time></trkpt><trkpt lat="43.3428033" lon="11.9147367"><ele>266.0</ele><time>2026-04-03T11:57:06.915Z</time></trkpt><trkpt lat="43.3428717" lon="11.9146267"><ele>266.0</ele><time>2026-04-03T11:57:07.914Z</time></trkpt><trkpt lat="43.34294" lon="11.914525"><ele>266.0</ele><time>2026-04-03T11:57:08.914Z</time></trkpt><trkpt lat="43.343015" lon="11.9144033"><ele>266.0</ele><time>2026-04-03T11:57:09.914Z</time></trkpt><trkpt lat="43.343095" lon="11.91427"><ele>266.0</ele><time>2026-04-03T11:57:10.915Z</time></trkpt><trkpt lat="43.343175" lon="11.91414"><ele>266.0</ele><time>2026-04-03T11:57:11.915Z</time></trkpt><trkpt lat="43.343255" lon="11.9140167"><ele>266.25</ele><time>2026-04-03T11:57:12.914Z</time></trkpt><trkpt lat="43.3433267" lon="11.9139033"><ele>266.5</ele><time>2026-04-03T11:57:13.914Z</time></trkpt><trkpt lat="43.34341" lon="11.9137867"><ele>266.75</ele><time>2026-04-03T11:57:14.914Z</time></trkpt><trkpt lat="43.3434967" lon="11.9136633"><ele>267.0</ele><time>2026-04-03T11:57:15.915Z</time></trkpt><trkpt lat="43.343585" lon="11.9135283"><ele>267.25</ele><time>2026-04-03T11:57:16.914Z</time></trkpt><trkpt lat="43.34368" lon="11.9133917"><ele>267.5</ele><time>2026-04-03T11:57:17.915Z</time></trkpt><trkpt lat="43.3437767" lon="11.9132683"><ele>267.75</ele><time>2026-04-03T11:57:18.914Z</time></trkpt><trkpt lat="43.343875" lon="11.913145"><ele>268.0</ele><time>2026-04-03T11:57:19.914Z</time></trkpt><trkpt lat="43.3439883" lon="11.9130217"><ele>268.25</ele><time>2026-04-03T11:57:20.914Z</time></trkpt><trkpt lat="43.34411" lon="11.9129183"><ele>268.5</ele><time>2026-04-03T11:57:21.915Z</time></trkpt><trkpt lat="43.3442317" lon="11.9128283"><ele>268.75</ele><time>2026-04-03T11:57:22.914Z</time></trkpt><trkpt lat="43.3443517" lon="11.9127567"><ele>269.0</ele><time>2026-04-03T11:57:23.914Z</time></trkpt><trkpt lat="43.3444817" lon="11.9126933"><ele>269.0</ele><time>2026-04-03T11:57:24.915Z</time></trkpt><trkpt lat="43.3446133" lon="11.9126333"><ele>269.0</ele><time>2026-04-03T11:57:25.915Z</time></trkpt><trkpt lat="43.3447433" lon="11.91259"><ele>269.0</ele><time>2026-04-03T11:57:26.914Z</time></trkpt><trkpt lat="43.3448733" lon="11.9125483"><ele>269.0</ele><time>2026-04-03T11:57:27.914Z</time></trkpt><trkpt lat="43.3450133" lon="11.9124967"><ele>269.75</ele><time>2026-04-03T11:57:28.914Z</time></trkpt><trkpt lat="43.3451583" lon="11.9124467"><ele>270.5</ele><time>2026-04-03T11:57:29.914Z</time></trkpt><trkpt lat="43.3453" lon="11.9124"><ele>271.25</ele><time>2026-04-03T11:57:30.915Z</time></trkpt><trkpt lat="43.3454217" lon="11.9123467"><ele>272.0</ele><time>2026-04-03T11:57:31.915Z</time></trkpt><trkpt lat="43.3455417" lon="11.9122933"><ele>273.0</ele><time>2026-04-03T11:57:32.915Z</time></trkpt><trkpt lat="43.345665" lon="11.9122533"><ele>274.0</ele><time>2026-04-03T11:57:33.915Z</time></trkpt><trkpt lat="43.345785" lon="11.9122133"><ele>275.0</ele><time>2026-04-03T11:57:34.915Z</time></trkpt><trkpt lat="43.34591" lon="11.912165"><ele>276.0</ele><time>2026-04-03T11:57:35.914Z</time></trkpt><trkpt lat="43.346035" lon="11.9121133"><ele>276.0</ele><time>2026-04-03T11:57:36.914Z</time></trkpt><trkpt lat="43.3461483" lon="11.9120667"><ele>276.0</ele><time>2026-04-03T11:57:37.914Z</time></trkpt><trkpt lat="43.3462533" lon="11.9120267"><ele>276.0</ele><time>2026-04-03T11:57:38.915Z</time></trkpt><trkpt lat="43.3463483" lon="11.9119867"><ele>276.0</ele><time>2026-04-03T11:57:39.914Z</time></trkpt><trkpt lat="43.3464433" lon="11.91195"><ele>276.0</ele><time>2026-04-03T11:57:40.914Z</time></trkpt><trkpt lat="43.34653" lon="11.9119167"><ele>276.6</ele><time>2026-04-03T11:57:41.914Z</time></trkpt><trkpt lat="43.346615" lon="11.9118817"><ele>277.20000000000005</ele><time>2026-04-03T11:57:42.915Z</time></trkpt><trkpt lat="43.3467133" lon="11.9118467"><ele>277.79999999999995</ele><time>2026-04-03T11:57:43.914Z</time></trkpt><trkpt lat="43.3468283" lon="11.9118067"><ele>278.4</ele><time>2026-04-03T11:57:44.914Z</time></trkpt><trkpt lat="43.3469483" lon="11.9117583"><ele>279.0</ele><time>2026-04-03T11:57:45.915Z</time></trkpt><trkpt lat="43.3470617" lon="11.9117167"><ele>279.0</ele><time>2026-04-03T11:57:46.915Z</time></trkpt><trkpt lat="43.34717" lon="11.9116717"><ele>279.0</ele><time>2026-04-03T11:57:47.915Z</time></trkpt><trkpt lat="43.347285" lon="11.9116333"><ele>279.0</ele><time>2026-04-03T11:57:48.915Z</time></trkpt><trkpt lat="43.3474083" lon="11.9115917"><ele>279.0</ele><time>2026-04-03T11:57:49.914Z</time></trkpt><trkpt lat="43.3475333" lon="11.9115517"><ele>279.25</ele><time>2026-04-03T11:57:50.915Z</time></trkpt><trkpt lat="43.3476583" lon="11.9115017"><ele>279.5</ele><time>2026-04-03T11:57:51.915Z</time></trkpt><trkpt lat="43.3477817" lon="11.91146"><ele>279.75</ele><time>2026-04-03T11:57:52.914Z</time></trkpt><trkpt lat="43.3479083" lon="11.9114083"><ele>280.0</ele><time>2026-04-03T11:57:53.915Z</time></trkpt><trkpt lat="43.3480333" lon="11.9113433"><ele>280.5</ele><time>2026-04-03T11:57:54.915Z</time></trkpt><trkpt lat="43.3481583" lon="11.9112567"><ele>281.0</ele><time>2026-04-03T11:57:55.914Z</time></trkpt><trkpt lat="43.34829" lon="11.911155"><ele>281.5</ele><time>2026-04-03T11:57:56.914Z</time></trkpt><trkpt lat="43.34842" lon="11.9110383"><ele>282.0</ele><time>2026-04-03T11:57:57.914Z</time></trkpt><trkpt lat="43.3485383" lon="11.9109133"><ele>281.25</ele><time>2026-04-03T11:57:58.915Z</time></trkpt><trkpt lat="43.34864" lon="11.910785"><ele>280.5</ele><time>2026-04-03T11:57:59.914Z</time></trkpt><trkpt lat="43.348735" lon="11.910645"><ele>279.75</ele><time>2026-04-03T11:58:00.914Z</time></trkpt><trkpt lat="43.3488283" lon="11.910495"><ele>279.0</ele><time>2026-04-03T11:58:01.914Z</time></trkpt><trkpt lat="43.3489233" lon="11.9103467"><ele>279.0</ele><time>2026-04-03T11:58:02.914Z</time></trkpt><trkpt lat="43.3490117" lon="11.910215"><ele>279.0</ele><time>2026-04-03T11:58:03.914Z</time></trkpt><trkpt lat="43.3490983" lon="11.9100817"><ele>279.0</ele><time>2026-04-03T11:58:04.914Z</time></trkpt><trkpt lat="43.3491783" lon="11.9099533"><ele>279.0</ele><time>2026-04-03T11:58:05.915Z</time></trkpt><trkpt lat="43.349255" lon="11.9098367"><ele>278.8</ele><time>2026-04-03T11:58:06.915Z</time></trkpt><trkpt lat="43.34933" lon="11.909725"><ele>278.59999999999997</ele><time>2026-04-03T11:58:07.915Z</time></trkpt><trkpt lat="43.3494" lon="11.90962"><ele>278.4</ele><time>2026-04-03T11:58:08.915Z</time></trkpt><trkpt lat="43.34947" lon="11.909515"><ele>278.2</ele><time>2026-04-03T11:58:09.915Z</time></trkpt><trkpt lat="43.34954" lon="11.9094183"><ele>278.0</ele><time>2026-04-03T11:58:10.915Z</time></trkpt><trkpt lat="43.3496017" lon="11.909335"><ele>278.0</ele><time>2026-04-03T11:58:11.914Z</time></trkpt><trkpt lat="43.34966" lon="11.909255"><ele>278.0</ele><time>2026-04-03T11:58:12.915Z</time></trkpt><trkpt lat="43.349705" lon="11.9091867"><ele>278.0</ele><time>2026-04-03T11:58:13.914Z</time></trkpt><trkpt lat="43.349755" lon="11.90913"><ele>278.0</ele><time>2026-04-03T11:58:14.914Z</time></trkpt><trkpt lat="43.3498483" lon="11.9090233"><ele>278.0</ele><time>2026-04-03T11:58:16.915Z</time></trkpt><trkpt lat="43.349885" lon="11.9089033"><ele>278.0</ele><time>2026-04-03T11:58:18.915Z</time></trkpt><trkpt lat="43.349835" lon="11.9087817"><ele>278.0</ele><time>2026-04-03T11:58:20.914Z</time></trkpt><trkpt lat="43.3497767" lon="11.9086533"><ele>278.0</ele><time>2026-04-03T11:58:22.914Z</time></trkpt><trkpt lat="43.34974" lon="11.9085333"><ele>278.0</ele><time>2026-04-03T11:58:24.914Z</time></trkpt><trkpt lat="43.3496967" lon="11.9084583"><ele>278.0</ele><time>2026-04-03T11:58:26.914Z</time></trkpt></trkseg></trk></gpx>